     2.11           OBSERVATION DATA    G (GPS)             RINEX VERSION / TYPE
teqc 2010Oct21 OPUS Account 20111028 14:51:19UTC            PGM / RUN BY / DATE
Q 1382                                                      MARKER NAME
2093                                                        MARKER NUMBER
CSMIDDLETON NGS                                             OBSERVER / AGENCY
4624K01584 TRIMBLE NETR5 4.41                               REC # / TYPE / VERS
60177755 TRM41249.00 NONE                                   ANT # / TYPE
  -752431.7709 -5570601.1819  3003707.8795                  APPROX POSITION XYZ
        2.0000        0.0000        0.0000                  ANTENNA: DELTA H/E/N
     1     1                                                WAVELENGTH FACT L1/2
     5    L1    L2    C1    P1    P2                        # / TYPES OF OBSERV
    15                                                      LEAP SECONDS
  2011     8    22     0     0    0.0000000     GPS         TIME OF FIRST OBS
                                                            END OF HEADER
 11  8 22  0  0  0.0000000  0  8G17G25G04G10G12G05G09G02
 120602920.39117  93976369.55917  22949968.094                    22949978.219
 129442407.56716 100864292.80614  24632076.813
 112243886.84518  87462870.52356  21359282.070                    21359291.469
 109954699.93918  85679116.56856  20923681.586                    20923690.297
 114371205.47417  89120488.59217  21764113.141                    21764121.352
 117746509.20617  91750610.63817  22406395.156                    22406405.125
 122427247.80517  95397949.83754  23297138.422                    23297148.848
 108495279.44818  84541908.58856  20645946.719                    20645953.055
 11  8 22  0  0 30.0000000  0  9G17G25G04G10G12G05G30G09G02
 120651461.008 7  94014193.338 7  22959205.453                    22959214.961
 129339339.292 6 100783979.922 5  24612463.625                    24612476.551
 112316714.361 8  87519619.20846  21373140.719                    21373150.223
 109940113.278 8  85667750.36146  20920906.266                    20920914.547
 114300935.724 8  89065732.981 7  21750741.188                    21750749.301
 117650281.701 7  91675628.264 7  22388083.539                    22388093.582
 128079026.57616                  24372634.766
 122499912.025 7  95454571.25344  23310966.211                    23310976.703
 108487803.665 8  84536083.32346  20644523.742                    20644530.266
 11  8 22  0  1  0.0000000  0  9G17G25G04G10G12G05G30G09G02
 120700142.240 7  94052126.749 7  22968469.266                    22968478.785
 129236379.733 6 100703751.715 5  24592871.063                    24592883.043
 112389727.776 7  87576512.75045  21387034.906                    21387044.383
 109926142.754 8  85656864.28046  20918247.648                    20918256.063
 114231032.571 7  89011263.044 7  21737438.945                    21737446.414
 117554288.589 7  91600828.536 7  22369816.602                    22369826.570
 127974055.858 5                  24352658.695
 122572826.567 7  95511387.72244  23324841.188                    23324851.758
 108480641.602 8  84530502.51446  20643161.047                    20643167.352
 11  8 22  0  1 30.0000000  0  9G17G25G04G10G12G05G30G09G02
 120748964.860 7  94090170.356 7  22977759.820                    22977769.617
 129133531.290 6 100623610.131 5  24573299.508                    24573311.426
 112462924.761 8  87633549.35146  21400963.563                    21400973.008
 109912789.560 8  85646459.20946  20915706.477                    20915715.074
 114161498.388 8  88957080.603 7  21724207.219                    21724215.098
 117458532.578 7  91526213.559 7  22351595.172                    22351604.875
 127869263.982 6                  24332717.297
 122645987.824 7  95568396.42244  23338763.820                    23338773.863
 108473792.101 8  84525165.25746  20641857.898                    20641863.590
 11  8 22  0  2  0.0000000  0  9G17G25G04G10G12G05G30G09G02
 120797929.742 7  94128324.783 6  22987077.789                    22987087.449
 129030796.348 6 100543556.996 6  24553749.930                    24553761.668
 112536303.107 8  87690727.26846  21414926.844                    21414936.238
 109900054.318 8  85636535.66346  20913283.039                    20913291.273
 114092335.934 7  88903187.821 7  21711045.859                    21711054.207
 117363016.871 7  91451785.827 7  22333418.984                    22333428.543
 127764653.619 5                  24312810.750
 122719392.561 7  95625594.83044  23352732.328                    23352742.309
 108467254.408 8  84520070.96746  20640613.781                    20640619.211
 11  8 22  0  2 30.0000000  0  9G17G25G04G10G12G05G30G09G02
 120847037.417 7  94166590.477 6  22996422.195                    22996431.742
 128928177.559 6 100463594.387 6  24534222.414                    24534234.039
 112609860.635 8  87748044.81345  21428924.781                    21428934.039
 109887938.109 8  85627094.47246  20910977.555                    20910985.922
 114023547.487 7  88849586.476 7  21697955.883                    21697963.633
 117267744.563 7  91377547.752 7  22315288.875                    22315298.363
 127660227.493 5                  24292938.875
 122793037.324 7  95682980.29344  23366746.539                    23366756.973
 108461027.623 8  84515218.94346  20639428.555                    20639434.648
 11  8 22  0  3  0.0000000  0  9G17G25G04G10G12G05G30G09G02
 120896288.105 7  94204967.628 6  23005794.945                    23005803.059
 128825677.070 6 100383723.922 6  24514716.203                    24514728.574
 112683594.891 8  87805500.06346  21442956.023                    21442965.121
 109876441.014 8  85618135.71846  20908789.727                    20908798.141
 113955135.182 7  88796278.223 7  21684937.375                    21684945.508
 117172718.115 7  91303501.270 7  22297206.211                    22297215.781
 127555988.089 6  99394333.91352  24273102.539                    24273111.996
 122866918.520 7  95740550.00344  23380805.563                    23380815.516
 108455109.785 8  84510607.65946  20638302.672                    20638308.777
 11  8 22  0  3 30.0000000  0  9G17G25G04G10G12G05G30G09G02
 120945682.595 7  94243456.815 6  23015194.016                    23015202.070
 128723297.754 6 100303947.896 6  24495234.531                    24495246.551
 112757503.815 8  87863091.41946  21457020.711                    21457029.027
 109865564.362 8  85609660.42146  20906719.781                    20906728.211
 113887102.180 7  88743265.529 7  21671990.867                    21671998.926
 117077940.977 7  91229649.039 7  22279170.484                    22279180.547
 127451938.479 6  99313256.40242  24253302.961                    24253312.691
 122941032.798 7  95798301.32244  23394908.836                    23394919.547
 108449500.492 8  84506236.80246  20637235.141                    20637241.352
 11  8 22  0  4  0.0000000  0  9G17G25G04G10G12G05G30G09G02
 120995221.879 7  94282058.818 6  23024621.164                    23024628.934
 128621042.177 6 100224268.300 6  24475776.398                    24475788.977
 112831585.815 8  87920817.64745  21471117.984                    21471126.805
 109855309.587 8  85601669.69846  20904768.359                    20904776.313
 113819450.797 7  88690550.198 7  21659117.820                    21659125.059
 116983415.861 7  91155993.201 7  22261182.641                    22261192.063
 127348081.796 6  99232329.21742  24233539.836                    24233550.461
 123015377.008 7  95856231.81244  23409055.656                    23409067.023
 108444199.080 8  84502105.84946  20636226.680                    20636232.527
 11  8 22  0  4 30.0000000  0  9G17G25G04G10G12G05G30G09G02
 121044906.195 7  94320773.855 6  23034074.977                    23034084.641
 128518912.460 7 100144686.745 6  24456341.375                    24456353.750
 112905838.107 8  87978676.57545  21485247.313                    21485256.117
 109845676.604 8  85594163.49246  20902935.273                    20902944.078
 113752183.142 7  88638133.882 7  21646317.109                    21646324.707
 116889145.595 7  91082535.935 7  22243243.898                    22243253.598
 127244420.304 6  99151554.07643  24213812.695                    24213823.090
 123089947.270 7  95914338.40344  23423246.703                    23423257.656
 108439203.554 8  84498213.25446  20635275.859                    20635281.598
 11  8 22  0  5  0.0000000  0  9G17G25G04G10G12G05G30G09G02
 121094736.473 7  94359602.617 6  23043557.930                    23043566.555
 128416911.536 7 100065205.572 6  24436931.227                    24436943.672
 112980258.911 8  88036666.81545  21499409.078                    21499418.383
 109836666.443 8  85587142.61846  20901221.125                    20901228.957
 113685302.278 7  88586018.941 7  21633589.859                    21633597.594
 116795133.388 7  91009279.759 7  22225353.500                    22225363.523
 127140957.106 6  99070933.48743  24194124.977                    24194134.840
 123164740.730 7  95972618.95844  23437479.461                    23437490.285
 108434513.777 8  84494558.89946  20634383.414                    20634389.453
 11  8 22  0  5 30.0000000  0  9G17G25G04G10G12G05G30G09G02
 121144713.393 7  94398545.660 6  23053068.281                    23053078.391
 128315041.910 7  99985826.715 7  24417545.844                    24417558.520
 113054846.130 8  88094786.72845  21513602.586                    21513612.258
 109828279.904 7  85580607.66046  20899624.797                    20899633.383
 113618810.529 8  88534207.202 7  21620936.797                    21620944.742
 116701382.359 7  90936227.108 7  22207513.547                    22207523.063
 127037694.949 6  98990469.58543  24174474.906                    24174484.805
 123239753.709 7  96031070.56444  23451753.703                    23451764.582
 108430128.692 8  84491141.96246  20633548.969                    20633554.621
 11  8 22  0  6  0.0000000  0  9G17G25G04G10G12G05G30G09G02
 121194837.341 7  94437603.255 7  23062606.852                    23062616.953
 128213305.955 7  99906552.041 6  24398185.961                    24398197.992
 113129597.489 8  88153034.54145  21527827.688                    21527836.801
 109820517.224 8  85574558.84446  20898147.438                    20898155.965
 113552710.208 8  88482700.490 7  21608358.289                    21608366.184
 116607895.109 7  90863379.988 7  22189723.516                    22189732.902
 126934636.611 6  98910164.36543  24154863.398                    24154872.902
 123314983.048 7  96089690.76244  23466069.813                    23466080.113
 108426046.852 8  84487961.31846  20632772.086                    20632777.785
 11  8 22  0  6 30.0000000  0  9G17G25G04G10G12G05G30G09G02
 121245108.795 7  94476775.818 6  23072172.359                    23072182.133
 128111706.195 7  99827383.476 6  24378852.680                    24378864.105
 113204511.039 8  88211408.73945  21542083.000                    21542092.191
 109813379.382 8  85568996.90546  20896789.492                    20896797.691
 113487003.866 8  88431500.767 7  21595855.086                    21595862.727
 116514674.742 7  90790740.823 7  22171984.422                    22171993.781
 126831784.903 6  98830020.25443  24135291.234                    24135301.512
 123390424.971 7  96148476.60744  23480426.156                    23480436.574
 108422267.248 8  84485016.19246  20632052.727                    20632058.625
 11  8 22  0  7  0.0000000  0  9G17G25G04G10G12G05G30G09G02
 121295528.423 7  94516063.844 6  23081767.063                    23081776.457
 128010245.138 7  99748322.983 6  24359544.766                    24359556.227
 113279584.618 8  88269907.64245  21556369.188                    21556378.270
 109806866.703 8  85563922.12046  20895550.039                    20895558.305
 113421693.847 7  88380609.851 7  21583426.852                    21583434.688
 116421723.932 7  90718311.712 7  22154296.313                    22154305.543
 126729142.385 6  98750039.16043  24115758.633                    24115769.543
 123466076.251 7  96207425.59044  23494822.000                    23494832.535
 108418788.401 8  84482305.41346  20631390.563                    20631396.730
 11  8 22  0  7 30.0000000  0  9G17G25G04G10G12G05G30G09G02
 121346096.883 7  94555467.804 6  23091390.359                    23091399.684
 127908925.153 7  99669372.413 6  24340264.172                    24340275.355
 113354815.698 8  88328529.26745  21570685.039                    21570694.203
 109800979.651 7  85559334.83746  20894430.063                    20894437.988
 113356782.127 8  88330029.308 7  21571074.578                    21571082.324
 116329045.785 7  90646095.060 7  22136660.391                    22136669.441
 126626711.765 6  98670223.19143  24096266.797                    24096277.164
 123541933.333 7  96266534.95444  23509256.773                    23509267.781
 108415609.405 8  84479828.28846  20630785.844                    20630791.715
 11  8 22  0  8  0.0000000  0  9G17G25G04G10G12G05G30G09G02
 121396814.844 7  94594988.279 6  23101041.367                    23101051.422
 127807749.099 7  99590533.984 6  24321010.172                    24321021.762
 113430202.772 8  88387272.45245  21585030.648                    21585039.402
 109795719.060 8  85555235.71446  20893428.773                    20893437.344
 113292271.754 8  88279761.500 7  21558798.500                    21558806.418
 116236643.302 7  90574093.211 7  22119076.383                    22119085.742
 126524496.244 6  98590574.84643  24076815.547                    24076826.363
 123617993.110 7  96325802.22644  23523730.820                    23523741.406
 108412729.468 8  84477584.19246  20630237.820                    20630243.570
 11  8 22  0  8 30.0000000  0  9G17G25G04G10G12G05G30G09G02
 121447683.152 7  94634625.894 6  23110722.164                    23110730.535
 127706719.603 7  99511809.814 6  24301785.539                    24301796.988
 113505743.801 8  88446135.59245  21599405.641                    21599414.668
 109791085.604 7  85551625.24546  20892546.914                    20892555.086
 113228165.259 7  88229808.399 7  21546599.492                    21546607.258
 116144519.565 7  90502308.561 7  22101545.594                    22101554.758
 126422498.717 6  98511096.29443  24057406.031                    24057416.254
 123694252.068 7  96385224.72144  23538242.531                    23538252.953
 108410147.797 8  84475572.51146  20629746.422                    20629752.695
 11  8 22  0  9  0.0000000  0  9G17G25G04G10G12G05G30G09G02
 121498702.175 7  94674380.990 6  23120431.234                    23120440.273
 127605838.992 7  99433201.641 6  24282588.563                    24282599.895
 113581436.337 8  88505116.77945  21613809.844                    21613818.383
 109787079.732 7  85548503.82546  20891784.414                    20891793.309
 113164464.776 8  88180171.665 7  21534477.867                    21534485.797
 116052677.236 7  90430743.199 7  22084068.617                    22084077.668
 126320721.748 6  98431789.61643  24038039.008                    24038048.730
 123770706.673 7  96444799.67244  23552791.297                    23552802.039
 108407862.748 8  84473791.96146  20629311.531                    20629317.910
 11  8 22  0  9 30.0000000  0  9G17G25G04G10G12G05G30G09G02
 121549872.579 7  94714253.998 6  23130167.813                    23130177.688
 127505110.008 6  99354711.556 5  24263419.336                    24263430.730
 113657278.570 8  88564214.61245  21628241.977                    21628251.055
 109783701.898 8  85545871.77346  20891141.836                    20891150.527
 113101172.576 8  88130853.092 7  21522433.516                    21522441.434
 115961119.167 7  90359399.325 7  22066645.578                    22066655.000
 126219168.177 6  98352657.04943  24018712.906                    24018723.688
 123847353.642 7  96504524.51644  23567376.555                    23567387.879
 108405873.449 8  84472241.86346  20628932.750                    20628939.395
 11  8 22  0 10  0.0000000  0  9G17G25G04G10G12G05G30G09G02
 121601195.023 7  94754245.480 6  23139934.609                    23139943.344
 127404535.387 6  99276341.867 6  24244281.414                    24244292.707
 113733268.741 8  88623427.70545  21642702.234                    21642711.555
 109780952.423 8  85543729.34946  20890618.563                    20890627.004
 113038291.674 8  88081855.006 7  21510467.656                    21510475.793
 115869848.644 7  90288279.515 7  22049277.555                    22049286.516
 126117841.109 6  98273700.98943  23999431.414                    23999441.668
 123924190.029 7  96564396.94844  23581998.055                    23582008.977
 108404179.365 8  84470921.81046  20628610.719                    20628616.824
 11  8 22  0 10 30.0000000  0  9G17G25G04G10G12G05G30G09G02
 121652669.627 7  94794355.516 6  23149729.820                    23149738.641
 127304117.304 6  99198094.062 6  24225171.852                    24225183.738
 113809404.252 8  88682754.06345  21657190.234                    21657200.031
 109778831.242 8  85542076.51446  20890214.797                    20890222.992
 112975823.802 8  88033178.766 7  21498580.516                    21498588.246
 115778868.183 7  90217385.734 7  22031964.242                    22031973.523
 126016742.943 6  98194923.28643  23980192.984                    23980202.930
 124001211.636 7  96624413.69344  23596655.320                    23596666.195
 108402778.135 8  84469829.94146  20628344.211                    20628350.395
 11  8 22  0 11  0.0000000  0  9G17G25G04G10G12G05G30G09G02
 121704297.451 7  94834584.947 6  23159554.664                    23159563.363
 127203858.485 6  99119970.390 6  24206093.664                    24206105.691
 113885683.134 8  88742192.14245  21671705.898                    21671715.270
 109777339.068 8  85540913.80446  20889930.734                    20889939.504
 112913771.774 8  87984826.554 7  21486772.477                    21486780.348
 115688180.800 7  90146720.311 7  22014706.984                    22014716.367
 125915876.659 6  98116326.22543  23960999.227                    23961008.648
 124078415.301 7  96684572.33144  23611346.758                    23611357.355
 108401669.367 8  84468965.97446  20628133.133                    20628139.320
 11  8 22  0 11 30.0000000  0  9G17G25G04G10G12G05G30G09G02
 121756078.867 7  94874934.073 6  23169407.859                    23169417.137
 127103761.550 7  99041972.864 6  24187046.250                    24187058.172
 113962103.584 8  88801740.51845  21686247.977                    21686257.086
 109776476.392 8  85540241.62546  20889766.820                    20889775.184
 112852137.763 8  87936800.075 7  21475044.016                    21475051.117
 115597789.388 7  90076285.534 7  21997506.188                    21997515.191
 125815245.095 6  98037912.12242  23941849.539                    23941858.914
 124155797.622 7  96744870.17444  23626071.742                    23626082.684
 108400851.783 8  84468328.89946  20627977.602                    20627983.523
 11  8 22  0 12  0.0000000  0  9G17G25G04G10G12G05G30G09G02
 121808014.570 7  94915403.438 6  23179290.828                    23179300.211
 127003829.089 7  98964103.499 6  24168029.523                    24168041.309
 114038663.300 8  88861397.41145  21700817.070                    21700826.418
 109776243.439 8  85540060.11846  20889722.633                    20889730.578
 112790924.106 8  87889101.147 7  21463394.945                    21463402.973
 115507696.928 7  90006083.686 7  21980361.750                    21980370.891
 125714850.938 6  97959683.00943  23922744.008                    23922753.984
 124233355.282 7  96805304.60844  23640830.758                    23640841.211
 108400324.302 8  84467917.87446  20627876.938                    20627883.441
 11  8 22  0 12 30.0000000  0  9G17G25G04G10G12G05G30G09G02
 121860105.126 7  94955993.450 6  23189202.656                    23189212.523
 126904063.613 7  98886364.247 6  24149044.859                    24149056.652
 114115360.596 8  88921161.50545  21715411.914                    21715421.078
 109776640.229 7  85540369.33146  20889797.602                    20889806.094
 112730133.072 8  87841731.535 7  21451827.273                    21451834.977
 115417906.382 7  89936117.109 7  21963275.680                    21963284.461
 125614697.188 6  97881641.21043  23903686.500                    23903695.582
 124311084.793 7  96865872.99844  23655621.984                    23655632.684
 108400085.706 8  84467731.95646  20627831.758                    20627837.684
 11  8 22  0 13  0.0000000  0  9G17G25G04G10G12G05G30G09G02
 121912351.204 7  94996704.649 7  23199144.953                    23199154.582
 126804467.738 7  98808757.162 6  24130091.969                    24130104.164
 114192193.311 8  88981031.11945  21730033.055                    21730042.031
 109777667.269 7  85541169.64646  20889993.484                    20890002.070
 112669766.944 7  87794693.026 7  21440339.867                    21440347.816
 115328420.422 7  89866387.863 7  21946246.758                    21946255.875
 125514786.491 6  97803788.84243  23884673.625                    23884683.801
 124388982.532 6  96926572.45944  23670445.586                    23670456.543
 108400134.865 8  84467770.25946  20627841.156                    20627847.418
 11  8 22  0 13 30.0000000  0  9G17G25G04G10G12G05G30G09G02
 121964753.371 7  95037537.486 6  23209117.039                    23209126.684
 126705044.248 7  98731284.393 6  24111172.453                    24111184.629
 114269159.550 8  89041004.77445  21744678.984                    21744688.320
 109779324.524 8  85542461.02946  20890308.625                    20890317.141
 112609828.496 8  87747987.767 7  21428933.625                    21428941.840
 115239241.815 7  89796898.127 7  21929276.492                    21929285.383
 125415122.051 6  97726128.30943  23865708.609                    23865718.469
 124467045.489 7  96987400.64944  23685300.531                    23685311.605
 108400470.902 8  84468032.11247  20627905.023                    20627910.941
 11  8 22  0 14  0.0000000  0  9G17G25G04G10G12G05G30G09G02
 122017312.010 7  95078492.237 6  23219118.852                    23219127.551
 126605795.730 7  98653947.929 6  24092286.258                    24092297.875
 114346257.114 8  89101080.76345  21759350.102                    21759359.133
 109781612.428 7  85544243.83446  20890744.172                    20890752.098
 112550319.845 8  87701617.414 7  21417609.766                    21417617.633
 115150373.671 7  89727650.301 7  21912365.477                    21912374.559
 125315706.527 6  97648661.73843  23846790.469                    23846799.957
 124545270.277 6  97048354.95744  23700186.313                    23700197.898
 108401092.619 8  84468516.56746  20628023.383                    20628029.570
 11  8 22  0 14 30.0000000  0  9G17G25G04G10G12G05G30G09G02
 122070027.964 7  95119569.530 6  23229150.695                    23229160.086
 126506724.604 7  98576749.720 6  24073433.141                    24073445.184
 114423484.387 8  89161257.82745  21774046.203                    21774055.098
 109784531.487 8  85546518.43046  20891299.398                    20891307.660
 112491243.299 8  87655583.772 7  21406367.680                    21406375.816
 115061818.733 7  89658646.526 7  21895513.977                    21895523.234
 125216542.682 7  97571391.26443  23827920.000                    23827929.461
 124623653.455 7  97109432.65944  23715101.953                    23715113.020
 108401998.830 8  84469222.70946  20628195.805                    20628201.816
 11  8 22  0 15  0.0000000  0  9G17G25G04G10G12G05G30G09G02
 122122901.444 7  95160769.593 6  23239212.438                    23239221.551
 126407833.576 7  98499691.848 6  24054615.203                    24054627.301
 114500839.117 7  89221534.19945  21788766.570                    21788775.844
 109788081.095 8  85549284.38646  20891974.922                    20891983.371
 112432601.166 7  87609888.619 7  21395208.297                    21395215.609
 114973580.139 7  89589889.251 7  21878722.656                    21878731.785
 125117633.208 7  97494319.04444  23809098.195                    23809107.621
 124702191.685 6  97170631.19744  23730047.945                    23730058.246
 108403188.198 8  84470149.49546  20628422.047                    20628428.305
 11  8 22  0 15 30.0000000  0  9G17G25G04G10G12G05G30G09G02
 122175933.436 7  95202093.166 6  23249303.539                    23249313.688
 126309125.329 7  98422776.431 7  24035831.461                    24035843.348
 114578319.475 8  89281908.47845  21803510.492                    21803519.953
 109792261.591 8  85552541.93246  20892770.508                    20892778.730
 112374395.692 7  87564533.717 7  21384132.688                    21384140.066
 114885660.255 7  89521380.337 7  21861992.055                    21862001.324
 125018981.258 7  97417447.46244  23790325.773                    23790335.184
 124780881.456 7  97231947.81444  23745022.422                    23745032.086
 108404659.880 8  84471296.26546  20628702.188                    20628708.301
 11  8 22  0 16  0.0000000  0  9G17G25G04G10G12G05G30G09G02
 122229124.230 7  95243540.513 6  23259425.789                    23259434.520
 126210602.399 7  98346005.406 7  24017082.859                    24017094.859
 114655923.525 8  89342379.14945  21818277.648                    21818286.930
 109797073.222 8  85556291.27746  20893685.898                    20893693.898
 112316629.130 8  87519520.830 7  21373139.508                    21373147.508
 114798062.077 7  89453122.090 7  21845322.430                    21845331.516
 124920589.407 7  97340778.59343  23771601.906                    23771611.621
 124859719.560 6  97293380.05244  23760024.414                    23760035.129
 108406412.460 8  84472661.91446  20629035.297                    20629041.727
 11  8 22  0 16 30.0000000  0  9G17G25G04G10G12G05G30G09G02
 122282474.658 7  95285112.235 6  23269577.586                    23269586.660
 126112267.511 6  98269380.952 7  23998368.945                    23998382.266
 114733649.233 8  89402944.61845  21833068.844                    21833078.121
 109802515.848 7  85560532.29746  20894721.648                    20894729.746
 112259303.952 8  87474851.879 7  21362231.258                    21362239.070
 114710788.623 7  89385116.865 7  21828714.727                    21828723.617
 124822460.707 7  97264314.72044  23752928.383                    23752938.289
 124938702.465 7  97354925.09544  23775054.078                    23775065.504
 108408444.912 8  84474245.65246  20629422.313                    20629429.023
 11  8 22  0 17  0.0000000  0  9G17G25G04G10G12G05G30G09G02
 122335985.042 7  95326808.620 6  23279760.227                    23279769.094
 126014123.367 7  98192905.078 6  23979694.141                    23979705.398
 114811495.001 8  89463603.64845  21847882.227                    21847891.539
 109808589.594 7  85565265.10046  20895877.539                    20895885.391
 112202422.261 7  87430528.505 7  21351407.086                    21351414.371
 114623842.753 7  89317366.900 7  21812169.719                    21812178.402
 124724597.996 7  97188058.16744  23734306.023                    23734315.453
 125017827.020 7  97416580.48444  23790111.375                    23790122.430
 108410756.257 8  84476046.70946  20629862.180                    20629868.320
 11  8 22  0 17 30.0000000  0  9G17G25G04G10G12G05G30G09G02
 122389655.886 7  95368630.016 6  23289973.195                    23289982.469
 125916172.635 6  98116579.941 7  23961053.758                    23961066.949
 114889458.757 8  89524354.60745  21862718.266                    21862726.926
 109815294.558 8  85570489.76146  20897153.578                    20897161.273
 112145986.566 8  87386552.640 7  21340667.695                    21340675.051
 114537227.506 7  89249874.567 7  21795687.016                    21795695.680
 124627004.174 7  97112011.12344  23715734.063                    23715744.195
 125097089.686 7  97478343.52844  23805194.063                    23805205.313
 108413345.276 8  84478064.13846  20630354.953                    20630360.887
 11  8 22  0 18  0.0000000  0  9G17G25G04G10G12G05G30G09G02
 122443487.767 7  95410576.928 6  23300216.898                    23300226.871
 125818417.811 7  98040407.465 6  23942451.797                    23942464.188
 114967538.478 7  89585195.93345  21877576.063                    21877585.168
 109822630.492 8  85576206.08446  20898549.133                    20898557.574
 112089998.729 7  87342925.759 7  21330013.008                    21330020.797
 114450945.203 8  89182641.664 7  21779268.352                    21779276.785
 124529681.945 6  97036175.69544  23697214.188                    23697223.848
 125176487.294 6  97540211.69744  23820303.648                    23820314.828
 108416210.713 7  84480296.96246  20630900.195                    20630906.023
 11  8 22  0 18 30.0000000  0  9G17G25G04G10G12G05G30G09G02
 122497481.368 7  95452649.798 6  23310491.664                    23310501.996
 125720861.320 7  97964389.505 6  23923887.992                    23923899.566
 115045732.101 8  89646126.01545  21892456.039                    21892465.492
 109830597.028 8  85582413.79346  20900065.492                    20900073.160
 112034460.474 8  87299649.209 7  21319444.961                    21319452.578
 114364998.709 8  89115670.436 7  21762913.180                    21762921.836
 124432633.900 7  96960553.92344  23678746.938                    23678755.828
 125256015.903 7  97602181.93344  23835437.102                    23835448.215
 108419351.040 8  84482743.97446  20631497.969                    20631503.176
 11  8 22  0 19  0.0000000  0  9G17G25G04G10G12G05G30G09G02
 122551637.315 7  95494849.204 7  23320797.070                    23320808.090
 125623506.075 7  97888528.333 6  23905362.180                    23905372.770
 115124037.906 8  89707143.50345  21907357.117                    21907366.383
 109839194.536 8  85589113.16746  20901701.453                    20901709.652
 111979374.983 7  87256725.456 7  21308962.297                    21308970.059
 114279390.820 8  89048963.044 7  21746622.281                    21746631.070
 124335863.199 7  96885148.26843  23660332.133                    23660341.238
 125335672.426 7  97664251.86844  23850595.320                    23850606.266
 108422765.546 8  84485404.63246  20632147.383                    20632153.531
 11  8 22  0 19 30.0000000  0  9G17G25G04G10G12G05G30G09G02
 122605956.081 7  95537175.462 6  23331134.531                    23331144.730
 125526354.851 7  97812826.137 6  23886874.313                    23886885.734
 115202454.147 8  89768247.04545  21922279.289                    21922288.672
 109848422.742 8  85596303.98046  20903457.391                    20903465.586
 111924744.528 8  87214156.278 7  21298566.313                    21298574.539
 114194124.551 8  88982521.854 7  21730396.734                    21730405.996
 124239372.644 7  96809960.93344  23641970.469                    23641979.727
 125415453.643 6  97726418.94543  23865777.000                    23865787.879
 108426453.064 8  84488278.03346  20632849.227                    20632855.156
 11  8 22  0 20  0.0000000  0  9G17G25G04G10G12G05G30G09G02
 122660437.921 7  95579628.802 6  23341502.797                    23341511.246
 125429409.972 7  97737284.715 6  23868426.008                    23868437.898
 115280978.790 8  89829435.05645  21937221.945                    21937231.012
 109858281.211 8  85603985.92146  20905333.602                    20905341.715
 111870570.789 7  87171942.988 7  21288257.766                    21288265.313
 114109202.310 8  88916348.739 7  21714236.367                    21714245.273
 124143164.964 7  96734994.00144  23623662.359                    23623671.391
 125495356.190 6  97788680.55944  23880982.234                    23880993.457
 108430412.023 8  84491362.94947  20633602.734                    20633608.824
 11  8 22  0 20 30.0000000  0  9G17G25G04G10G12G05G30G09G02
 122715083.517 7  95622209.751 6  23351901.117                    23351909.566
 125332674.329 7  97661906.356 6  23850018.141                    23850030.125
 115359610.056 7  89890706.15445  21952185.516                    21952194.219
 109868770.218 8  85612159.17646  20907329.719                    20907338.090
 111816856.077 8  87130087.379 7  21278036.094                    21278043.918
 114024627.408 8  88850446.279 7  21698142.188                    21698151.219
 124047243.170 7  96660249.77743  23605409.281                    23605417.586
 125575376.871 6  97851034.27644  23896210.039                    23896220.762
 108434641.621 8  84494658.74746  20634407.641                    20634413.738
 11  8 22  0 21  0.0000000  0  9G17G25G04G10G12G05G30G09G02
 122769893.424 7  95664918.724 6  23362331.203                    23362339.332
 125236150.431 7  97586692.953 6  23831650.219                    23831661.730
 115438345.852 7  89952058.71745  21967167.852                    21967177.039
 109879889.005 8  85620823.17446  20909445.313                    20909453.422
 111763602.635 8  87088591.197 7  21267901.875                    21267910.043
 113940402.358 7  88784816.438 7  21682114.758                    21682123.648
 123951609.820 7  96585730.35943  23587209.797                    23587219.785
 125655512.117 6  97913477.18844  23911459.305                    23911470.164
 108439140.368 7  84498164.26746  20635263.508                    20635269.504
 11  8 22  0 21 30.0000000  0  9G17G25G04G10G12G05G30G09G02
 122824868.304 7  95707756.293 6  23372792.094                    23372801.293
 125139841.006 7  97511646.695 6  23813323.242                    23813334.828
 115517184.501 8  90013491.41745  21982170.766                    21982179.957
 109891637.379 8  85629977.76846  20911681.109                    20911689.230
 111710812.417 8  87047455.971 7  21257856.602                    21257864.457
 113856529.825 7  88719461.285 7  21666154.195                    21666163.145
 123856267.961 7  96511438.04043  23569067.172                    23569076.316
 125735758.541 6  97976006.78044  23926728.953                    23926740.277
 108443907.365 8  84501878.81246  20636170.586                    20636176.367
 11  8 22  0 22  0.0000000  0  9G17G25G04G10G12G05G30G09G02
 122880008.475 7  95750722.609 6  23383284.703                    23383294.691
 125043748.792 7  97436769.707 6  23795037.023                    23795048.895
 115596124.329 8  90075002.95145  21997192.125                    21997201.211
 109904015.476 8  85639623.04246  20914036.852                    20914044.953
 111658487.911 8  87006683.647 7  21247899.703                    21247907.461
 113773012.810 7  88654383.163 7  21650261.445                    21650270.262
 123761220.504 7  96437375.14043  23550980.195                    23550989.910
 125816113.107 7  98038620.61343  23942020.898                    23942031.441
 108448941.443 8  84505801.46546  20637128.648                    20637134.484
 11  8 22  0 22 30.0000000  0  9G17G25G04G10G12G05G30G09G02
 122935314.433 7  95793818.109 6  23393809.258                    23393819.191
 124947876.147 7  97362063.806 6  23776793.539                    23776805.172
 115675163.192 8  90136591.64945  22012232.727                    22012242.508
 109917022.671 8  85649758.52246  20916511.789                    20916519.926
 111606630.635 8  86966275.409 7  21238031.438                    21238038.988
 113689853.746 7  88589583.945 7  21634436.688                    21634446.043
 123666469.989 7  96363543.59643  23532949.648                    23532958.594
 125896572.131 6  98101315.85444  23957331.367                    23957342.621
 108454240.934 8  84509930.93646  20638137.008                    20638143.035
 11  8 22  0 23  0.0000000  0  9G17G25G04G10G12G05G30G09G02
 122990786.634 7  95837043.133 7  23404365.688                    23404375.418
 124852225.979 7  97287531.239 6  23758591.977                    23758603.234
 115754299.492 8  90198256.26645  22027292.297                    22027301.219
 109930658.561 8  85660383.89346  20919106.461                    20919114.738
 111555243.259 8  86926233.312 7  21228252.523                    21228260.309
 113607055.320 7  88525065.754 7  21618680.344                    21618689.375
 123572019.414 7  96289945.77543  23514975.953                    23514985.926
 125977132.456 7  98164090.00044  23972661.938                    23972673.223
 108459804.957 8  84514266.53246  20639196.102                    20639201.727
 11  8 22  0 23 30.0000000  0  9G17G25G04G10G12G05G30G09G02
 123046425.965 7  95880398.420 6  23414953.320                    23414963.527
 124756800.977 7  97213174.150 7  23740432.773                    23740444.563
 115833531.413 8  90259995.40745  22042369.656                    22042378.453
 109944922.911 8  85671498.98346  20921820.922                    20921828.895
 111504327.807 8  86886558.941 7  21218563.789                    21218571.422
 113524620.404 8  88460830.820 7  21602993.836                    21603002.793
 123477871.587 7  96216583.87244  23497060.516                    23497070.191
 126057790.605 7  98226940.40544  23988010.781                    23988022.168
 108465632.423 8  84518807.40946  20640304.539                    20640310.766
 11  8 22  0 24  0.0000000  0  9G17G25G04G10G12G05G30G09G02
 123102232.676 7  95923884.107 7  23425573.539                    23425583.504
 124661603.799 7  97138994.550 7  23722317.070                    23722329.609
 115912857.114 8  90321807.59545  22057464.820                    22057473.578
 109959815.302 8  85683103.43346  20924654.711                    20924663.277
 111453886.274 8  86847253.877 7  21208964.992                    21208972.480
 113442551.858 7  88396881.368 7  21587376.523                    21587385.504
 123384029.411 7  96143460.16944  23479203.234                    23479212.496
 126138543.553 7  98289864.67243  24003377.867                    24003388.879
 108471722.240 8  84523552.71346  20641463.477                    20641469.750
 11  8 22  0 24 30.0000000  0  9G17G25G04G10G12G05G30G09G02
 123158207.380 7  95967500.714 7  23436224.664                    23436235.402
 124566637.095 7  97064994.558 6  23704245.547                    23704257.398
 115992274.745 8  90383691.43945  22072577.523                    22072586.113
 109975335.231 8  85695196.88746  20927608.086                    20927616.559
 111403920.934 8  86808319.870 7  21199456.656                    21199464.512
 113360852.440 8  88333219.546 7  21571829.914                    21571838.438
 123290495.714 6  96070576.76544  23461404.125                    23461413.453
 126219387.667 7  98352859.97343  24018761.742                    24018772.152
 108478073.056 8  84528501.38846  20642672.289                    20642678.340
 11  8 22  0 25  0.0000000  0  9G17G25G04G10G12G05G30G09G02
 123214350.327 7  96011248.433 6  23446908.031                    23446918.148
 124471903.433 7  96991176.166 7  23686218.148                    23686231.051
 116071782.608 7  90445645.58845  22087707.180                    22087715.883
 109991482.149 8  85707778.91446  20930680.641                    20930688.801
 111354433.367 8  86769758.139 7  21190039.961                    21190047.457
 113279524.394 8  88269847.095 7  21556353.609                    21556362.516
 123197273.119 6  95997935.83444  23443663.719                    23443673.563
 126300319.622 6  98415923.73043  24034162.508                    24034173.008
 108484683.364 8  84533652.25946  20643930.023                    20643935.777
 11  8 22  0 25 30.0000000  0  9G17G25G04G10G12G05G30G09G02
 123270661.995 6  96055127.631 6  23457623.859                    23457634.227
 124377405.815 7  96917541.706 7  23668236.297                    23668247.879
 116151379.173 7  90507668.88245  22102854.141                    22102862.805
 110008255.759 8  85720849.25846  20933872.398                    20933880.797
 111305426.177 8  86731570.746 7  21180714.344                    21180721.910
 113198570.622 7  88206766.293 7  21540948.672                    21540957.258
 123104364.859 6  95925539.82644  23425984.281                    23425994.254
 126381336.688 6  98479053.80443  24049579.797                    24049590.945
 108491552.565 8  84539004.86746  20645237.375                    20645243.391
 11  8 22  0 26  0.0000000  0  9G17G25G04G10G12G05G30G09G02
 123327142.964 6  96099138.717 6  23468372.695                    23468382.289
 124283146.563 7  96844092.996 7  23650298.750                    23650310.879
 116231062.194 7  90569759.52245  22118016.883                    22118025.953
 110025655.243 8  85734407.30746  20937184.031                    20937192.070
 111256900.960 8  86693758.914 7  21171480.000                    21171487.832
 113117993.855 7  88143979.265 7  21525614.938                    21525623.855
 123011773.403 6  95853390.67944  23408365.164                    23408374.395
 126462435.016 6  98542247.20143  24065012.305                    24065023.055
 108498678.985 8  84544557.91046  20646593.344                    20646599.520
 11  8 22  0 26 30.0000000  0  9G17G25G04G10G12G05G30G09G02
 123383793.923 6  96143282.290 7  23479152.375                    23479163.027
 124189128.660 7  96770832.335 7  23632408.273                    23632419.926
 116310830.430 7  90631916.56245  22133196.492                    22133205.352
 110043680.407 8  85748452.89446  20940614.063                    20940621.711
 111208860.050 8  86656324.455 7  21162338.078                    21162345.863
 113037796.876 8  88081488.169 7  21510354.164                    21510362.641
 122919501.812 6  95781490.80144  23390805.727                    23390815.480
 126543611.400 7  98605501.44543  24080460.273                    24080471.113
 108506061.969 8  84550310.87446  20647998.438                    20648004.523
 11  8 22  0 27  0.0000000  0  9G17G25G04G10G12G05G30G09G02
 123440615.089 7  96187558.470 7  23489964.766                    23489975.539
 124095354.378 7  96697761.535 7  23614563.336                    23614575.105
 116390681.795 7  90694138.36245  22148391.750                    22148400.488
 110062330.194 8  85762985.19546  20944162.727                    20944170.813
 111161305.046 8  86619268.617 7  21153288.555                    21153296.363
 112957982.037 8  88019294.848 7  21495165.930                    21495174.352
 122827552.576 6  95709842.07344  23373309.094                    23373318.074
 126624862.304 6  98668813.70743  24095921.313                    24095932.629
 108513699.520 8  84556262.19446  20649451.867                    20649457.875
 11  8 22  0 27 30.0000000  0  9G17G25G04G10G12G05G30G09G02
 123497606.626 7  96231967.398 6  23500811.117                    23500819.723
 124001826.531 7  96624882.763 6  23596766.242                    23596777.438
 116470614.476 7  90756423.51245  22163602.094                    22163611.277
 110081604.376 8  85778004.02546  20947830.609                    20947838.398
 111114238.088 8  86582593.073 7  21144332.055                    21144339.590
 112878552.349 8  87957401.645 7  21480050.477                    21480059.230
 122735928.652 6  95638446.86444  23355872.914                    23355883.043
 126706184.740 7  98732181.70843  24111396.336                    24111407.680
 108521590.534 8  84562411.02946  20650953.148                    20650959.629
 11  8 22  0 28  0.0000000  0  9G17G25G04G10G12G05G30G09G02
 123554769.552 6  96276509.922 6  23511687.641                    23511697.344
 123908547.859 7  96552198.120 6  23579015.758                    23579026.727
 116550626.819 7  90818770.77345  22178828.055                    22178837.168
 110101502.449 8  85793509.03846  20951616.922                    20951625.512
 111067661.207 7  86546299.408 7  21135468.781                    21135476.063
 112799509.967 7  87895810.236 7  21465009.852                    21465018.539
 122644632.797 7  95567307.33744  23338499.914                    23338510.359
 126787575.461 7  98795602.95143  24126885.070                    24126896.066
 108529734.175 8  84568756.70946  20652503.094                    20652509.332
 11  8 22  0 28 30.0000000  0  9G17G25G04G10G12G05G30G09G02
 123612104.099 6  96321186.119 6  23522597.969                    23522607.719
 123815521.048 7  96479709.762 7  23561313.391                    23561325.086
 116630717.228 7  90881178.85645  22194068.922                    22194077.953
 110122023.252 8  85809499.27646  20955521.797                    20955530.109
 111021576.471 7  86510389.227 7  21126699.523                    21126706.691
 112720857.591 7  87834522.723 7  21450042.656                    21450051.094
 122553667.874 7  95496425.65044  23321190.039                    23321200.109
 126869031.081 7  98859074.76043  24142386.148                    24142396.898
 108538129.105 8  84575298.21346  20654100.398                    20654106.691
 11  8 22  0 29  0.0000000  0  9G17G25G04G10G12G05G30G09G02
 123669610.763 6  96365996.436 6  23533541.320                    23533549.637
 123722748.710 7  96407419.689 6  23543659.047                    23543670.617
 116710884.015 7  90943646.44145  22209324.172                    22209333.602
 110143166.065 8  85825974.19846  20959545.023                    20959553.477
 110975985.581 8  86474863.863 7  21118023.555                    21118031.055
 112642597.925 8  87773541.220 7  21435150.125                    21435158.621
 122463036.671 7  95425803.99744  23303943.719                    23303953.129
 126950548.209 7  98922594.54343  24157897.859                    24157908.910
 108546774.038 8  84582034.52146  20655745.602                    20655751.715
 11  8 22  0 29 30.0000000  0  9G17G25G04G10G12G05G30G09G02
 123727290.020 7  96410941.264 6  23544518.016                    23544526.199
 123630233.644 7  96335330.061 6  23526054.008                    23526065.289
 116791125.573 7  91006172.31445  22224593.344                    22224603.191
 110164930.299 8  85842933.33346  20963686.859                    20963695.113
 110930890.772 8  86439725.062 7  21109442.453                    21109449.918
 112564733.759 8  87712867.882 7  21420332.969                    21420341.395
 122372742.065 7  95355444.60944  23286761.781                    23286770.305
 127032123.950 7  98986159.91443  24173421.234                    24173432.152
 108555668.237 8  84588965.05946  20657438.180                    20657444.117
 11  8 22  0 30  0.0000000  0  9G17G25G04G10G12G05G30G09G02
 123785142.277 7  96456020.916 6  23555526.492                    23555536.871
 123537978.426 7  96263442.927 6  23508498.164                    23508509.387
 116871440.080 7  91068755.02245  22239876.805                    22239886.324
 110187315.350 8  85860376.23046  20967946.500                    20967954.516
 110886293.674 8  86404974.068 7  21100955.742                    21100963.027
 112487267.539 7  87652504.646 7  21405591.617                    21405600.164
 122282786.709 7  95285349.57044  23269643.078                    23269652.242
 127113754.844 6  99049768.24843  24188954.898                    24188966.836
 108564809.949 8  84596088.46346  20659177.742                    20659183.727
 11  8 22  0 30 30.0000000  0  9G17G25G04G10G12G05G30G09G02
 123843167.909 7  96501235.640 6  23566569.008                    23566579.184
 123445985.837 7  96191760.445 6  23490992.469                    23491003.824
 116951826.010 7  91131393.40545  22255174.047                    22255183.543
 110210320.697 8  85878302.48346  20972324.195                    20972332.426
 110842196.211 8  86370612.413 7  21092564.102                    21092571.773
 112410201.824 8  87592453.495 7  21390926.133                    21390935.129
 122193173.517 7  95215521.17644  23252590.250                    23252599.902
 127195437.694 6  99113417.09643  24204498.922                    24204510.121
 108574198.236 8  84603404.01346  20660964.563                    20660970.102
 11  8 22  0 31  0.0000000  0  9G17G25G04G10G12G05G30G09G02
 123901367.368 7  96546585.774 6  23577643.953                    23577653.043
 123354258.479 7  96120284.629 6  23473537.828                    23473548.375
 117032281.507 7  91194085.98945  22270484.813                    22270493.953
 110233945.347 8  85896711.30146  20976819.430                    20976827.910
 110798600.465 8  86336641.697 7  21084268.133                    21084275.660
 112333539.160 7  87532716.400 7  21376338.023                    21376346.840
 122103905.304 7  95145961.56644  23235603.313                    23235611.973
 127277169.135 6  99177103.82043  24220052.227                    24220062.797
 108583831.530 8  84610910.47546  20662797.563                    20662803.426
 11  8 22  0 31 30.0000000  0  9G17G25G04G10G12G05G30G09G02
 123959741.239 7  96592071.801 6  23588752.430                    23588761.152
 123262799.000 7  96049017.539 6  23456133.266                    23456144.379
 117112804.963 7  91256831.52345  22285807.703                    22285817.250
 110258188.179 8  85915601.83546  20981433.141                    20981441.703
 110755507.889 8  86303063.057 7  21076067.977                    21076075.641
 112257281.899 8  87473295.208 7  21361826.773                    21361835.484
 122014984.657 7  95076672.81543  23218682.031                    23218690.941
 127358945.954 6  99240825.90943  24235613.469                    24235625.352
 108593708.879 8  84618607.11146  20664677.313                    20664683.082
 11  8 22  0 32  0.0000000  0  9G17G25G04G10G12G05G30G09G02
 124018289.728 7  96637693.916 6  23599894.000                    23599902.207
 123171610.217 7  95977961.374 7  23438780.609                    23438791.559
 117193394.939 7  91319628.89145  22301143.484                    22301152.512
 110283048.500 8  85934973.52446  20986163.727                    20986172.188
 110712920.618 8  86269878.165 7  21067963.805                    21067971.352
 112181432.996 7  87414192.207 7  21347392.969                    21347401.844
 121926414.576 7  95007657.20344  23201827.156                    23201836.660
 127440764.941 6  99304580.84443  24251182.539                    24251195.402
 108603829.099 8  84626493.00446  20666603.109                    20666609.117
 11  8 22  0 32 30.0000000  0  9G17G25G04G10G12G05G30G09G02
 124077013.352 7  96683452.518 6  23611069.422                    23611077.285
 123080694.997 7  95907118.402 7  23421479.586                    23421491.363
 117274049.993 7  91382476.96345  22316491.086                    22316500.426
 110308525.473 8  85954825.71446  20991011.680                    20991020.496
 110670841.045 8  86237088.861 7  21059956.578                    21059963.934
 112105995.377 7  87355409.697 7  21333037.773                    21333046.754
 121838198.012 7  94938917.07344  23185040.500                    23185049.191
 127522623.339 6  99368366.45843  24266760.281                    24266772.539
 108614191.425 8  84634567.54446  20668574.672                    20668580.680
 11  8 22  0 33  0.0000000  0  9G17G25G04G10G12G05G30G09G02
 124135912.691 7  96729348.114 6  23622276.836                    23622284.715
 122990055.597 7  95836490.343 7  23404231.992                    23404243.109
 117354767.859 7  91445373.97644  22331851.531                    22331860.328
 110334618.158 8  85975157.68146  20995976.930                    20995985.691
 110629270.326 8  86204696.079 7  21052045.867                    21052053.281
 112030970.818 8  87296949.057 7  21318760.813                    21318769.582
 121750337.305 7  94870454.20244  23168321.680                    23168330.129
 127604517.359 6  99432179.86543  24282345.125                    24282356.457
 108624793.967 8  84642829.27046  20670592.313                    20670598.184
 11  8 22  0 33 30.0000000  0  9G17G25G04G10G12G05G30G09G02
 124194987.760 6  96775380.577 6  23633518.391                    23633527.199
 122899694.732 7  95766079.308 7  23387037.422                    23387048.133
 117435547.284 7  91508318.95145  22347223.617                    22347232.746
 110361325.547 8  85995968.62846  21001059.453                    21001067.695
 110588210.003 8  86172701.006 7  21044232.336                    21044240.191
 111956361.612 8  87238812.058 7  21304563.445                    21304571.672
 121662835.319 6  94802270.87344  23151669.914                    23151679.426
 127686443.927 6  99496018.61743  24297933.953                    24297946.688
 108635635.496 8  84651277.22646  20672655.594                    20672661.523
 11  8 22  0 34  0.0000000  0  9G17G25G04G10G12G05G30G09G02
 124254239.128 6  96821550.460 6  23644793.063                    23644803.059
 122809615.204 7  95695887.480 7  23369895.234                    23369906.066
 117516386.624 7  91571310.61945  22362606.578                    22362615.297
 110388646.646 8  86017257.79546  21006258.406                    21006267.051
 110547661.878 8  86141105.053 7  21036516.203                    21036524.059
 111882170.460 8  87181000.814 7  21290445.125                    21290453.430
 121575694.796 6  94734369.19844  23135087.727                    23135096.387
 127768399.865 6  99559880.24443  24313530.508                    24313542.770
 108646714.996 8  84659910.60346  20674763.852                    20674769.332
 11  8 22  0 34 30.0000000  0  9G17G25G04G10G12G05G30G09G02
 124313667.210 6  96867858.004 6  23656101.469                    23656112.215
 122719819.609 7  95625916.909 7  23352807.680                    23352819.219
 117597284.204 7  91634347.66645  22378000.992                    22378010.008
 110416580.500 8  86039024.43946  21011574.289                    21011582.469
 110507628.079 8  86109909.873 7  21028898.125                    21028905.902
 111808399.997 8  87123517.374 7  21276406.672                    21276415.273
 121488918.422 7  94666751.27244  23118574.180                    23118584.051
 127850381.950 6  99623762.23043  24329131.070                    24329143.328
 108658031.005 8  84668728.27846  20676917.336                    20676923.184
 11  8 22  0 35  0.0000000  0  9G17G25G04G10G12G05G30G09G02
 124373272.385 6  96914303.522 6  23667443.484                    23667455.047
 122630310.721 7  95556169.742 7  23335774.469                    23335786.125
 117678238.594 7  91697428.98544  22393406.320                    22393415.090
 110445126.025 8  86061267.70146  21017005.875                    21017014.563
 110468110.331 8  86079116.815 7  21021378.297                    21021385.629
 111735052.771 8  87066363.732 7  21262449.328                    21262458.051
 121402509.169 7  94599419.40944  23102131.781                    23102140.184
 127932387.171 6  99687662.30143  24344736.906                    24344748.719
 108669582.542 8  84677729.47446  20679115.281                    20679121.414
 11  8 22  0 35 30.0000000  0  9G17G25G04G10G12G05G30G09G02
 124433055.023 7  96960887.328 6  23678821.531                    23678831.500
 122541091.203 7  95486648.055 7  23318795.867                    23318808.172
 117759248.243 7  91760553.38444  22408821.758                    22408830.590
 110474282.194 8  86083986.80246  21022554.469                    21022562.680
 110429110.453 8  86048727.295 7  21013956.258                    21013964.273
 111662131.059 8  87009541.670 7  21248572.789                    21248581.531
 121316469.732 7  94532375.73044  23085759.203                    23085768.164
 128014412.188 7  99751577.77243  24360345.891                    24360357.930
 108681368.521 8  84686913.34946  20681358.117                    20681364.367
 11  8 22  0 36  0.0000000  0  9G17G25G04G10G12G05G30G09G02
 124493015.596 7  97007609.785 6  23690231.227                    23690241.387
 122452163.691 7  95417353.931 7  23301874.188                    23301885.535
 117840311.601 7  91823719.60045  22424247.711                    22424257.051
 110504047.945 8  86107180.91346  21028218.672                    21028226.773
 110390629.753 8  86018742.316 7  21006634.273                    21006641.707
 111589637.366 8  86953053.117 7  21234777.469                    21234786.375
 121230802.787 7  94465622.30044  23069456.695                    23069466.180
 128096453.889 6  99815506.20743  24375957.891                    24375969.480
 108693387.733 8  84696278.97346  20683645.602                    20683651.004
 11  8 22  0 36 30.0000000  0  9G17G25G04G10G12G05G30G09G02
 124553154.475 7  97054471.168 6  23701675.266                    23701685.125
 122363530.952 7  95348289.479 7  23285007.859                    23285019.344
 117921427.055 7  91886926.42244  22439683.930                    22439692.066
 110534422.097 8  86130849.07546  21033998.445                    21034006.895
 110352670.154 8  85989163.404 7  20999410.664                    20999417.859
 111517574.056 8  86896899.930 7  21221064.492                    21221073.145
 121145511.077 7  94399161.24544  23053226.406                    23053235.605
 128178508.922 6  99879445.08443  24391572.453                    24391583.977
 108705638.948 8  84705825.37046  20685976.875                    20685982.629
 11  8 22  0 37  0.0000000  0  9G17G25G04G10G12G05G30G09G02
 124613471.839 7  97101471.734 6  23713153.734                    23713162.160
 122275195.686 7  95279456.840 7  23268198.172                    23268209.598
 118002593.215 7  91950172.75745  22455129.039                    22455137.723
 110565403.710 8  86154990.61446  21039894.164                    21039902.668
 110315233.537 8  85959992.022 7  20992286.633                    20992294.320
 111445943.739 8  86841084.142 7  21207433.523                    21207442.590
 121060597.480 7  94332994.83544  23037068.445                    23037076.809
 128260574.263 6  99943391.98443  24407188.641                    24407200.648
 108718120.961 8  84715551.61646  20688351.969                    20688357.758
 11  8 22  0 37 30.0000000  0  9G17G25G04G10G12G05G30G09G02
 124673968.115 6  97148611.604 6  23724665.344                    23724675.484
 122187160.322 7  95210857.898 7  23251445.594                    23251457.867
 118083808.396 7  92013457.27944  22470583.398                    22470592.410
 110596991.369 8  86179604.37946  21045905.320                    21045913.789
 110278320.972 8  85931228.983 7  20985262.203                    20985269.988
 111374748.689 8  86785607.520 7  21193886.039                    21193894.105
 120976064.403 7  94267124.93745  23020981.922                    23020990.852
 128342646.856 6 100007344.53143  24422806.938                    24422818.539
 108730832.439 8  84725456.65946  20690770.508                    20690776.609
 11  8 22  0 38  0.0000000  0  9G17G25G04G10G12G05G30G09G02
 124734643.754 6  97195891.288 6  23736211.555                    23736221.566
 122099427.499 7  95142494.708 7  23234750.484                    23234762.238
 118165070.949 7  92076778.70444  22486047.914                    22486056.133
 110629183.841 8  86204689.43446  21052031.133                    21052039.715
 110241934.551 8  85902875.934 7  20978338.641                    20978346.004
 111303990.865 8  86730471.602 7  21180420.711                    21180429.309
 120891914.513 7  94201553.62544  23004968.977                    23004977.559
 128424723.199 6 100071300.01743  24438426.063                    24438437.805
 108743771.739 8  84735539.23446  20693233.414                    20693238.984
 11  8 22  0 38 30.0000000  0  9G17G25G04G10G12G05G30G09G02
 124795499.026 6  97243310.902 6  23747792.555                    23747802.293
 122012000.100 7  95074369.500 6  23218114.000                    23218125.184
 118246379.674 7  92140136.12345  22501520.055                    22501528.992
 110661980.381 8  86230245.19146  21058272.266                    21058281.004
 110206075.882 8  85874934.121 7  20971514.672                    20971522.309
 111233673.228 8  86675678.676 7  21167039.820                    21167048.590
 120808150.815 7  94136283.26944  22989028.875                    22989038.270
 128506800.381 6 100135256.16243  24454044.219                    24454056.559
 108756938.129 8  84745798.75547  20695738.648                    20695744.680
 11  8 22  0 39  0.0000000  0  9G17G25G04G10G12G05G30G09G02
 124856534.303 6  97290870.810 6  23759406.695                    23759417.238
 121924880.679 7  95006484.285 6  23201535.727                    23201546.492
 118327732.908 7  92203528.23444  22517000.617                    22517009.961
 110695379.480 8  86256270.45846  21064627.797                    21064636.086
 110170746.317 8  85847404.602 7  20964791.680                    20964799.648
 111163797.769 8  86621230.315 7  21153742.914                    21153751.777
 120724775.829 7  94071315.79644  22973162.883                    22973172.676
 128588875.324 6 100199210.53143  24469663.398                    24469675.105
 108770330.282 8  84756234.19146  20698287.094                    20698293.137
 11  8 22  0 39 30.0000000  0  9G17G25G04G10G12G05G30G09G02
 124917749.513 7  97338570.919 6  23771056.250                    23771065.133
 121838072.106 7  94938841.277 7  23185016.313                    23185027.414
 118409129.371 7  92266954.00344  22532490.461                    22532498.672
 110729379.868 7  86282764.28546  21071097.625                    21071106.098
 110135947.471 8  85820288.633 7  20958169.531                    20958177.695
 111094366.952 8  86567128.423 7  21140530.773                    21140539.434
 120641792.500 7  94006653.52744  22957371.586                    22957381.145
 128670945.010 6 100263160.81843  24485281.281                    24485292.906
 108783947.238 8  84766844.80446  20700877.961                    20700884.145
 11  8 22  0 40  0.0000000  0  9G17G25G04G10G12G05G30G09G02
 124979145.433 7  97386411.839 6  23782739.359                    23782749.316
 121751576.777 7  94871442.376 6  23168556.891                    23168567.969
 118490567.280 7  92330412.08744  22547987.430                    22547996.051
 110763980.040 8  86309725.45446  21077681.813                    21077690.492
 110101680.876 8  85793587.422 7  20951648.852                    20951656.535
 111025383.226 8  86513374.917 7  21127403.414                    21127412.469
 120559203.231 7  93942298.30144  22941655.969                    22941664.941
 128753006.278 6 100327104.54743  24500896.516                    24500908.055
 108797787.738 8  84777629.60246  20703511.789                    20703517.641
 11  8 22  0 40 30.0000000  0  9G17G25G04G10G12G05G30G09G02
 125040722.502 6  97434393.949 6  23794456.883                    23794467.262
 121665397.238 7  94804289.558 7  23152157.383                    23152168.938
 118572045.225 7  92393901.37444  22563492.211                    22563501.113
 110799178.757 8  86337153.03346  21084380.500                    21084388.145
 110067947.947 8  85767302.045 7  20945229.609                    20945237.457
 110956848.559 8  86459971.315 7  21114362.180                    21114370.492
 120477010.643 7  93878252.15644  22926014.000                    22926023.012
 128835055.810 6 100391039.19643  24516509.688                    24516521.336
 108811850.262 8  84788587.41246  20706187.750                    20706193.926
 11  8 22  0 41  0.0000000  0  9G17G25G04G10G12G05G30G09G02
 125102480.752 6  97482517.220 6  23806208.125                    23806219.094
 121579536.318 7  94737385.013 6  23135818.125                    23135829.344
 118653561.966 7  92457420.86744  22579004.344                    22579013.473
 110834974.865 8  86365046.11146  21091191.844                    21091200.258
 110034750.415 8  85741433.853 7  20938912.258                    20938920.160
 110888765.499 8  86406919.616 7  21101406.102                    21101414.867
 120395217.465 7  93814517.25544  22910450.102                    22910459.188
 128917090.649 6 100454962.34943  24532120.680                    24532131.750
 108826133.677 8  84799717.34246  20708905.961                    20708912.277
 11  8 22  0 41 30.0000000  0  9G17G25G04G10G12G05G30G09G02
 125164420.775 6  97530782.123 6  23817994.375                    23818005.441
 121493996.665 7  94670730.771 6  23119540.766                    23119550.832
 118735115.911 7  92520969.38944  22594523.617                    22594532.664
 110871366.814 8  86393403.49046  21098117.344                    21098125.961
 110002089.790 8  85715984.043 7  20932697.383                    20932704.664
 110821136.198 8  86354221.496 7  21088536.563                    21088545.078
 120313826.429 7  93751095.70544  22894961.094                    22894970.699
 128999107.653 6 100518871.58043  24547726.969                    24547740.219
 108840636.992 8  84811018.63146  20711665.820                    20711671.785
 11  8 22  0 42  0.0000000  0  9G17G25G04G10G12G05G30G09G02
 125226542.643 6  97579188.718 6  23829816.750                    23829826.797
 121408781.111 7  94604329.059 6  23103324.914                    23103334.875
 118816705.766 7  92584545.88344  22610049.922                    22610058.695
 110908353.580 8  86422224.34646  21105155.258                    21105163.965
 109969967.680 8  85690953.844 7  20926584.844                    20926591.938
 110753963.187 8  86301878.932 7  21075753.719                    21075762.340
 120232840.378 7  93687989.76944  22879550.211                    22879559.598
 129081103.944 6 100582764.68643  24563331.211                    24563344.023
 108855358.975 8  84822490.30046  20714467.188                    20714473.063
 11  8 22  0 42 30.0000000  0  9G17G25G04G10G12G05G30G09G02
 125288846.602 6  97627737.269 6  23841673.172                    23841682.293
 121323892.163 7  94538181.907 6  23087170.617                    23087181.520
 118898330.049 7  92648149.20145  22625581.867                    22625591.434
 110945933.230 8  86451507.18946  21112306.289                    21112315.105
 109938385.381 8  85666344.285 7  20920574.648                    20920582.301
 110687248.516 8  86249893.517 7  21063058.281                    21063066.859
 120152261.785 7  93625201.30744  22864217.125                    22864226.527
 129163076.323 6 100646639.11243  24578929.891                    24578942.875
 108870298.487 8  84834131.48146  20717310.242                    20717316.102
 11  8 22  0 43  0.0000000  0  9G17G25G04G10G12G05G30G09G02
 125351333.057 6  97676428.002 6  23853563.523                    23853573.215
 121239332.375 7  94472291.207 6  23071079.430                    23071089.512
 118979987.514 7  92711778.34944  22641121.055                    22641130.426
 110984104.732 8  86481251.22346  21119570.336                    21119579.199
 109907344.199 8  85642156.374 7  20914667.805                    20914675.035
 110620994.265 8  86198266.865 7  21050450.773                    21050459.555
 120072093.294 7  93562732.39344  22848961.352                    22848970.461
 129245021.651 6 100710492.51543  24594524.258                    24594536.746
 108885454.175 8  84845941.10946  20720194.523                    20720200.086
 11  8 22  0 43 30.0000000  0  9G17G25G04G10G12G05G30G09G02
 125414002.097 7  97725261.012 6  23865489.539                    23865499.785
 121155104.263 7  94406658.968 6  23055051.492                    23055062.195
 119061676.507 7  92775432.09844  22656665.734                    22656675.547
 111022866.384 8  86511455.09146  21126946.188                    21126955.227
 109876845.639 8  85618391.281 7  20908864.344                    20908871.699
 110555202.459 8  86147000.567 7  21037930.711                    21037939.234
 119992337.231 7  93500584.85144  22833784.680                    22833792.840
 129326936.959 6 100774322.49743  24610112.203                    24610125.066
 108900824.650 8  84857918.10346  20723119.398                    20723125.000
 11  8 22  0 44  0.0000000  0  9G17G25G04G10G12G05G30G09G02
 125476854.233 6  97774236.672 6  23877449.906                    23877460.527
 121071210.655 7  94341287.403 6  23039087.078                    23039097.402
 119143395.590 7  92839109.25344  22672216.656                    22672226.020
 111062216.674 8  86542117.65746  21134434.648                    21134442.656
 109846891.038 8  85595050.041 7  20903163.563                    20903171.180
 110489875.958 8  86096096.826 7  21025499.656                    21025508.000
 119912996.568 7  93438761.00944  22818685.852                    22818694.738
 129408819.358 6 100838126.83143  24625692.594                    24625706.332
 108916409.196 8  84870061.90646  20726085.063                    20726091.023
 11  8 22  0 44 30.0000000  0  9G17G25G04G10G12G05G30G09G02
 125539889.766 6  97823355.229 6  23889444.578                    23889455.422
 120987654.178 7  94276178.481 6  23023186.813                    23023197.297
 119225143.778 7  92902809.08544  22687773.195                    22687782.273
 111102154.223 8  86573237.82145  21142034.609                    21142042.984
 109817482.384 8  85572134.221 7  20897567.281                    20897574.730
 110425016.844 8  86045557.298 7  21013157.359                    21013165.379
 119834073.858 7  93377262.84844  22803667.484                    22803676.512
 129490665.562 6 100901902.97643  24641267.977                    24641281.230
 108932206.347 8  84882371.37746  20729090.859                    20729097.309
 11  8 22  0 45  0.0000000  0  9G17G25G04G10G12G05G30G09G02
 125603108.932 6  97872616.899 6  23901474.961                    23901486.336
 120904437.068 7  94211334.041 7  23007350.586                    23007361.832
 119306919.073 7  92966530.08644  22703334.148                    22703343.285
 111142677.217 8  86604814.18445  21149745.367                    21149753.828
 109788619.297 8  85549643.516 7  20892075.164                    20892082.926
 110360626.336 8  85995382.900 7  21000904.125                    21000912.023
 119755571.291 7  93316092.05044  22788729.281                    22788738.227
 129572472.334 6 100965648.38043  24656835.430                    24656848.938
 108948214.745 8  84894845.46346  20732137.297                    20732143.203
 11  8 22  0 45 30.0000000  0  9G17G25G04G10G12G05G30G09G02
 125666511.548 5  97922021.494 6  23913540.383                    23913551.262
 120821562.244 7  94146756.298 7  22991580.289                    22991591.352
 119388720.574 7  93030271.49044  22718900.367                    22718910.363
 111183784.224 8  86636845.61246  21157567.992                    21157576.152
 109760304.388 8  85527579.959 7  20886686.820                    20886694.480
 110296707.092 8  85945575.735 7  20988741.000                    20988749.102
 119677491.832 7  93255250.96744  22773870.617                    22773879.871
 129654237.014 7 101029360.99243  24672395.547                    24672408.184
 108964433.123 8  84907483.16146  20735223.758                    20735229.492
 11  8 22  0 46  0.0000000  0  9G17G25G04G10G12G05G30G09G02
 125730098.094 6  97971569.427 6  23925641.172                    23925650.703
 120739032.343 8  94082447.314 7  22975876.023                    22975886.230
 119470546.971 7  93094032.29545  22734471.617                    22734481.082
 111225473.757 8  86669330.96145  21165501.031                    21165509.789
 109732538.969 8  85505944.566 7  20881403.188                    20881410.770
 110233261.617 8  85896137.732 7  20976667.164                    20976675.902
 119599838.051 7  93194741.55144  22759094.008                    22759103.355
 129735956.575 7 101093038.44043  24687946.164                    24687958.793
 108980860.664 8  84920283.85046  20738349.500                    20738355.441
 11  8 22  0 46 30.0000000  0  9G17G25G04G10G12G05G30G09G02
 125793868.885 6  98021260.915 6  23937776.055                    23937785.754
 120656849.837 8  94018409.042 7  22960236.820                    22960247.652
 119552396.739 7  93157811.30745  22750047.461                    22750056.879
 111267744.078 8  86702268.85445  21173545.344                    21173553.648
 109705323.914 8  85484738.042 7  20876224.570                    20876231.613
 110170291.755 8  85847070.333 7  20964684.578                    20964693.031
 119522612.321 7  93134565.68744  22744398.492                    22744406.977
 129817627.842 7 101156678.24343  24703488.273                    24703501.191
 108997496.070 8  84933246.50546  20741514.875                    20741521.016
 11  8 22  0 47  0.0000000  0  9G17G25G04G10G12G05G30G09G02
 125857824.270 6  98071096.288 6  23949946.281                    23949956.039
 120575017.259 7  93954643.451 7  22944664.664                    22944675.758
 119634268.607 7  93221607.53545  22765627.422                    22765636.969
 111310593.500 8  86735658.00246  21181699.234                    21181707.863
 109678660.770 8  85463961.560 7  20871151.063                    20871157.980
 110107799.545 8  85798375.140 7  20952792.664                    20952801.367
 119445817.232 7  93074725.37144  22729784.555                    22729793.332
 129899247.736 7 101220278.04744  24719020.398                    24719032.836
 109014337.973 8  84946370.05846  20744719.875                    20744725.840
 11  8 22  0 47 30.0000000  0  9G17G25G04G10G12G05G30G09G02
 125921964.394 7  98121075.627 6  23962151.477                    23962161.781
 120493537.520 7  93891152.768 7  22929159.125                    22929170.180
 119716161.363 7  93285420.04344  22781210.727                    22781220.250
 111354020.744 8  86769497.40545  21189962.875                    21189971.055
 109652550.908 8  85443616.216 7  20866182.195                    20866189.637
 110045787.482 8  85750054.080 8  20940992.266                    20941000.676
 119369455.561 7  93015222.79544  22715253.930                    22715262.203
 129980813.472 6 101283835.56143  24734541.281                    24734554.793
 109031385.566 8  84959653.89746  20747963.992                    20747969.789
 11  8 22  0 48  0.0000000  0  9G17G25G04G10G12G05G30G09G02
 125986289.353 6  98171198.973 6  23974392.852                    23974402.281
 120412413.005 7  93827938.893 7  22913722.063                    22913732.773
 119798073.648 7  93349247.76344  22796797.602                    22796807.352
 111398024.057 7  86803785.69245  21198336.609                    21198344.566
 109626995.211 8  85423702.687 7  20861318.758                    20861326.410
 109984257.009 8  85702108.291 8  20929283.367                    20929291.656
 119293529.643 7  92956059.77644  22700805.055                    22700814.281
 130062321.996 6 101347348.53743  24750051.688                    24750065.117
 109048637.205 8  84973096.72646  20751246.844                    20751252.828
 11  8 22  0 48 30.0000000  0  9G17G25G04G10G12G05G30G09G02
 126050799.550 6  98221466.641 6  23986668.281                    23986678.629
 120331646.158 7  93765003.715 7  22898352.273                    22898363.402
 119880003.976 7  93413089.55544  22812388.656                    22812397.504
 111442601.340 8  86838521.24845  21206819.266                    21206827.605
 109601994.894 8  85404221.905 7  20856561.984                    20856569.063
 109923210.241 8  85654539.410 7  20917666.367                    20917674.758
 119218041.903 7  92897238.19844  22686440.664                    22686449.555
 130143770.288 6 101410814.53843  24765551.500                    24765564.250
 109066091.565 8  84986697.52446  20754568.555                    20754574.039
 11  8 22  0 49  0.0000000  0  9G17G25G04G10G12G05G30G09G02
 126115494.960 6  98271878.601 6  23998979.367                    23998989.770
 120251239.762 7  93702349.404 7  22883051.539                    22883062.203
 119961951.391 7  93476944.66344  22827982.938                    22827991.902
 111487751.206 7  86873702.95445  21215410.961                    21215419.152
 109577551.031 8  85385174.736 7  20851909.984                    20851917.754
 109862649.356 8  85607349.140 7  20906142.336                    20906150.418
 119142994.957 7  92838760.11044  22672159.625                    22672168.480
 130225155.519 6 101474231.46443  24781037.898                    24781051.711
 109083748.157 8  85000455.89946  20757928.438                    20757934.066
 11  8 22  0 49 30.0000000  0  9G17G25G04G10G12G05G30G09G02
 126180376.092 6  98322435.239 6  24011326.133                    24011336.180
 120171196.417 7  93639977.998 7  22867819.625                    22867831.141
 120043914.549 7  93540812.01044  22843579.602                    22843589.211
 111533471.892 7  86909329.45945  21224111.344                    21224119.852
 109553665.406 8  85366562.564 7  20847364.992                    20847372.227
 109802576.562 8  85560539.203 7  20894710.711                    20894718.992
 119068391.516 7  92780627.57044  22657962.570                    22657970.957
 130306474.857 6 101537596.98543  24796512.781                    24796526.051
 109101605.605 8  85014370.78146  20761326.766                    20761332.508
 11  8 22  0 50  0.0000000  0  9G17G25G04G10G12G05G30G09G02
 126245443.086 6  98373136.755 6  24023707.602                    24023718.172
 120091518.523 7  93577891.367 7  22852657.633                    22852668.402
 120125892.029 7  93604690.53844  22859180.266                    22859189.438
 111579761.435 7  86945399.22946  21232919.867                    21232928.578
 109530338.565 8  85348385.794 7  20842925.852                    20842933.098
 109742993.379 8  85514110.771 7  20883372.625                    20883380.617
 118994233.770 7  92722842.35644  22643850.969                    22643859.602
 130387725.102 6 101600908.70543  24811975.250                    24811987.324
 109119662.688 8  85028441.22446  20764763.039                    20764768.695
 11  8 22  0 50 30.0000000  0  9G17G25G04G10G12G05G30G09G02
 126310695.934 6  98423983.108 6  24036125.117                    24036135.746
 120012208.891 7  93516091.669 7  22837565.102                    22837576.070
 120207882.896 7  93668579.50944  22874782.344                    22874791.746
 111626618.186 8  86981910.97145  21241836.969                    21241845.156
 109507571.683 8  85330645.356 7  20838593.469                    20838601.152
 109683902.172 8  85468065.713 7  20872127.789                    20872135.785
 118920524.371 7  92665406.48544  22629824.906                    22629833.418
 130468903.374 6 101664164.33943  24827422.469                    24827435.715
 109137918.504 8  85042666.52146  20768236.727                    20768242.402
 11  8 22  0 51  0.0000000  0  9G17G25G04G10G12G05G30G09G02
 126376134.795 6  98474974.415 6  24048578.328                    24048588.297
 119933269.883 7  93454580.756 7  22822543.328                    22822554.074
 120289885.590 7  93732477.69244  22890386.805                    22890395.754
 111674040.277 8  87018863.24745  21250860.680                    21250869.309
 109485365.800 8  85313342.071 7  20834368.211                    20834375.168
 109625304.981 8  85422405.586 7  20860977.109                    20860984.852
 118847265.798 7  92608321.89745  22615884.484                    22615892.910
 130550006.848 5 101727361.66943  24842856.102                    24842869.570
 109156371.431 8  85057045.41146  20771748.539                    20771753.922
 11  8 22  0 51 30.0000000  0  9G17G25G04G10G12G05G30G09G02
 126441759.820 6  98526110.786 6  24061065.992                    24061076.102
 119854703.739 7  93393360.403 7  22807592.938                    22807603.320
 120371898.673 7  93796383.96244  22905993.398                    22906002.598
 111722025.570 8  87056254.38346  21259991.883                    21260000.621
 109463721.670 8  85296476.507 7  20830249.188                    20830256.727
 109567203.057 8  85377131.384 7  20849920.508                    20849928.781
 118774460.096 7  92551590.21244  22602029.680                    22602038.371
 130631032.386 5 101790498.32543  24858273.109                    24858288.598
 109175019.910 8  85071576.68646  20775297.336                    20775302.570
 11  8 22  0 52  0.0000000  0  8G17G25G04G10G12G05G30G02
 126507571.418 6  98577392.531 6  24073589.063                    24073599.773
 119776513.721 7  93332433.137 7  22792714.031                    22792724.664
 120453921.635 6  93860297.91244  22921601.281                    22921610.723
 111770572.933 8  87094083.50645  21269230.133                    21269238.438
 109442641.624 8  85280050.487 7  20826237.992                    20826245.527
 109509599.233 8  85332245.311 8  20838959.000                    20838967.563
 118702110.439 7  92495213.88245  22588262.266                    22588270.734
 109193863.711 8  85086260.15046  20778882.984                    20778888.711
 11  8 22  0 52 30.0000000  0  8G17G25G04G10G12G05G30G02
 126573569.790 6  98628819.792 6  24086148.672                    24086158.457
 119698702.224 7  93271800.811 7  22777906.875                    22777917.957
 120535953.205 7  93924218.58744  22937211.867                    22937220.797
 111819680.279 8  87132348.96745  21278575.234                    21278583.215
 109422125.819 8  85264064.138 7  20822333.742                    20822341.559
 109452495.195 8  85287748.684 8  20828092.273                    20828100.559
 118630219.055 7  92439194.64745  22574581.188                    22574590.488
 109212901.609 8  85101094.86746  20782505.781                    20782511.383
 11  8 22  0 53  0.0000000  0  8G17G25G04G10G12G05G30G02
 126639754.806 6  98680392.507 6  24098742.508                    24098752.637
 119621271.083 7  93211464.895 7  22763172.383                    22763183.477
 120617991.540 7  93988144.51244  22952823.078                    22952832.586
 111869345.191 8  87171048.88645  21288026.156                    21288034.363
 109402174.806 8  85248517.893 7  20818536.977                    20818544.863
 109395892.205 8  85243642.488 7  20817320.984                    20817329.453
 118558787.715 7  92383533.88845  22560988.547                    22560997.668
 109232131.816 8  85116079.42846  20786164.914                    20786170.723
 11  8 22  0 53 30.0000000  0  8G17G25G04G10G12G05G30G02
 126706126.727 6  98732110.843 6  24111372.828                    24111382.898
 119544223.345 7  93151427.710 7  22748510.398                    22748521.313
 120700035.660 6  94052074.98044  22968435.539                    22968445.426
 111919566.409 8  87210182.30945  21297582.836                    21297590.973
 109382789.964 8  85233412.811 7  20814848.453                    20814856.223
 109339792.404 8  85199928.380 8  20806645.672                    20806653.906
 118487819.462 7  92328233.96744  22547483.898                    22547492.461
 109251553.621 8  85131213.29046  20789861.164                    20789866.855
 11  8 22  0 54  0.0000000  0  8G17G25G04G10G12G05G30G02
 126772685.601 6  98783974.879 6  24124039.008                    24124048.969
 119467561.560 7  93091691.266 7  22733921.992                    22733932.949
 120782084.755 7  94116009.32544  22984048.836                    22984058.961
 111970341.881 7  87249747.60145  21307244.930                    21307253.863
 109363972.607 8  85218749.949 7  20811267.758                    20811275.438
 109284197.908 8  85156608.017 8  20796066.266                    20796074.668
 118417316.588 7  92273296.68844  22534067.133                    22534076.320
 109271166.055 8  85146495.69246  20793593.141                    20793599.012
 11  8 22  0 54 30.0000000  0  8G17G25G04G10G12G05G30G02
 126839431.559 6  98835984.678 6  24136740.352                    24136749.250
 119391287.814 7  93032257.186 7  22719408.000                    22719419.207
 120864137.297 7  94179946.32944  22999663.602                    22999672.828
 112021669.045 8  87289742.78245  21317012.398                    21317020.793
 109345722.948 8  85204529.426 7  20807794.695                    20807802.457
 109229109.850 8  85113682.296 8  20785583.602                    20785591.926
 118347281.087 7  92218723.59444  22520740.008                    22520748.531
 109290967.480 8  85161925.36046  20797361.000                    20797366.473
 11  8 22  0 55  0.0000000  0  8G17G25G04G10G12G05G30G02
 126906364.639 6  98888140.293 6  24149476.914                    24149486.734
 119315404.714 7  92973127.509 7  22704967.875                    22704978.785
 120946192.019 7  94243885.03644  23015277.586                    23015287.137
 112073546.283 8  87330166.59645  21326884.320                    21326892.969
 109328042.036 8  85190752.110 7  20804429.883                    20804437.469
 109174530.502 8  85071152.954 8  20775197.375                    20775205.684
 118277715.443 7  92164516.61445  22507502.023                    22507510.719
 109310956.703 8  85177501.37446  20801165.109                    20801171.246
 11  8 22  0 55 30.0000000  0  8G17G25G04G10G12G05G30G02
 126973485.001 6  98940441.875 6  24162250.023                    24162259.457
 119239914.895 7  92914304.294 7  22690602.789                    22690613.742
 121028248.001 7  94307824.73444  23030893.148                    23030902.199
 112125971.752 7  87371017.59345  21336860.641                    21336869.465
 109310930.930 8  85177418.770 7  20801173.922                    20801181.457
 109120461.558 8  85029021.334 8  20764908.414                    20764916.691
 118208622.111 7  92110677.67645  22494353.961                    22494362.902
 109331132.849 8  85193223.03446  20805004.047                    20805010.559
 11  8 22  0 56  0.0000000  0  8G17G25G04G10G12G05G30G02
 127040792.746 6  98992889.476 5  24175057.969                    24175067.941
 119164820.763 7  92855789.395 7  22676312.547                    22676323.293
 121110304.189 7  94371764.60344  23046507.383                    23046517.094
 112178943.119 7  87412293.98545  21346940.898                    21346949.367
 109294390.362 8  85164530.019 7  20798026.555                    20798034.250
 109066904.636 8  84987288.693 8  20754716.555                    20754724.949
 118140003.460 7  92057208.61545  22481296.273                    22481304.969
 109351494.821 8  85209089.50346  20808878.891                    20808885.574
 11  8 22  0 56 30.0000000  0  8G17G25G04G10G12G05G30G02
 127108287.955 6  99045483.143 5  24187901.039                    24187911.164
 119090124.507 7  92797584.527 7  22662098.813                    22662109.000
 121192358.968 7  94435703.35044  23062122.578                    23062130.996
 112232458.277 8  87453994.11745  21357124.281                    21357132.555
 109278420.849 8  85152086.244 7  20794987.711                    20794995.172
 109013861.177 8  84945956.161 8  20744623.133                    20744631.402
 118071861.412 7  92004110.93745  22468329.555                    22468337.887
 109372040.931 8  85225099.44546  20812788.773                    20812794.836
 11  8 22  0 57  0.0000000  0  8G17G25G04G10G12G05G30G02
 127175970.650 5  99098222.914 5  24200779.102                    24200790.609
 119015828.845 7  92739691.827 7  22647960.555                    22647971.223
 121274411.654 7  94499640.51044  23077736.398                    23077745.477
 112286515.573 7  87496116.67545  21367410.992                    21367418.965
 109263023.433 8  85140088.251 7  20792057.711                    20792065.391
 108961333.583 8  84905025.600 8  20734627.086                    20734635.605
 118004198.577 7  91951386.66444  22455453.469                    22455462.477
 109392770.546 8  85241252.37746  20816733.367                    20816739.676
 11  8 22  0 57 30.0000000  0  8G17G25G04G10G12G05G30G02
 127243841.126 6  99151108.989 5  24213695.789                    24213706.438
 118941936.627 7  92682113.495 7  22633899.141                    22633910.320
 121356461.615 7  94563575.54744  23093350.133                    23093359.738
 112341112.953 7  87538660.07745  21377800.445                    21377809.016
 109248199.263 8  85128536.947 7  20789236.852                    20789244.289
 108909323.501 8  84864498.287 7  20724729.727                    20724738.172
 117937017.668 7  91899037.91445  22442669.594                    22442678.051
 109413683.057 8  85257547.82246  20820713.117                    20820718.891
 11  8 22  0 58  0.0000000  0  8G17G25G04G10G12G05G30G02
 127311899.647 6  99204141.561 6  24226647.172                    24226657.988
 118868450.205 7  92624851.359 7  22619914.797                    22619925.520
 121438507.349 7  94627507.28144  23108962.445                    23108972.949
 112396248.631 7  87581622.93545  21388292.422                    21388301.035
 109233949.320 8  85117433.090 7  20786524.984                    20786532.488
 108857832.487 8  84824375.444 8  20714931.305                    20714939.535
 117870320.869 7  91847066.38145  22429977.492                    22429985.848
 109434777.214 8  85273984.80646  20824727.156                    20824733.000
 11  8 22  0 58 30.0000000  0  8G17G25G04G10G12G05G30G02
 127380145.724 6  99257320.275 6  24239634.453                    24239645.613
 118795371.312 7  92567906.758 7  22606008.742                    22606019.336
 121520547.299 7  94691434.50544  23124573.555                    23124583.906
 112451919.554 7  87625002.86745  21398886.328                    21398895.137
 109220273.395 8  85106776.530 7  20783922.594                    20783930.332
 108806861.529 8  84784657.833 8  20705232.016                    20705240.145
 117804109.725 7  91795473.28945  22417378.039                    22417386.172
 109456050.890 8  85290561.68446  20828775.445                    20828781.668
 11  8 22  0 59  0.0000000  0  8G17G25G04G10G12G05G30G02
 127448579.343 6  99310645.177 6  24252657.344                    24252667.465
 118722702.661 7  92511281.865 7  22592180.477                    22592190.820
 121602580.753 7  94755356.64844  23140184.531                    23140193.840
 112508123.880 7  87668798.42945  21409581.672                    21409589.668
 109207172.328 8  85096567.898 7  20781429.484                    20781436.992
 108756412.671 8  84745347.061 7  20695632.195                    20695640.531
 117738386.746 7  91744260.58545  22404871.242                    22404879.391
 109477503.201 8  85307277.75446  20832857.633                    20832863.699
 11  8 22  0 59 30.0000000  0  8G17G25G04G10G12G05G30G02
 127517201.023 6  99364116.625 6  24265715.430                    24265726.000
 118650446.757 7  92454978.560 6  22578430.305                    22578440.555
 121684606.692 7  94819272.95044  23155793.211                    23155801.977
 112564859.537 7  87713008.02645  21420378.305                    21420386.449
 109194647.134 8  85086808.000 7  20779046.141                    20779053.441
 108706487.531 8  84706444.380 8  20686131.711                    20686139.512
 117673154.272 7  91693430.10445  22392458.039                    22392466.523
 109499133.658 8  85324132.64246  20836973.898                    20836980.148
 11  8 22  1  0  0.0000000  0  8G17G25G04G10G12G05G30G02
 127586010.463 6  99417734.307 6  24278809.430                    24278819.844
 118578606.044 7  92398998.804 7  22564759.953                    22564770.336
 121766623.912 6  94883182.43244  23171400.180                    23171410.309
 112622124.323 8  87757629.92845  21431275.406                    21431283.699
 109182698.356 8  85077497.251 7  20776772.227                    20776779.785
 108657087.884 8  84667951.174 8  20676731.195                    20676739.367
 117608414.537 7  91642983.56545  22380138.461                    22380146.992
 109520940.987 8  85341125.34946  20841123.602                    20841129.652
 11  8 22  1  0 30.0000000  0  8G17G25G04G10G12G05G30G02
 127655008.184 6  99471498.735 6  24291939.586                    24291949.848
 118507183.241 7  92343344.696 7  22551168.234                    22551178.758
 121848632.036 6  94947084.80343  23187007.031                    23187016.449
 112679916.593 7  87802662.86545  21442273.195                    21442281.176
 109171327.354 8  85068636.720 7  20774608.422                    20774615.820
 108608215.491 8  84629868.817 8  20667430.875                    20667438.965
 117544170.102 7  91592922.98345  22367913.266                    22367921.645
 109542924.826 8  85358255.59646  20845306.938                    20845312.820
 11  8 22  1  1  0.0000000  0  8G17G25G04G10G12G05G30G02
 127724193.851 6  99525409.618 6  24305104.430                    24305116.031
 118436180.211 7  92288017.675 7  22537656.641                    22537667.688
 121930629.337 6  95010978.80243  23202610.555                    23202619.750
 112738233.452 7  87848104.55145  21453370.094                    21453378.426
 109160533.619 8  85060226.013 7  20772554.492                    20772562.035
 108559871.311 8  84592198.048 8  20658231.234                    20658239.504
 117480422.546 7  91543249.57145  22355782.195                    22355791.254
 109565083.048 8  85375521.73046  20849523.609                    20849529.688
 11  8 22  1  1 30.0000000  0  8G17G25G04G10G12G05G30G02
 127793567.189 6  99579466.739 6  24318306.688                    24318316.816
 118365599.102 7  92233019.423 7  22524225.961                    22524236.180
 122012614.528 7  95074863.36444  23218210.992                    23218220.668
 112797072.673 7  87893953.28745  21464567.188                    21464575.250
 109150317.827 8  85052265.646 7  20770610.680                    20770618.254
 108512056.831 8  84554940.038 8  20649132.547                    20649140.672
 117417173.981 7  91493965.00145  22343746.188                    22343755.227
 109587413.984 8  85392922.44646  20853772.992                    20853778.816
 11  8 22  1  2  0.0000000  0  9G17G25G04G10G12G05G30G29G02
 127863128.411 6  99633670.294 6  24331543.922                    24331554.148
 118295442.703 7  92178352.105 7  22510875.633                    22510885.203
 122094587.208 6  95138738.17344  23233809.992                    23233820.086
 112856432.209 7  87940207.45445  21475862.742                    21475871.340
 109140680.503 8  85044756.031 7  20768776.781                    20768784.379
 108464773.777 8  84518096.133 8  20640134.633                    20640142.699
 117354426.929 7  91445071.20545  22331805.594                    22331814.734
 129617944.41116 101001021.62915  24665477.203
 109609917.554 8  85410457.67746  20858055.594                    20858061.516
 11  8 22  1  2 30.0000000  0  9G17G25G04G10G12G05G30G29G02
 127932878.001 7  99688020.635 6  24344816.313                    24344826.992
 118225713.745 7  92124017.863 6  22497606.477                    22497616.430
 122176546.547 7  95202602.54444  23249406.703                    23249417.020
 112916310.406 7  87986865.76945  21487257.109                    21487266.184
 109131623.059 8  85037698.269 7  20767052.992                    20767060.520
 108418024.046 8  84481667.802 8  20631238.734                    20631246.895
 117292183.776 7  91396570.08245  22319961.258                    22319970.234
 129538515.535 6 100939129.031 5  24650362.250                    24650370.898
 109632592.961 8  85428126.82046  20862370.555                    20862377.086
 11  8 22  1  3  0.0000000  0  9G17G25G04G10G12G05G30G29G02
 128002816.193 7  99742517.945 6  24358125.063                    24358135.594
 118156414.787 7  92070018.689 7  22484419.039                    22484429.477
 122258491.942 7  95266456.06044  23265001.008                    23265010.148
 112976705.255 7  88033926.67445  21498749.844                    21498758.355
 109123145.958 8  85031092.728 7  20765440.047                    20765447.633
 108371809.470 8  84445656.467 8  20622444.250                    20622452.164
 117230446.962 7  91348463.47544  22308213.133                    22308221.883
 129459007.743 6 100877174.929 5  24635232.383                    24635241.992
 109655439.419 8  85445929.24846  20866717.852                    20866723.996
 11  8 22  1  3 30.0000000  0  9G17G25G04G10G12G05G30G29G02
 128072942.196 7  99797161.589 6  24371469.719                    24371479.426
 118087547.303 7  92016355.746 7  22471314.180                    22471324.738
 122340421.670 7  95330297.36244  23280591.180                    23280600.969
 113037613.601 7  88081387.70745  21510340.234                    21510349.008
 109115248.992 8  85024939.237 7  20763937.195                    20763944.508
 108326130.675 8  84410062.635 8  20613751.570                    20613760.117
 117169217.769 7  91300752.43245  22296561.508                    22296570.406
 129379420.565 6 100815158.948 5  24620088.117                    24620096.855
 109678455.014 8  85463863.47046  20871097.500                    20871103.730
 11  8 22  1  4  0.0000000  0  9G17G25G04G10G12G05G30G29G02
 128143255.926 7  99851951.450 6  24384849.945                    24384861.000
 118019113.805 7  91963030.946 7  22458291.883                    22458302.207
 122422334.693 7  95394125.66244  23296178.898                    23296187.813
 113099033.158 7  88129247.07345  21522028.000                    21522036.828
 109107932.698 8  85019238.209 7  20762544.828                    20762552.938
 108280989.020 8  84374887.350 8  20605161.766                    20605170.082
 117108498.279 7  91253438.56445  22285007.328                    22285015.918
 129299754.876 6 100753081.825 5  24604927.984                    24604937.590
 109701638.760 8  85481928.72946  20875509.531                    20875515.590
 11  8 22  1  4 30.0000000  0  9G17G25G04G10G12G05G30G29G02
 128213757.426 6  99906887.626 6  24398265.625                    24398277.133
 117951116.452 7  91910046.030 7  22445351.898                    22445363.555
 122504229.872 7  95457940.05444  23311762.703                    23311772.777
 113160961.319 7  88177502.77345  21533812.492                    21533820.883
 109101197.602 8  85013990.065 7  20761263.266                    20761270.723
 108236385.684 8  84340131.527 8  20596673.633                    20596682.035
 117048290.617 7  91206523.50845  22273550.531                    22273559.242
 129220010.983 6 100690943.787 6  24589753.164                    24589762.824
 109724989.427 8  85500124.04046  20879952.977                    20879959.227
 11  8 22  1  5  0.0000000  0  9G17G25G04G10G12G05G30G29G02
 128284446.745 7  99961970.164 6  24411718.453                    24411728.625
 117883557.766 7  91857402.913 7  22432495.875                    22432506.836
 122586106.740 6  95521740.17944  23327343.570                    23327353.188
 113223396.099 7  88226153.23645  21545693.242                    21545702.344
 109095043.883 8  85009194.954 7  20760092.625                    20760099.723
 108192322.472 8  84305796.589 8  20588289.133                    20588296.934
 116988597.085 7  91160009.07845  22262191.219                    22262199.457
 129140189.764 6 100628745.461 6  24574563.219                    24574573.668
 109748506.378 8  85518448.93846  20884427.883                    20884434.215
 11  8 22  1  5 30.0000000  0  9G17G25G04G10G12G05G30G29G02
 128355323.751 6 100017198.959 6  24425205.258                    24425216.090
 117816439.679 7  91805103.131 7  22419723.727                    22419734.781
 122667963.981 7  95585524.99344  23342920.555                    23342929.746
 113286335.011 7  88275196.52945  21557670.406                    21557679.023
 109089471.925 8  85004853.158 7  20759032.336                    20759039.664
 108148800.387 8  84271883.293 8  20580006.969                    20580014.965
 116929419.122 7  91113896.39845  22250929.563                    22250937.980
 129060291.487 6 100566487.059 6  24559359.469                    24559369.719
 109772187.998 8  85536902.14346  20888934.461                    20888940.363
 11  8 22  1  6  0.0000000  0  9G17G25G04G10G12G05G30G29G02
 128426388.528 6 100072574.066 6  24438728.500                    24438739.340
 117749764.772 7  91753148.665 7  22407036.102                    22407046.820
 122749800.841 7  95649293.92644  23358493.844                    23358503.449
 113349776.145 7  88324631.15545  21569742.695                    21569751.523
 109084482.334 8  85000965.156 7  20758082.641                    20758090.008
 108105820.972 8  84238392.870 8  20571828.063                    20571835.980
 116870759.211 7  91068187.40145  22239766.367                    22239775.605
 128980316.951 6 100504169.281 6  24544139.594                    24544150.625
 109796033.539 8  85555483.09546  20893472.102                    20893478.547
 11  8 22  1  6 30.0000000  0  9G17G25G04G10G12G05G30G29G02
 128497640.975 6 100128095.415 6  24452286.398                    24452298.406
 117683535.131 7  91701541.185 7  22394432.711                    22394444.113
 122831616.513 7  95713046.36644  23374062.609                    23374072.512
 113413716.675 7  88374454.93245  21581910.781                    21581919.094
 109080075.402 8  84997531.175 7  20757244.141                    20757251.316
 108063385.414 8  84205326.221 8  20563752.781                    20563760.824
 116812619.216 7  91022883.54445  22228703.711                    22228711.922
 128900266.352 6 100441792.249 6  24528906.688                    24528917.617
 109820041.818 8  85574190.84046  20898040.984                    20898046.805
 11  8 22  1  7  0.0000000  0  9G17G25G04G10G12G05G30G29G02
 128569080.942 6 100183762.919 5  24465880.922                    24465891.406
 117617753.189 7  91650282.565 7  22381915.211                    22381926.355
 122913409.906 6  95776781.40944  23389626.930                    23389637.008
 113478154.317 7  88424666.07445  21594172.508                    21594181.227
 109076251.075 8  84994551.177 7  20756515.938                    20756523.668
 108021495.015 8  84172684.369 8  20555781.555                    20555789.570
 116755001.161 7  90977986.39045  22217738.844                    22217747.594
 128820140.853 6 100379356.795 6  24513660.719                    24513670.320
 109844212.092 8  85593024.82446  20902640.359                    20902646.590
 11  8 22  1  7 30.0000000  0  9G17G25G04G10G12G05G30G29G02
 128640708.277 6 100239576.425 5  24479511.773                    24479521.922
 117552421.174 7  91599374.533 7  22369482.789                    22369494.016
 122995180.326 6  95840498.57244  23405187.180                    23405197.742
 113543086.778 7  88475262.77545  21606529.148                    21606537.527
 109073009.911 8  84992025.587 7  20755899.625                    20755906.816
 107980151.122 8  84140468.377 8  20547913.945                    20547922.148
 116697907.102 7  90933497.52745  22206874.266                    22206883.051
 128739940.798 6 100316863.303 6  24498398.797                    24498409.387
 109868543.396 8  85611984.28846  20907270.188                    20907276.273
 11  8 22  1  8  0.0000000  0  9G17G25G04G10G12G05G30G29G02
 128712522.881 6 100295535.834 5  24493178.406                    24493188.074
 117487541.174 7  91548818.718 7  22357136.828                    22357147.457
 123076926.864 6  95904197.17044  23420743.156                    23420753.664
 113608511.549 7  88526243.10345  21618978.703                    21618987.219
 109070352.148 8  84989954.600 7  20755393.727                    20755400.980
 107939354.921 8  84108679.152 8  20540150.555                    20540159.133
 116641338.827 7  90889418.38845  22196109.617                    22196118.262
 128659666.835 6 100254312.223 6  24483123.289                    24483133.277
 109893034.549 8  85631068.31046  20911930.742                    20911936.867
 11  8 22  1  8 30.0000000  0  8G25G04G10G12G05G30G29G02
 117423115.987 7  91498617.317 7  22344876.922                    22344887.281
 123158649.027 6  95967876.71744  23436294.281                    23436304.570
 113674426.838 7  88577605.66345  21631521.898                    21631530.141
 109068278.556 8  84988338.806 7  20754999.086                    20755006.266
 107899108.022 8  84077317.957 8  20532491.898                    20532499.906
 116585298.791 7  90845750.82945  22185445.641                    22185453.961
 128579320.139 7 100191704.437 6  24467833.609                    24467843.309
 109917685.042 8  85650276.48146  20916621.469                    20916627.762
 11  8 22  1  9  0.0000000  0  8G25G04G10G12G05G30G29G02
 117359147.470 7  91448771.740 7  22332704.359                    22332714.258
 123240345.654 6  96031536.37343  23451840.594                    23451851.129
 113740829.598 7  88629348.06645  21644158.297                    21644166.094
 109066789.265 8  84987178.312 7  20754715.773                    20754722.934
 107859411.563 8  84046385.670 8  20524938.055                    20524946.250
 116529788.572 7  90802496.16045  22174882.344                    22174891.004
 128498901.077 7 100129040.249 6  24452530.320                    24452539.711
 109942493.245 8  85669607.55046  20921342.672                    20921348.730
 11  8 22  1  9 30.0000000  0  8G25G04G10G12G05G30G29G02
 117295637.297 7  91399283.325 7  22320618.656                    22320629.270
 123322015.577 6  96095175.22944  23467381.953                    23467392.195
 113807716.981 8  88681468.10645  21656886.070                    21656894.391
 109065883.177 8  84986472.270 7  20754542.953                    20754550.613
 107820265.963 8  84015882.633 8  20517488.594                    20517496.852
 116474809.624 7  90759655.44145  22164419.938                    22164428.613
 128418409.743 7 100066319.774 6  24437213.102                    24437222.809
 109967457.979 8  85689060.59146  20926093.219                    20926099.141
 11  8 22  1 10  0.0000000  0  8G25G04G10G12G05G30G29G02
 117232588.199 7  91350154.186 7  22308621.117                    22308631.660
 123403658.230 6  96158792.84143  23482918.836                    23482928.270
 113875087.152 7  88733964.34145  21669706.172                    21669714.961
 109065561.292 8  84986221.457 7  20754481.891                    20754489.031
 107781672.901 8  83985810.139 8  20510144.734                    20510152.492
 116420364.277 7  90717230.51745  22154059.289                    22154067.980
 128337847.264 6 100003543.860 6  24421882.469                    24421891.953
 109992578.917 8  85708635.34946  20930873.656                    20930879.375
 11  8 22  1 10 30.0000000  0  8G25G04G10G12G05G30G29G02
 117170001.895 7  91301385.652 7  22296711.281                    22296721.652
 123485272.726 6  96222388.50444  23498449.266                    23498459.309
 113942937.215 7  88786834.51945  21682617.750                    21682626.426
 109065823.504 8  84986425.778 7  20754531.688                    20754539.336
 107743633.092 8  83956168.745 8  20502906.070                    20502914.059
 116366454.036 7  90675222.56245  22143800.477                    22143809.035
 128257213.953 7  99940712.753 6  24406538.656                    24406548.711
 110017854.516 8  85728330.62846  20935683.070                    20935689.078
 11  8 22  1 11  0.0000000  0  8G25G04G10G12G05G30G29G02
 117107880.624 7  91252979.488 7  22284889.297                    22284900.102
 123566857.993 7  96285961.38944  23513975.008                    23513985.082
 114011264.762 7  88840076.75045  21695619.953                    21695628.824
 109066670.169 8  84987085.513 7  20754692.742                    20754700.543
 107706147.680 8  83926959.357 8  20495772.664                    20495780.977
 116313080.692 7  90633632.96545  22133644.078                    22133652.531
 128176510.644 7  99877827.074 6  24391181.195                    24391191.164
 110043283.745 7  85748145.61446  20940522.047                    20940528.348
 11  8 22  1 11 30.0000000  0  8G25G04G10G12G05G30G29G02
 117046226.202 7  91204937.107 7  22273157.000                    22273167.723
 123648413.122 6  96349510.81944  23529494.547                    23529504.598
 114080066.834 7  88893688.74745  21708712.742                    21708721.844
 109068100.568 8  84988200.118 7  20754965.008                    20754972.750
 107669217.572 8  83898182.663 8  20488745.172                    20488753.426
 116260245.851 7  90592462.98245  22123590.031                    22123598.621
 128095737.598 7  99814887.077 6  24375810.984                    24375820.645
 110068865.358 8  85768079.34446  20945390.664                    20945396.574
 11  8 22  1 12  0.0000000  0  8G25G04G10G12G05G30G29G02
 116985041.171 8  91157260.485 7  22261514.164                    22261524.852
 123729937.756 7  96413036.52644  23545008.031                    23545017.949
 114149341.352 7  88947668.88745  21721895.063                    21721903.762
 109070115.457 8  84989770.157 7  20755348.922                    20755355.941
 107632844.148 8  83869839.762 8  20481823.633                    20481831.715
 116207951.657 7  90551714.25845  22113638.711                    22113647.363
 128014895.715 7  99751893.448 6  24360427.688                    24360437.152
 110094598.968 8  85788131.51046  20950287.484                    20950293.680
 11  8 22  1 12 30.0000000  0  8G25G04G10G12G05G30G29G02
 116924327.339 7  91109951.011 7  22249960.500                    22249970.977
 123811430.656 7  96476537.47244  23560515.492                    23560525.465
 114219085.581 7  89002015.03345  21735166.914                    21735175.543
 109072714.469 8  84991795.370 7  20755843.219                    20755850.699
 107597028.258 8  83841931.300 8  20475007.781                    20475015.996
 116156199.609 7  90511388.00045  22103790.352                    22103799.160
 127933985.711 7  99688846.753 6  24345030.477                    24345040.652
 110120483.124 8  85808300.99746  20955212.828                    20955218.895
 11  8 22  1 13  0.0000000  0  8G25G04G10G12G05G30G29G02
 116864086.520 8  91063010.118 7  22238496.820                    22238507.070
 123892890.890 7  96540012.99044  23576017.125                    23576026.426
 114289296.787 7  89056725.06345  21748528.078                    21748536.355
 109075897.358 8  84994275.537 7  20756448.695                    20756456.566
 107561770.271 8  83814457.563 8  20468298.695                    20468306.496
 116104991.203 7  90471485.35345  22094045.859                    22094054.969
 127853008.322 6  99625747.554 6  24329621.031                    24329630.371
 110146516.489 8  85828586.73546  20960167.039                    20960173.195
 11  8 22  1 13 30.0000000  0  8G25G04G10G12G05G30G29G02
 116804321.483 8  91016439.960 7  22227124.203                    22227134.465
 123974318.351 7  96603462.94043  23591512.242                    23591521.797
 114359972.877 7  89111797.34145  21761977.016                    21761985.559
 109079664.807 8  84997211.211 7  20757165.805                    20757173.223
 107527072.110 8  83787420.052 8  20461695.930                    20461703.969
 116054328.789 7  90432008.14845  22084405.273                    22084414.008
 127771964.534 6  99562596.607 6  24314198.547                    24314208.016
 110172699.100 8  85848988.77746  20965148.977                    20965155.539
 11  8 22  1 14  0.0000000  0  8G25G04G10G12G05G30G29G02
 116745033.974 7  90970241.903 7  22215842.273                    22215852.730
 124055711.997 7  96666886.53944  23607000.664                    23607010.703
 114431111.103 7  89167229.71545  21775514.023                    21775522.656
 109084016.503 8  85000602.133 7  20757993.867                    20758001.348
 107492934.420 8  83760819.276 8  20455199.500                    20455207.742
 116004213.799 7  90392957.50145  22074869.000                    22074877.313
 127690855.005 6  99499394.416 6  24298763.531                    24298773.164
 110199029.562 8  85869506.02446  20970159.852                    20970165.777
 11  8 22  1 14 30.0000000  0  8G25G04G10G12G05G30G29G02
 116686226.227 7  90924417.680 7  22204651.172                    22204662.316
 124137071.352 7  96730283.45943  23622483.328                    23622493.371
 114502708.843 7  89223020.15545  21789138.734                    21789148.004
 109088952.366 8  85004448.259 7  20758933.164                    20758940.711
 107459358.318 8  83734656.104 8  20448810.281                    20448818.324
 115954648.063 7  90354334.85545  22065436.594                    22065444.906
 127609680.455 6  99436141.577 6  24283316.508                    24283326.301
 110225507.290 8  85890138.01946  20975197.961                    20975204.289
 11  8 22  1 15  0.0000000  0  8G25G04G10G12G05G30G29G02
 116627899.845 8  90878968.541 7  22193552.086                    22193562.930
 124218395.142 7  96793652.65243  23637957.984                    23637967.594
 114574763.125 7  89279166.34545  21802850.094                    21802858.848
 109094472.187 8  85008749.409 7  20759983.641                    20759991.035
 107426344.244 8  83708930.872 8  20442527.633                    20442536.340
 115905632.803 7  90316141.15145  22056109.711                    22056117.984
 127528441.502 6  99372838.581 5  24267857.023                    24267866.273
 110252130.545 8  85910883.41546  20980264.289                    20980270.582
 11  8 22  1 15 30.0000000  0  8G25G04G10G12G05G30G29G02
 116570057.080 7  90833896.258 7  22182544.805                    22182555.449
 124299682.829 7  96856993.68843  23653426.805                    23653435.555
 114647271.985 7  89335666.74845  21816648.563                    21816656.492
 109100575.561 8  85013505.273 7  20761144.852                    20761152.398
 107393893.125 8  83683644.308 8  20436352.195                    20436360.672
 115857170.029 7  90278377.95245  22046887.406                    22046896.188
 127447139.059 6  99309486.060 6  24252385.555                    24252394.852
 110278898.791 8  85931741.78046  20985358.375                    20985364.285
 11  8 22  1 16  0.0000000  0  8G25G04G10G12G05G30G29G02
 116512699.833 7  90789202.295 7  22171630.633                    22171641.008
 124380933.767 7  96920306.11644  23668888.422                    23668898.176
 114720232.626 8  89392519.19845  21830532.203                    21830540.758
 109107262.511 8  85018715.876 7  20762417.531                    20762425.039
 107362006.066 8  83658797.275 8  20430284.633                    20430292.461
 115809261.249 7  90241046.43345  22037770.414                    22037779.004
 127365773.687 6  99246084.517 6  24236903.563                    24236911.941
 110305811.066 8  85952712.38446  20990479.398                    20990485.695
 11  8 22  1 16 30.0000000  0  8G25G04G10G12G05G30G29G02
 116455830.245 8  90744888.334 7  22160808.188                    22160818.543
 124462147.385 6  96983589.45544  23684342.727                    23684352.906
 114793642.320 7  89449721.55545  21844501.719                    21844510.352
 109114532.938 8  85024381.126 7  20763800.758                    20763808.598
 107330683.772 8  83634390.311 8  20424324.180                    20424332.113
 115761908.107 7  90204147.87445  22028759.539                    22028767.816
 127284346.156 6  99182634.560 6  24221407.031                    24221417.113
 110332866.586 8  85973794.60246  20995627.969                    20995634.098
 11  8 22  1 17  0.0000000  0  8G25G04G10G12G05G30G29G02
 116399450.288 7  90700955.895 7  22150079.813                    22150090.133
 124543322.919 6  97046843.06343  23699789.219                    23699800.164
 114867498.381 7  89507271.73445  21858555.586                    21858564.316
 109122386.478 8  85030500.755 7  20765295.602                    20765303.230
 107299927.216 8  83610424.179 8  20418471.063                    20418479.051
 115715112.195 7  90167683.55645  22019854.195                    22019863.020
 127202857.545 7  99119136.988 6  24205900.609                    24205910.219
 110360064.591 7  85994987.85346  21000803.367                    21000809.750
 11  8 22  1 17 30.0000000  0  8G25G04G10G12G05G30G29G02
 116343561.903 8  90657406.498 7  22139444.805                    22139454.879
 124624459.537 6  97110066.36943  23715229.570                    23715239.777
 114941798.523 7  89565167.93745  21872695.023                    21872703.305
 109130823.305 8  85037074.889 7  20766901.023                    20766908.840
 107269737.071 8  83586899.416 8  20412726.250                    20412734.410
 115668875.175 8  90131654.70545  22011055.977                    22011064.238
 127121308.562 7  99055592.326 5  24190381.758                    24190391.258
 110387404.021 8  86016291.29646  21006006.031                    21006012.164
 11  8 22  1 18  0.0000000  0  8G25G04G10G12G05G30G29G02
 116288166.813 8  90614241.497 7  22128902.930                    22128913.383
 124705556.459 7  97173258.77243  23730661.648                    23730671.848
 115016539.730 8  89623407.84145  21886917.859                    21886926.305
 109139842.484 8  85044102.808 7  20768617.531                    20768624.844
 107240113.931 8  83563816.467 8  20407089.375                    20407096.969
 115623198.270 7  90096062.31145  22002363.531                    22002372.184
 127039699.882 6  98992001.156 5  24174852.742                    24174862.375
 110414883.692 8  86037704.02546  21011235.078                    21011241.887
 11  8 22  1 18 30.0000000  0  8G25G04G10G12G05G30G29G02
 116233266.863 8  90571462.336 7  22118455.844                    22118466.473
 124786613.229 7  97236419.87944  23746087.070                    23746096.672
 115091719.144 7  89681989.19045  21901223.734                    21901232.324
 109149443.981 8  85051584.474 7  20770444.570                    20770452.051
 107211058.469 8  83541175.858 8  20401560.305                    20401568.113
 115578083.038 7  90060907.57745  21993778.875                    21993786.832
 126958032.437 6  98928364.243 6  24159311.703                    24159322.137
 110442502.819 8  86059225.41946  21016490.906                    21016497.199
 11  8 22  1 19  0.0000000  0  8G25G04G10G12G05G30G29G02
 116178864.095 8  90529070.565 7  22108103.844                    22108114.172
 124867628.924 7  97299548.96943  23761503.594                    23761512.004
 115167334.236 7  89740910.03745  21915612.953                    21915621.211
 109159627.477 8  85059519.655 7  20772382.219                    20772389.820
 107182571.648 8  83518978.357 8  20396139.555                    20396147.309
 115533530.967 7  90026191.67545  21985300.508                    21985308.980
 126876307.043 6  98864682.163 6  24143759.992                    24143770.227
 110470260.469 8  86080854.75646  21021773.461                    21021779.246
 11  8 22  1 19 30.0000000  0  8G25G04G10G12G05G30G29G02
 116124960.468 8  90487067.740 7  22097845.930                    22097856.672
 124948603.130 6  97362645.65743  23776912.883                    23776921.523
 115243382.495 8  89800168.41645  21930084.609                    21930092.832
 109170392.891 8  85067908.269 7  20774430.867                    20774438.473
 107154653.863 8  83497224.252 8  20390826.906                    20390834.832
 115489543.594 7  89991915.81245  21976929.664                    21976938.816
 126794524.553 6  98800955.585 6  24128197.648                    24128207.176
 110498155.888 8  86102591.43846  21027081.758                    21027088.102
 11  8 22  1 20  0.0000000  0  8G25G04G10G12G05G30G29G02
 116071557.842 8  90445455.292 7  22087683.891                    22087694.754
 125029535.234 6  97425709.59843  23792313.164                    23792323.230
 115319861.145 7  89859762.16345  21944637.727                    21944646.457
 109181739.620 8  85076749.856 7  20776590.289                    20776597.723
 107127305.762 8  83475914.062 8  20385622.727                    20385630.141
 115446122.461 7  89958081.17945  21968667.258                    21968676.023
 126712685.932 6  98737185.295 6  24112623.797                    24112633.738
 110526188.248 8  86124434.83746  21032415.844                    21032421.875
 11  8 22  1 20 30.0000000  0  8G25G04G10G12G05G30G29G02
 116018658.116 8  90404234.753 7  22077617.102                    22077628.148
 125110424.679 6  97488740.29243  23807706.008                    23807716.043
 115396767.873 7  89919689.46545  21959272.578                    21959281.656
 109193667.063 8  85086043.948 7  20778859.539                    20778867.379
 107100528.395 8  83455048.598 8  20380527.008                    20380534.758
 115403268.932 8  89924688.82845  21960512.703                    21960521.262
 126630791.978 7  98673371.888 6  24097039.484                    24097049.773
 110554356.827 8  86146384.36246  21037776.445                    21037782.973
 11  8 22  1 21  0.0000000  0  8G25G04G10G12G05G30G29G02
 115966262.687 8  90363407.158 7  22067646.570                    22067657.723
 125191270.312 7  97551736.88043  23823090.805                    23823100.094
 115474099.121 7  89979947.55545  21973988.438                    21973996.781
 109206174.997 8  85095790.378 7  20781240.422                    20781247.844
 107074321.980 8  83434628.037 8  20375540.344                    20375547.754
 115360984.029 7  89891739.56245  21952465.680                    21952475.113
 126548843.119 7  98609515.650 6  24081446.125                    24081455.777
 110582660.085 8  86168438.84346  21043162.398                    21043168.766
 11  8 22  1 21 30.0000000  0  8G25G04G10G12G05G30G29G02
 115914373.387 8  90322973.954 7  22057772.633                    22057783.352
 125272071.895 6  97614699.13143  23838466.211                    23838476.059
 115551852.229 7  90040534.37345  21988784.367                    21988792.141
 109219262.453 8  85105988.376 7  20783730.508                    20783737.926
 107048686.646 8  83414652.465 8  20370661.648                    20370669.645
 115319269.194 7  89859234.50245  21944528.055                    21944536.918
 126466840.503 7  98545617.543 6  24065840.672                    24065850.535
 110611097.304 8  86190597.70946  21048573.953                    21048579.543
 11  8 22  1 22  0.0000000  0  8G25G04G10G12G05G30G29G02
 115862992.414 8  90282936.854 7  22047995.102                    22048005.965
 125352828.927 7  97677626.63943  23853834.547                    23853843.590
 115630025.137 7  90101448.31745  22003660.211                    22003668.523
 109232929.367 8  85116637.906 7  20786331.102                    20786338.895
 107023623.842 8  83395123.026 8  20365892.523                    20365900.191
 115278126.100 7  89827174.96345  21936698.492                    21936707.469
 126384785.288 7  98481678.445 6  24050226.258                    24050236.129
 110639668.171 8  86212860.69646  21054010.156                    21054016.488
 11  8 22  1 22 30.0000000  0  8G25G04G10G12G05G30G29G02
 115812121.361 8  90243297.079 7  22038314.578                    22038325.266
 125433540.573 7  97740518.81243  23869193.133                    23869203.082
 115708614.719 7  90162686.94545  22018615.148                    22018623.781
 109247175.234 8  85127738.566 7  20789041.953                    20789049.617
 106999133.546 8  83376039.692 8  20361231.906                    20361239.316
 115237555.878 7  89795561.81345  21928978.258                    21928986.902
 126302678.096 6  98417698.836 6  24034602.195                    24034611.672
 110668371.424 8  86235226.86146  21059472.766                    21059478.563
 11  8 22  1 23  0.0000000  0  8G25G04G10G12G05G30G29G02
 115761761.724 8  90204055.814 7  22028731.836                    22028741.875
 125514206.018 6  97803374.97243  23884542.711                    23884552.539
 115787618.067 7  90224247.97345  22033649.469                    22033657.543
 109261999.444 8  85139289.887 7  20791863.188                    20791870.664
 106975216.157 8  83357402.783 8  20356680.914                    20356688.699
 115197559.591 7  89764395.86945  21921367.289                    21921375.863
 126220519.615 6  98353679.232 6  24018967.695                    24018977.414
 110697205.890 8  86257695.26346  21064959.664                    21064965.555
 11  8 22  1 23 30.0000000  0  8G25G04G10G12G05G30G29G02
 115711915.917 8  90165214.922 7  22019246.195                    22019256.531
 125594825.529 6  97866195.35443  23899884.078                    23899893.973
 115867033.220 7  90286129.88045  22048761.563                    22048769.773
 109277401.802 8  85151291.707 7  20794794.047                    20794801.797
 106951872.817 8  83339213.182 8  20352238.508                    20352246.539
 115158139.185 7  89733678.68145  21913865.883                    21913874.422
 126138311.519 6  98289620.987 6  24003323.563                    24003334.172
 110726171.841 8  86280266.13146  21070471.547                    21070477.785
 11  8 22  1 24  0.0000000  0  8G25G04G10G12G05G30G29G02
 115662584.620 8  90126774.982 7  22009858.430                    22009869.488
 125675397.777 6  97928978.91543  23915216.578                    23915226.012
 115946856.231 7  90348329.61045  22063951.156                    22063959.398
 109293381.212 8  85163743.184 7  20797835.195                    20797842.449
 106929103.064 8  83321470.536 8  20347905.664                    20347913.602
 115119294.931 7  89703410.42945  21906474.055                    21906482.121
 126056053.929 6  98225524.195 6  23987671.047                    23987680.836
 110755267.205 8  86302937.82846  21076008.195                    21076014.273
 11  8 22  1 24 30.0000000  0  8G25G04G10G12G05G30G29G02
 115613770.280 8  90088737.834 7  22000569.563                    22000579.480
 125755922.287 6  97991725.27843  23930540.234                    23930548.914
 116027085.029 7  90410845.53545  22079218.094                    22079225.980
 109309937.325 8  85176644.051 7  20800985.547                    20800993.031
 106906907.714 8  83304175.476 8  20343682.172                    20343689.895
 115081028.717 7  89673592.59645  21899192.438                    21899200.832
 125973748.550 6  98161390.177 6  23972008.602                    23972018.594
 110784491.762 8  86325710.19946  21081569.867                    21081575.609
 11  8 22  1 25  0.0000000  0  8G25G04G10G12G05G30G29G02
 115565474.648 8  90051104.879 7  21991379.070                    21991389.641
 125836398.851 6  98054434.24543  23945854.813                    23945863.305
 116107716.885 7  90473675.53445  22094562.258                    22094569.793
 109327069.344 8  85189993.671 7  20804245.563                    20804253.313
 106885287.487 8  83287328.559 8  20339567.930                    20339575.559
 115043341.929 8  89644226.26345  21892020.555                    21892029.383
 125891396.303 6  98097219.613 6  23956337.633                    23956346.914
 110813844.996 8  86348582.84446  21087155.211                    21087161.773
 11  8 22  1 25 30.0000000  0  8G25G04G10G12G05G30G29G02
 115517699.040 8  90013877.128 7  21982287.938                    21982298.375
 125916826.721 6  98117105.30143  23961160.117                    23961168.355
 116188748.834 7  90536817.29945  22109981.828                    22109990.168
 109344776.797 8  85203791.676 8  20807615.258                    20807623.191
 106864242.353 8  83270929.775 8  20335563.156                    20335570.840
 115006235.302 7  89615312.00645  21884959.492                    21884968.164
 125808997.570 6  98033012.818 6  23940657.406                    23940666.840
 110843325.662 8  86371554.78746  21092765.344                    21092771.547
 11  8 22  1 26  0.0000000  0  8G25G04G10G12G05G30G29G02
 115470444.934 8  89977055.759 7  21973295.695                    21973306.539
 125997205.137 6  98179737.84543  23976455.156                    23976464.309
 116270177.875 7  90600268.47145  22125477.313                    22125485.832
 109363058.727 8  85218037.329 8  20811094.180                    20811102.266
 106843772.590 8  83254979.330 8  20331667.828                    20331675.797
 114969709.864 7  89586850.63045  21878009.320                    21878017.531
 125726553.506 6  97968770.710 6  23924968.914                    23924978.684
 110872932.785 8  86394625.27046  21098398.992                    21098405.152
 11  8 22  1 26 30.0000000  0  8G25G04G10G12G05G30G29G02
 115423714.013 8  89940642.063 7  21964403.477                    21964414.184
 126077533.714 6  98242331.48643  23991740.234                    23991751.316
 116352001.420 7  90664027.06445  22141047.984                    22141056.402
 109381914.211 8  85232729.906 7  20814682.172                    20814689.801
 106823878.637 8  83239477.570 8  20327882.219                    20327890.043
 114933766.749 7  89558842.99145  21871169.445                    21871178.102
 125644065.173 6  97904494.118 6  23909271.906                    23909282.039
 110902665.609 8  86417793.69546  21104057.289                    21104063.367
 11  8 22  1 27  0.0000000  0  8G25G04G10G12G05G30G29G02
 115377507.972 8  89904637.343 7  21955610.313                    21955620.770
 126157812.070 6  98304886.03443  24007017.000                    24007027.762
 116434216.541 7  90728090.77045  22156693.609                    22156700.996
 109401342.774 8  85247869.036 7  20818379.500                    20818387.414
 106804560.575 8  83224424.545 8  20324206.008                    20324214.043
 114898407.175 7  89531290.07245  21864440.742                    21864449.234
 125561533.522 7  97840183.749 6  23893566.352                    23893576.617
 110932523.472 8  86441059.56846  21109738.703                    21109745.102
 11  8 22  1 27 30.0000000  0  8G25G04G10G12G05G30G29G02
 115331828.407 8  89869042.891 7  21946917.969                    21946928.801
 126238039.487 6  98367400.88743  24022283.055                    24022294.332
 116516820.367 7  90792457.35745  22172411.867                    22172420.414
 109421343.519 8  85263454.039 7  20822185.414                    20822193.242
 106785818.651 8  83209820.479 8  20320639.609                    20320647.270
 114863632.271 7  89504192.75045  21857823.328                    21857831.746
 125478959.414 7  97775840.274 6  23877853.266                    23877862.840
 110962505.439 8  86464422.14946  21115444.391                    21115450.398
 11  8 22  1 28  0.0000000  0  8G25G04G10G12G05G30G29G02
 115286676.722 8  89833859.758 7  21938325.891                    21938336.535
 126318215.668 6  98429875.79643  24037540.766                    24037552.246
 116599810.010 7  90857124.59545  22188204.094                    22188212.480
 109441915.658 8  85279484.267 7  20826100.008                    20826107.805
 106767653.337 8  83195665.706 8  20317182.711                    20317190.336
 114829442.926 7  89477551.70145  21851317.344                    21851325.734
 125396343.799 7  97711464.490 6  23862132.156                    23862141.957
 110992610.724 8  86487880.80846  21121173.461                    21121179.484
 11  8 22  1 28 30.0000000  0  8G25G04G10G12G05G30G29G02
 115242054.579 8  89799089.263 7  21929834.328                    21929845.227
 126398340.074 6  98492310.39743  24052787.977                    24052798.492
 116683182.954 7  90922090.51345  22204070.031                    22204078.379
 109463058.755 8  85295959.404 7  20830123.578                    20830131.363
 106750064.777 8  83181960.355 8  20313835.727                    20313843.723
 114795840.239 7  89451367.77545  21844922.984                    21844931.129
 125313687.642 7  97647057.123 6  23846403.148                    23846412.531
 111022838.739 8  86511435.10546  21126925.406                    21126931.473
 11  8 22  1 29  0.0000000  0  8G25G04G10G12G05G30G29G02
 115197963.689 8  89764732.734 7  21921444.117                    21921455.004
 126478412.312 7  98554704.33144  24068025.797                    24068035.203
 116766936.415 7  90987352.93045  22220007.617                    22220015.953
 109484771.571 8  85312878.468 7  20834255.172                    20834262.941
 106733053.351 8  83168704.709 8  20310598.578                    20310606.246
 114762825.471 7  89425641.97045  21838640.258                    21838648.602
 125230992.774 7  97582619.583 6  23830666.875                    23830676.387
 111053188.969 8  86535084.63846  21132700.891                    21132706.969
 11  8 22  1 29 30.0000000  0  8G25G04G10G12G05G30G29G02
 115154405.315 8  89730791.147 7  21913155.094                    21913165.992
 126558431.706 6  98617057.06943  24083252.898                    24083262.363
 116851067.442 7  91052909.54245  22236017.281                    22236025.664
 109507053.047 8  85330240.655 7  20838494.953                    20838503.211
 106716619.169 8  83155898.876 8  20307471.336                    20307478.918
 114730399.280 7  89400374.80645  21832469.883                    21832478.797
 125148259.598 7  97518152.188 6  23814923.469                    23814933.086
 111083660.154 8  86558828.41946  21138499.281                    21138505.129
 11  8 22  1 30  0.0000000  0  8G25G04G10G12G05G30G29G02
 115111380.786 8  89697265.547 7  21904967.789                    21904978.379
 126638397.775 6  98679368.22643  24098470.273                    24098479.676
 116935572.946 7  91118757.96445  22252097.922                    22252106.301
 109529902.811 8  85348045.652 7  20842843.500                    20842851.109
 106700761.954 8  83143542.625 8  20304453.875                    20304461.516
 114698562.477 7  89375566.91745  21826411.508                    21826419.930
 125065489.149 7  97453655.766 6  23799172.805                    23799182.047
 111114251.721 8  86582666.00246  21144320.773                    21144327.047
 11  8 22  1 30 30.0000000  0  8G25G04G10G12G05G30G29G02
 115068891.866 8  89664157.317 7  21896882.945                    21896892.902
 126718310.247 6  98741637.63943  24113676.953                    24113687.047
 117020450.471 7  91184896.25845  22268250.211                    22268258.355
 109553319.603 8  85366292.498 7  20847299.500                    20847307.215
 106685482.258 8  83131636.382 8  20301545.844                    20301553.957
 114667316.410 7  89351219.32845  21820465.438                    21820474.004
 124982682.734 7  97389131.337 6  23783414.711                    23783424.691
 111144963.013 8  86606596.88446  21150164.734                    21150170.945
 11  8 22  1 31  0.0000000  0  8G25G04G10G12G05G30G29G02
 115026940.020 8  89631467.558 7  21888899.461                    21888909.816
 126798168.777 6  98803865.02644  24128872.891                    24128883.965
 117105697.231 7  91251322.29345  22284471.719                    22284480.012
 109577302.593 8  85384980.532 7  20851863.672                    20851871.043
 106670780.145 8  83120180.209 8  20298748.109                    20298756.074
 114636661.768 8  89327332.61045  21814632.266                    21814640.719
 124899841.293 7  97324579.612 6  23767650.578                    23767659.590
 111175793.423 8  86630620.57846  21156031.898                    21156037.836
 11  8 22  1 31 30.0000000  0  8G25G04G10G12G05G30G29G02
 114985526.582 8  89599197.366 7  21881018.734                    21881029.184
 126877972.823 6  98866049.95543  24144059.891                    24144070.043
 117191310.155 7  91318033.63445  22300763.273                    22300771.836
 109601850.817 8  85404109.003 7  20856534.859                    20856542.527
 106656655.726 8  83109174.182 8  20296060.383                    20296068.281
 114606599.602 8  89303907.55745  21808911.273                    21808919.848
 124816966.098 7  97260001.569 6  23751879.852                    23751889.531
 111206742.177 8  86654736.50146  21161921.125                    21161927.242
 11  8 22  1 32  0.0000000  0  8G25G04G10G12G05G30G29G02
 114944652.893 8  89567347.759 7  21873240.906                    21873251.773
 126957721.866 7  98928192.06543  24159235.859                    24159245.719
 117277286.392 7  91385028.09245  22317123.539                    22317132.441
 109626963.162 8  85423677.056 7  20861313.586                    20861321.066
 106643108.740 8  83098618.101 8  20293482.406                    20293490.453
 114577130.457 7  89280944.60245  21803304.047                    21803312.242
 124734058.131 7  97195397.989 6  23736102.875                    23736113.309
 111237808.412 8  86678943.96646  21167832.648                    21167838.754
 11  8 22  1 32 30.0000000  0  8G25G04G10G12G05G30G29G02
 114904320.256 8  89535919.748 7  21865565.859                    21865576.414
 127037415.507 6  98990290.98843  24174401.203                    24174410.156
 117363623.465 7  91452303.72245  22333553.594                    22333561.992
 109652638.534 8  85443683.819 7  20866199.750                    20866207.121
 106630139.362 8  83088512.113 8  20291014.320                    20291022.566
 114548255.258 7  89258444.45845  21797808.844                    21797817.852
 124651118.400 7  97130769.660 6  23720319.930                    23720329.805
 111268991.217 8  86703242.25846  21173766.516                    21173772.813
 11  8 22  1 33  0.0000000  0  8G25G04G10G12G05G30G29G02
 114864529.932 8  89504914.322 7  21857994.039                    21858004.418
 127117053.399 6  99052346.44443  24189555.328                    24189565.398
 117450317.930 7  91519857.84244  22350050.891                    22350058.875
 109678875.809 8  85464128.441 7  20871192.242                    20871200.023
 106617747.483 8  83078856.115 8  20288656.266                    20288664.375
 114519974.606 7  89236407.60545  21792427.008                    21792435.691
 124568148.211 7  97066117.605 6  23704531.117                    23704540.500
 111300290.100 8  86727631.00446  21179722.828                    21179729.145
 11  8 22  1 33 30.0000000  0  8G25G04G10G12G05G30G29G02
 114825283.391 8  89474332.619 7  21850525.008                    21850536.262
 127196635.144 6  99114358.14343  24204699.391                    24204709.793
 117537366.834 7  91587688.12344  22366615.617                    22366623.852
 109705674.182 8  85485010.278 7  20876292.094                    20876299.250
 106605933.175 8  83069650.177 8  20286408.313                    20286416.051
 114492289.401 7  89214834.73045  21787159.242                    21787167.281
 124485148.372 7  97001442.445 6  23688736.914                    23688746.551
 111331704.337 8  86752109.62846  21185700.797                    21185706.809
 11  8 22  1 34  0.0000000  0  8G25G04G10G12G05G30G29G02
 114786581.542 8  89444175.345 7  21843160.750                    21843171.313
 127276159.908 6  99176325.42743  24219832.852                    24219842.820
 117624767.311 7  91655792.37544  22383247.375                    22383255.973
 109733032.574 8  85506328.489 7  20881498.008                    20881505.512
 106594695.942 8  83060893.899 8  20284269.914                    20284278.020
 114465200.080 7  89193726.17545  21782004.211                    21782011.910
 124402119.923 7  96936744.969 6  23672937.453                    23672946.625
 111363232.838 8  86776677.30146  21191700.289                    21191706.430
 11  8 22  1 34 30.0000000  0  8G25G04G10G12G05G30G29G02
 114748426.037 8  89414443.811 7  21835899.789                    21835910.836
 127355627.721 6  99238248.36043  24234954.922                    24234964.508
 117712516.539 7  91724168.37744  22399945.391                    22399954.121
 109760949.385 8  85528081.831 7  20886809.875                    20886817.789
 106584036.015 8  83052587.481 8  20282241.242                    20282248.992
 114438707.638 7  89173082.73945  21776962.547                    21776971.008
 124319064.266 7  96872026.311 6  23657132.148                    23657141.980
 111394875.138 8  86801333.63246  21197721.789                    21197727.898
 11  8 22  1 35  0.0000000  0  9G26G25G04G10G12G05G30G29G02
 130522342.38916                  24837585.563
 114710818.502 8  89385139.250 7  21828743.328                    21828754.367
 127435038.555 6  99300126.92843  24250066.102                    24250075.578
 117800612.284 7  91792814.39244  22416709.125                    22416717.852
 109789423.881 8  85550269.731 7  20892228.734                    20892236.449
 106573953.561 8  83044731.036 8  20280322.664                    20280330.547
 114412813.116 7  89152905.19445  21772035.266                    21772043.379
 124235983.082 7  96807287.747 6  23641322.477                    23641332.289
 111426631.353 8  86826078.73246  21203764.328                    21203770.242
 11  8 22  1 35 30.0000000  0  9G26G25G04G10G12G05G30G29G02
 130430636.595 6 101634352.54953  24820135.055                    24820146.617
 114673759.488 8  89356262.112 7  21821691.422                    21821702.492
 127514391.391 6  99361960.25342  24265166.125                    24265176.563
 117889051.039 7  91861727.69444  22433538.773                    22433546.586
 109818454.714 8  85572891.150 7  20897753.391                    20897761.125
 106564447.770 8  83037323.943 8  20278513.641                    20278521.617
 114387516.536 7  89133193.57745  21767221.391                    21767229.418
 124152876.721 7  96742529.565 6  23625507.734                    23625517.410
 111458499.782 8  86850911.28046  21209829.148                    21209835.215
 11  8 22  1 36  0.0000000  0  9G26G25G04G10G12G05G30G29G02
 130338793.504 6 101562786.61843  24802657.906                    24802668.867
 114637250.547 8  89327813.598 7  21814744.125                    21814754.898
 127593686.244 5  99423748.40043  24280255.180                    24280265.605
 117977830.040 7  91930906.11344  22450433.195                    22450441.051
 109848040.954 8  85595945.348 7  20903383.172                    20903390.813
 106555519.135 8  83030366.580 8  20276814.648                    20276822.559
 114362818.765 7  89113948.56045  21762521.086                    21762529.949
 124069746.649 7  96677752.922 6  23609688.984                    23609697.945
 111490480.275 7  86875831.13946  21215914.773                    21215920.504
 11  8 22  1 36 30.0000000  0  9G26G25G04G10G12G05G30G29G02
 130246815.610 5 101491115.68342  24785154.383                    24785165.383
 114601292.785 8  89299794.585 7  21807901.492                    21807912.195
 127672922.658 6  99485491.03242  24295333.984                    24295343.551
 118066946.574 7  92000347.55744  22467391.625                    22467399.367
 109878180.860 8  85619430.977 7  20909118.648                    20909126.488
 106547167.256 8  83023858.634 8  20275225.422                    20275233.316
 114338720.411 8  89095170.62845  21757935.750                    21757943.723
 123986594.079 7  96612958.765 6  23593865.398                    23593874.254
 111522571.815 8  86900837.54046  21222021.891                    21222027.293
 11  8 22  1 37  0.0000000  0  9G26G25G04G10G12G05G30G29G02
 130154705.843 5 101419341.99543  24767626.172                    24767637.641
 114565887.271 8  89272205.877 7  21801164.039                    21801174.848
 127752100.181 6  99547187.82643  24310400.031                    24310410.977
 118156397.704 7  92070049.71644  22484413.242                    22484422.469
 109908873.632 8  85643347.417 7  20914959.297                    20914967.141
 106539391.423 8  83017799.560 8  20273745.609                    20273753.660
 114315221.968 8  89076860.15445  21753464.078                    21753472.141
 123903420.175 7  96548147.968 6  23578038.313                    23578047.324
 111554773.828 8  86925930.00946  21228149.336                    21228155.625
 11  8 22  1 37 30.0000000  0  9G26G25G04G10G12G05G30G29G02
 130062466.977 5 101347467.76342  24750073.977                    24750085.020
 114531035.353 8  89245048.542 7  21794531.719                    21794542.406
 127831218.744 6  99608838.64943  24325456.492                    24325466.680
 118246180.498 7  92140010.31044  22501498.477                    22501506.934
 109940117.892 8  85667693.571 7  20920905.070                    20920912.785
 106532191.992 8  83012189.629 8  20272375.703                    20272383.336
 114292324.038 8  89059017.60345  21749107.063                    21749115.215
 123820226.356 7  96483321.659 6  23562207.133                    23562216.008
 111587085.810 8  86951108.18246  21234298.180                    21234304.426
 11  8 22  1 38  0.0000000  0  9G26G25G04G10G12G05G30G29G02
 129970102.072 5 101275495.26342  24732496.414                    24732508.438
 114496738.117 8  89218323.415 7  21788005.336                    21788015.402
 127910277.937 7  99670443.19044  24340501.375                    24340511.453
 118336292.272 7  92210227.25944  22518645.898                    22518654.355
 109971912.371 8  85692468.471 7  20926955.445                    20926963.582
 106525568.708 8  83007028.654 8  20271115.273                    20271123.066
 114270027.235 8  89041643.46345  21744863.555                    21744872.207
 123737013.579 7  96418480.580 6  23546370.984                    23546381.094
 111619507.039 8  86976371.48146  21240467.602                    21240473.750
 11  8 22  1 38 30.0000000  0  9G26G25G04G10G12G05G30G29G02
 129877613.781 5 101203426.66442  24714895.844                    24714909.004
 114462996.418 8  89192031.195 7  21781584.406                    21781594.965
 127989276.936 6  99732000.80043  24355534.383                    24355545.051
 118426729.661 7  92280697.92444  22535855.867                    22535864.457
 110004255.441 8  85717670.847 7  20933110.734                    20933117.684
 106519520.622 8  83002315.881 8  20269964.352                    20269972.215
 114248331.756 8  89024737.89545  21740735.273                    21740744.375
 123653783.001 7  96353625.616 6  23530533.211                    23530542.387
 111652036.799 8  87001719.34546  21246657.852                    21246664.020
 11  8 22  1 39  0.0000000  0  9G26G25G04G10G12G05G30G29G02
 129785004.90015 101131264.07152  24697273.117                    24697285.512
 114429811.516 8  89166172.830 7  21775269.508                    21775279.949
 128068215.979 6  99793511.73843  24370555.523                    24370565.418
 118517490.053 7  92351420.29544  22553127.273                    22553134.645
 110037146.100 8  85743299.919 7  20939368.711                    20939376.801
 106514047.864 8  82998051.404 8  20268922.836                    20268930.422
 114227238.194 8  89008301.34445  21736721.039                    21736730.168
 123570536.108 7  96288757.940 6  23514692.164                    23514701.031
 111684674.736 8  87027151.49746  21252868.781                    21252874.543
 11  8 22  1 39 30.0000000  0  9G26G25G04G10G12G05G30G29G02
 129692278.47615 101059009.91052  24679627.664                    24679640.250
 114397184.578 8  89140749.223 7  21769061.047                    21769071.410
 128147094.809 6  99854975.76043  24385565.734                    24385575.535
 118608570.548 6  92422392.08344  22570459.102                    22570467.898
 110070583.254 8  85769354.831 7  20945731.797                    20945739.461
 106509150.211 8  82994235.073 8  20267990.969                    20267998.863
 114206747.147 8  88992334.28345  21732822.016                    21732830.555
 123487274.399 7  96223878.735 6  23498848.031                    23498857.211
 111717420.180 8  87052667.42746  21259099.945                    21259106.270
 11  8 22  1 40  0.0000000  0  9G26G25G04G10G12G05G30G29G02
 129599437.61215 100986666.54852  24661960.727                    24661974.043
 114365116.576 8  89115761.173 7  21762958.555                    21762969.285
 128225912.959 7  99916392.48743  24400563.789                    24400574.676
 118699968.267 7  92493611.06144  22587851.227                    22587860.125
 110104564.951 8  85795834.063 7  20952198.328                    20952205.879
 106504827.270 8  82990866.570 8  20267168.484                    20267176.063
 114186859.013 8  88976837.01745  21729037.164                    21729046.520
 123403998.562 7  96158988.547 6  23483001.156                    23483009.910
 111750272.499 8  87078266.62746  21265351.672                    21265357.199
 11  8 22  1 40 30.0000000  0  9G26G25G04G10G12G05G30G29G02
 129506484.77815 100914236.01452  24644272.023                    24644284.898
 114333608.585 8  89091209.496 7  21756962.492                    21756973.391
 128304670.388 7  99977761.87643  24415551.930                    24415561.805
 118791680.431 6  92565075.05944  22605303.039                    22605312.238
 110139089.965 8  85822736.650 7  20958768.203                    20958775.906
 106501078.708 8  82987945.637 8  20266454.977                    20266462.441
 114167574.196 8  88961809.87845  21725367.742                    21725376.883
 123320710.249 7  96094088.605 6  23467151.211                    23467160.047
 111783231.107 8  87103948.65446  21271623.305                    21271629.371
 11  8 22  1 41  0.0000000  0  9G26G25G04G10G12G05G30G29G02
 129413423.510 5 100841720.89042  24626565.172                    24626575.863
 114302661.539 8  89067094.900 7  21751073.391                    21751084.488
 128383366.553 7 100039083.56143  24430527.648                    24430537.770
 118883704.017 6  92636781.69444  22622814.742                    22622824.238
 110174156.944 8  85850061.560 7  20965441.148                    20965449.027
 106497904.020 8  82985471.866 8  20265850.914                    20265858.711
 114148892.961 8  88947253.06945  21721812.984                    21721821.980
 123237410.971 7  96029180.104 6  23451300.180                    23451308.477
 111816295.402 7  87129713.03146  21277915.344                    21277921.293
 11  8 22  1 41 30.0000000  0  9G26G25G04G10G12G05G30G29G02
 129320255.767 5 100769122.79142  24608833.789                    24608845.934
 114272276.012 8  89043417.854 7  21745291.867                    21745302.496
 128462001.012 7 100100357.18843  24445491.625                    24445501.004
 118976035.772 6  92708728.49344  22640385.211                    22640394.199
 110209763.961 8  85877807.278 7  20972216.719                    20972224.758
 106495302.169 8  82983444.466 8  20265355.641                    20265363.555
 114130815.255 8  88933166.53146  21718373.008                    21718381.723
 123154101.216 7  95964263.452 6  23435446.844                    23435455.832
 111849464.578 7  87155559.13646  21284227.086                    21284233.254
 11  8 22  1 42  0.0000000  0  9G26G25G04G10G12G05G30G29G02
 129226985.099 5 100696444.59142  24591084.719                    24591097.008
 114242453.162 8  89020179.268 7  21739616.430                    21739627.379
 128540573.735 7 100161582.67243  24460442.664                    24460453.211
 119068672.963 6  92780913.28344  22658013.602                    22658022.871
 110245910.005 8  85905973.006 7  20979095.359                    20979103.109
 106493273.261 8  82981863.520 8  20264969.648                    20264977.082
 114113341.678 8  88919550.74346  21715047.586                    21715056.344
 123070782.505 7  95899339.795 6  23419592.195                    23419600.355
 111882738.079 7  87181486.52646  21290559.242                    21290565.316
 11  8 22  1 42 30.0000000  0  9G26G25G04G10G12G05G30G29G02
 129133614.557 5 100623688.52142  24573316.992                    24573329.023
 114213194.164 8  88997380.036 7  21734048.844                    21734059.781
 128619084.487 6 100222759.91943  24475382.516                    24475393.172
 119161613.047 7  92853334.07844  22675699.422                    22675708.105
 110282593.613 8  85934557.622 7  20986076.367                    20986084.090
 106491816.734 8  82980728.576 8  20264692.555                    20264699.676
 114096472.665 8  88906406.05645  21711837.734                    21711845.910
 122987456.573 7  95834410.535 6  23403735.414                    23403744.594
 111916115.638 7  87207495.00246  21296910.680                    21296917.086
 11  8 22  1 43  0.0000000  0  9G26G25G04G10G12G05G30G29G02
 129040146.769 6 100550856.61242  24555530.766                    24555542.207
 114184499.709 8  88975020.712 7  21728588.320                    21728599.105
 128697533.094 6 100283888.70243  24490309.938                    24490321.281
 119254853.125 7  92925988.65744  22693442.484                    22693451.258
 110319812.812 8  85963559.577 7  20993158.547                    20993166.813
 106490932.201 8  82980039.342 8  20264524.039                    20264531.547
 114080208.348 8  88893732.54845  21708742.672                    21708750.879
 122904124.543 7  95769476.546 6  23387877.656                    23387887.359
 111949596.373 7  87233583.88146  21303281.672                    21303287.586
 11  8 22  1 43 30.0000000  0  9G26G25G04G10G12G05G30G29G02
 128946584.804 6 100477951.39742  24537726.242                    24537737.949
 114156370.514 8  88953101.858 7  21723235.680                    21723246.117
 128775918.995 6 100344968.60743  24505227.500                    24505237.652
 119348389.997 7  92998874.50144  22711242.430                    22711250.547
 110357566.232 8  85992977.803 7  21000342.414                    21000350.805
 106490618.704 8  82979795.078 8  20264464.234                    20264472.016
 114064548.677 8  88881530.20046  21705762.563                    21705771.449
 122820787.616 7  95704538.719 6  23372018.773                    23372028.535
 111983179.888 7  87259752.85246  21309672.578                    21309678.539
 11  8 22  1 44  0.0000000  0  9G26G25G04G10G12G05G30G29G02
 128852931.592 5 100404974.96643  24519905.398                    24519916.344
 114128807.387 8  88931624.095 7  21717990.391                    21718001.246
 128854241.974 6 100405999.47143  24520131.641                    24520141.484
 119442220.418 7  93071989.09044  22729097.891                    22729105.582
 110395852.296 8  86022811.080 7  21007628.555                    21007636.367
 106490875.706 8  82979995.355 8  20264513.359                    20264521.031
 114049493.890 8  88869799.17745  21702897.602                    21702906.398
 122737447.100 6  95639598.081 6  23356160.109                    23356169.324
 112016865.172 7  87286001.12146  21316082.375                    21316088.523
 11  8 22  1 44 30.0000000  0  9G26G25G04G10G12G05G30G29G02
 128759190.183 6 100331929.92142  24502066.547                    24502077.293
 114101811.217 8  88910588.111 7  21712853.383                    21712863.871
 128932501.988 6 100466981.25043  24535024.633                    24535034.719
 119536341.691 7  93145330.32744  22747008.508                    22747017.371
 110434669.522 8  86053058.254 7  21015014.977                    21015022.820
 106491702.979 8  82980639.994 8  20264670.445                    20264678.445
 114035044.256 8  88858539.70945  21700148.367                    21700156.469
 122654104.511 6  95574655.834 6  23340300.719                    23340310.004
 112050651.959 8  87312328.48146  21322512.102                    21322518.184
 11  8 22  1 45  0.0000000  0  9G26G25G04G10G12G05G30G29G02
 128665363.547 6 100258818.39742  24484211.672                    24484223.262
 114075382.980 8  88889994.679 7  21707824.117                    21707834.652
 129010698.660 6 100527913.70643  24549905.266                    24549915.227
 119630751.098 7  93218896.06144  22764974.203                    22764982.984
 110474016.269 8  86083718.030 7  21022502.781                    21022510.289
 106493099.574 8  82981728.269 8  20264936.539                    20264944.105
 114021200.051 8  88847752.01145  21697513.891                    21697522.270
 122570761.304 7  95509713.096 6  23324440.430                    23324449.797
 112084540.300 8  87338734.97146  21328960.242                    21328966.555
 11  8 22  1 45 30.0000000  0  9G26G25G04G10G12G05G30G29G02
 128571454.547 6 100185642.74943  24466341.734                    24466352.836
 114049523.016 8  88869844.050 7  21702902.875                    21702913.836
 129088831.860 6 100588796.69743  24564772.945                    24564783.910
 119725445.723 7  93292684.06344  22782993.727                    22783002.086
 110513890.566 8  86114788.898 7  21030090.250                    21030097.926
 106495064.662 8  82983259.523 8  20265310.438                    20265318.262
 114007960.898 8  88837435.77545  21694994.250                    21695002.840
 122487418.538 7  95444770.702 6  23308581.273                    23308590.613
 112118528.847 8  87365219.53446  21335428.242                    21335434.766
 11  8 22  1 46  0.0000000  0  9G26G25G04G10G12G05G30G29G02
 128477466.474 6 100112405.39443  24448455.805                    24448466.723
 114024232.375 8  88850137.062 7  21698090.609                    21698101.090
 129166901.420 6 100649630.16643  24579628.688                    24579640.035
 119820422.857 6  93366692.19044  22801066.898                    22801075.977
 110554291.250 8  86146269.938 7  21037778.875                    21037786.430
 106497598.002 8  82985233.562 8  20265792.297                    20265800.449
 113995327.265 8  88827591.37645  21692590.602                    21692599.090
 122404077.678 7  95379829.770 6  23292722.039                    23292731.797
 112152617.206 7  87391781.87746  21341915.109                    21341921.289
 11  8 22  1 46 30.0000000  0  9G26G25G04G10G12G05G30G29G02
 128383402.255 6 100039108.73242  24430556.617                    24430566.730
 113999511.664 8  88830874.156 7  21693386.359                    21693396.895
 129244907.137 6 100710413.85442  24594472.383                    24594482.707
 119915679.264 7  93440917.93044  22819194.352                    22819202.859
 110595216.103 8  86178159.423 7  21045566.313                    21045573.984
 106500698.715 8  82987649.713 8  20266382.656                    20266390.145
 113983298.954 8  88818218.66345  21690301.438                    21690310.035
 122320740.071 7  95314891.385 7  23276863.430                    23276873.313
 112186804.695 7  87418421.47346  21348420.844                    21348427.262
 11  8 22  1 47  0.0000000  0  9G26G25G04G10G12G05G30G29G02
 128289264.779 6  99965755.03343  24412642.070                    24412652.750
 113975361.654 8  88812055.966 7  21688790.781                    21688801.258
 129322848.879 6 100771147.66842  24609304.516                    24609315.066
 120011212.400 6  93515359.31844  22837372.758                    22837381.949
 110636663.868 8  86210456.357 7  21053453.305                    21053461.363
 106504366.003 8  82990507.357 8  20267080.500                    20267087.918
 113971876.196 8  88809317.80645  21688127.695                    21688136.035
 122237407.561 6  95249956.957 7  23261005.906                    23261015.637
 112221091.545 7  87445138.50146  21354945.461                    21354951.320
 11  8 22  1 47 30.0000000  0  9G26G25G04G10G12G05G30G29G02
 128195057.603 6  99892346.99943  24394714.039                    24394725.652
 113951783.201 8  88793683.144 7  21684303.859                    21684314.422
 129400726.679 6 100831831.58442  24624123.813                    24624134.262
 120107019.521 6  93590014.17944  22855604.570                    22855613.473
 110678632.547 8  86243159.199 7  21061439.961                    21061447.914
 106508599.727 8  82993806.374 8  20267886.000                    20267893.676
 113961059.102 8  88800888.90046  21686069.305                    21686077.563
 122154081.309 7  95185027.434 6  23245149.094                    23245158.680
 112255477.034 7  87471932.39246  21361489.023                    21361494.773
 11  8 22  1 48  0.0000000  0  9G26G25G04G10G12G05G30G29G02
 128100783.677 6  99818886.88743  24376774.922                    24376785.961
 113928776.934 7  88775756.198 7  21679925.789                    21679936.004
 129478540.247 6 100892465.55742  24638931.375                    24638942.711
 120203097.546 6  93664880.15044  22873887.773                    22873897.141
 110721120.760 8  86276266.883 7  21069525.500                    21069532.930
 106513398.964 8  82997546.040 8  20268799.367                    20268807.039
 113950847.643 8  88792931.92245  21684125.984                    21684134.941
 122070762.993 7  95120104.050 6  23229294.555                    23229303.082
 112289960.896 8  87498802.94746  21368051.164                    21368057.246
 11  8 22  1 48 30.0000000  0  9G26G25G04G10G12G05G30G29G02
 128006446.105 6  99745377.19843  24358823.055                    24358833.738
 113906343.293 8  88758275.442 7  21675657.188                    21675667.500
 129556289.325 6 100953049.24842  24653726.195                    24653737.355
 120299443.307 7  93739954.72844  22892222.359                    22892231.246
 110764126.612 8  86309777.919 7  21077708.922                    21077716.828
 106518762.731 8  83001725.611 8  20269820.203                    20269827.527
 113941241.607 8  88785446.69646  21682298.070                    21682306.516
 121987453.645 6  95055187.658 6  23213440.898                    23213449.844
 112324542.462 8  87525749.62746  21374631.188                    21374637.629
 11  8 22  1 49  0.0000000  0  9G26G25G04G10G12G05G30G29G02
 127912047.617 6  99671820.08643  24340859.578                    24340870.348
 113884482.807 8  88741241.305 7  21671496.992                    21671507.590
 129633973.773 6 101013582.62143  24668509.789                    24668520.199
 120396053.849 7  93815235.63644  22910606.227                    22910615.684
 110807648.135 8  86343690.773 7  21085990.563                    21085999.008
 106524690.022 8  83006344.297 8  20270948.000                    20270955.992
 113932240.828 8  88778433.10345  21680585.344                    21680593.797
 121904155.003 6  94990279.640 6  23197590.195                    23197599.430
 112359220.851 8  87552771.75946  21381230.445                    21381236.664
 11  8 22  1 49 30.0000000  0  8G26G25G10G12G05G30G29G02
 127817591.886 6  99598218.31343  24322884.891                    24322895.555
 113863196.660 8  88724654.700 7  21667446.266                    21667456.883
 120492927.165 7  93890721.32044  22929040.094                    22929049.789
 110851684.008 8  86378004.408 7  21094370.461                    21094378.617
 106531180.610 8  83011401.904 8  20272182.914                    20272190.883
 113923845.711 8  88771891.46145  21678987.586                    21678996.688
 121820868.907 7  94925381.374 6  23181740.930                    23181750.477
 112393996.269 7  87579869.50046  21387848.234                    21387854.496
 11  8 22  1 50  0.0000000  0  8G26G25G10G12G05G30G29G02
 127723081.803 6  99524574.23242  24304900.344                    24304910.711
 113842484.807 8  88708515.605 7  21663504.977                    21663515.527
 120590059.830 7  93966409.06144  22947523.781                    22947533.832
 110896232.563 8  86412717.549 7  21102847.914                    21102856.055
 106538233.398 8  83016897.589 8  20273525.094                    20273532.629
 113916055.547 8  88765821.20945  21677505.617                    21677514.039
 121737596.217 6  94860493.587 6  23165894.703                    23165904.004
 112428867.858 7  87607042.16846  21394484.250                    21394490.270
 11  8 22  1 50 30.0000000  0  8G26G25G10G12G05G30G29G02
 127628520.088 6  99450889.87942  24286905.180                    24286916.234
 113822347.512 8  88692824.217 7  21659672.969                    21659683.703
 120687448.544 7  94042296.34244  22966056.984                    22966066.027
 110941290.499 8  86447827.610 7  21111422.039                    21111430.145
 106545846.731 8  83022830.056 8  20274974.133                    20274981.516
 113908870.004 8  88760222.09445  21676138.094                    21676146.922
 121654338.284 7  94795617.277 6  23150051.406                    23150060.063
 112463834.853 7  87634289.19446  21401137.953                    21401144.090
 11  8 22  1 51  0.0000000  0  8G26G25G10G12G05G30G29G02
 127533910.232 6  99377168.03643  24268901.148                    24268912.555
 113802785.736 8  88677581.283 7  21655950.695                    21655960.938
 120785090.861 7  94118381.20144  22984637.828                    22984646.566
 110986856.793 8  86483333.788 7  21120092.891                    21120101.148
 106554020.567 8  83029199.289 8  20276529.258                    20276537.180
 113902289.260 7  88755094.24045  21674885.492                    21674894.031
 121571097.014 6  94730753.982 6  23134211.273                    23134219.762
 112498897.301 8  87661610.58946  21407810.258                    21407816.207
 11  8 22  1 51 30.0000000  0  8G26G25G10G12G05G30G29G02
 127439255.198 6  99303410.99643  24250890.164                    24250900.449
 113783799.562 8  88662786.871 7  21652337.547                    21652347.766
 120882983.588 7  94194661.22144  23003266.523                    23003275.012
 111032929.377 8  86519234.482 7  21128860.414                    21128868.445
 106562753.496 8  83036004.175 8  20278191.313                    20278198.754
 113896312.745 8  88750437.22245  21673748.242                    21673756.992
 121487873.523 7  94665904.517 6  23118374.055                    23118382.551
 112534054.487 8  87689005.81646  21414499.953                    21414506.336
 11  8 22  1 52  0.0000000  0  8G26G25G10G12G05G30G29G02
 127344558.160 6  99229621.19943  24232869.133                    24232880.020
 113765389.530 8  88648441.392 7  21648834.367                    21648845.344
 120981123.905 7  94271134.17444  23021942.172                    23021950.328
 111079506.450 8  86555528.278 7  21137723.656                    21137731.629
 106572044.977 8  83043244.293 8  20279959.305                    20279966.891
 113890940.262 8  88746250.88046  21672726.211                    21672734.973
 121404669.510 7  94601070.231 6  23102540.477                    23102549.977
 112569305.873 8  87716474.44746  21421208.563                    21421214.477
 11  8 22  1 52 30.0000000  0  8G26G25G10G12G05G30G29G02
 127249822.056 6  99155801.00043  24214841.219                    24214852.852
 113747555.828 8  88634545.001 7  21645440.602                    21645451.273
 121079508.843 6  94347797.70944  23040663.063                    23040672.234
 111126585.867 8  86592213.530 7  21146683.031                    21146690.539
 106581893.206 8  83050918.248 8  20281833.477                    20281840.910
 113886171.365 8  88742534.85745  21671818.609                    21671827.418
 121321486.321 7  94536252.232 6  23086711.297                    23086721.254
 112604651.028 8  87744016.12446  21427934.578                    21427940.328
 11  8 22  1 53  0.0000000  0  8G26G25G10G12G05G30G29G02
 127155050.497 6  99081953.18443  24196806.930                    24196817.969
 113730299.357 8  88621098.419 7  21642156.875                    21642167.566
 121178136.109 6  94424650.08943  23059431.969                    23059440.703
 111174166.341 8  86629289.215 7  21155737.133                    21155744.629
 106592298.349 8  83059026.163 8  20283813.141                    20283820.879
 113882006.160 8  88739289.23845  21671025.789                    21671034.566
 121238325.807 7  94471451.881 6  23070886.789                    23070895.832
 112640090.074 8  87771630.97646  21434678.609                    21434684.023
 11  8 22  1 53 30.0000000  0  8G26G25G10G12G05G30G29G02
 127060246.342 6  99008079.90643  24178766.563                    24178776.430
 113713620.055 8  88608101.558 7  21638983.086                    21638993.574
 121277002.350 6  94501688.68743  23078245.406                    23078253.977
 111222245.460 8  86666753.445 7  21164886.016                    21164893.746
 106603258.611 8  83067566.632 8  20285899.055                    20285906.512
 113878443.899 8  88736513.44145  21670348.156                    21670356.949
 121155189.242 7  94406670.167 6  23055066.328                    23055075.352
 112675622.231 8  87799318.37146  21441439.523                    21441445.660
 11  8 22  1 54  0.0000000  0  8G26G25G10G12G05G30G29G02
 126965412.728 7  98934183.67843  24160720.008                    24160730.395
 113697518.197 8  88595554.654 7  21635918.578                    21635929.305
 121376104.627 6  94578911.20843  23097104.289                    23097112.180
 111270820.606 8  86704604.190 7  21174129.695                    21174137.480
 106614772.852 8  83076538.768 8  20288090.156                    20288097.746
 113875484.149 8  88734207.15146  21669784.891                    21669793.879
 121072078.053 7  94341908.240 6  23039250.945                    23039259.930
 112711246.666 8  87827077.67446  21448218.547                    21448224.895
 11  8 22  1 54 30.0000000  0  8G26G25G10G12G05G30G29G02
 126870553.014 6  98860267.13943  24142669.453                    24142679.484
 113681994.169 8  88583458.014 7  21632964.602                    21632975.270
 121475440.108 6  94656315.45143  23116006.398                    23116014.848
 111319890.212 8  86742840.230 7  21183467.484                    21183475.293
 106626840.130 8  83085941.848 8  20290386.547                    20290393.770
 113873126.612 7  88732370.10145  21669335.859                    21669344.855
 120988993.872 7  94277167.395 6  23023439.938                    23023449.102
 112746963.330 8  87854908.84846  21455015.523                    21455021.566
 11  8 22  1 55  0.0000000  0  8G26G25G10G12G05G30G29G02
 126775670.536 6  98786332.87943  24124612.938                    24124623.566
 113667048.435 8  88571811.997 7  21630120.602                    21630130.969
 121575006.158 6  94733899.35543  23134953.859                    23134961.727
 111369452.546 8  86781460.211 7  21192898.984                    21192906.668
 106639459.770 8  83095775.339 8  20292787.805                    20292795.430
 113871370.989 7  88731002.08745  21669002.609                    21669010.867
 120905938.445 7  94212448.943 6  23007634.930                    23007644.496
 112782772.013 8  87882811.72446  21461829.602                    21461835.508
 11  8 22  1 55 30.0000000  0  8G26G25G10G12G05G30G29G02
 126680768.450 7  98712383.32743  24106554.219                    24106563.953
 113652681.250 8  88560616.787 7  21627386.680                    21627396.828
 121674800.063 6  94811660.78743  23153943.531                    23153952.320
 111419505.345 8  86820462.382 7  21202423.609                    21202431.547
 106652630.478 8  83106038.227 8  20295293.813                    20295301.797
 113870216.846 8  88730102.74346  21668782.438                    21668791.273
 120822913.280 7  94147754.069 6  22991835.992                    22991844.734
 112818672.304 8  87910785.98546  21468661.258                    21468666.930
 11  8 22  1 56  0.0000000  0  8G26G25G10G12G05G30G29G02
 126585849.983 7  98638421.03843  24088491.492                    24088501.664
 113638892.771 8  88549872.505 7  21624762.836                    21624773.375
 121774818.559 7  94889597.26444  23172976.492                    23172984.758
 111470046.877 8  86859845.367 7  21212041.352                    21212049.543
 106666351.157 8  83116729.672 8  20297904.922                    20297912.785
 113869663.606 8  88729671.65246  21668677.523                    21668685.809
 120739920.047 7  94083084.054 6  22976042.820                    22976051.516
 112854663.669 8  87938831.20446  21475510.477                    21475515.988
 11  8 22  1 56 30.0000000  0  8G26G25G10G12G05G30G29G02
 126490918.392 6  98564448.45143  24070426.555                    24070436.180
 113625683.117 8  88539579.270 7  21622248.820                    21622259.613
 121875058.815 7  94967706.53444  23192051.578                    23192060.453
 111521074.623 8  86899607.238 7  21221751.820                    21221759.918
 106680620.389 8  83127848.553 8  20300620.570                    20300627.918
 113869710.639 8  88729708.29545  21668686.289                    21668694.363
 120656960.256 7  94018440.127 6  22960256.195                    22960265.113
 112890745.622 8  87966947.01046  21482376.281                    21482381.867
 11  8 22  1 57  0.0000000  0  8G26G25G10G12G05G30G29G02
 126395976.971 6  98490468.22443  24052359.695                    24052368.820
 113613052.821 8  88529737.475 7  21619845.281                    21619856.406
 121975518.479 7  95045986.74644  23211168.711                    23211177.715
 111572586.717 8  86939746.513 7  21231553.914                    21231561.988
 106695437.700 8  83139394.516 8  20303440.039                    20303447.746
 113870357.829 8  88730212.60745  21668809.414                    21668817.613
 120574035.751 7  93953823.678 6  22944476.055                    22944485.027
 112926918.331 8  87995133.53546  21489260.070                    21489265.379
 11  8 22  1 57 30.0000000  0  8G26G25G10G12G05G30G29G02
 126301029.222 6  98416483.08143  24034291.750                    24034300.883
 113601001.595 8  88520346.902 7  21617552.148                    21617562.910
 122076194.299 7  95124435.39844  23230326.555                    23230336.180
 111624580.657 8  86980261.260 7  21241448.180                    21241456.289
 106710801.291 8  83151366.140 8  20306363.563                    20306371.313
 113871604.082 8  88731183.71245  21669046.227                    21669055.164
 120491147.671 7  93889235.623 6  22928702.594                    22928712.086
 112963181.062 8  88023390.20646  21496160.266                    21496166.125
 11  8 22  1 58  0.0000000  0  8G26G25G10G12G05G30G29G02
 126206078.132 6  98342495.32543  24016222.461                    24016232.773
 113589529.974 8  88511407.978 7  21615369.398                    21615380.129
 122177084.023 7  95203050.75544  23249526.008                    23249535.109
 111677054.990 8  87021150.339 7  21251433.992                    21251441.711
 106726710.400 8  83163762.850 8  20309390.633                    20309398.488
 113873449.238 7  88732621.47945  21669397.867                    21669406.156
 120408298.007 7  93824677.484 6  22912936.516                    22912945.484
 112999533.932 8  88051717.11446  21503077.672                    21503084.086
 11  8 22  1 58 30.0000000  0  8G26G25G10G12G05G30G29G02
 126111126.912 6  98268507.48643  23998154.242                    23998164.266
 113578637.809 8  88502920.591 7  21613296.578                    21613306.840
 122278184.115 7  95281830.01944  23268764.461                    23268773.949
 111730007.130 8  87062411.735 7  21261509.836                    21261518.109
 106743163.381 8  83176583.365 8  20312521.969                    20312529.625
 113875892.447 8  88734525.27546  21669862.750                    21669871.207
 120325488.616 7  93760150.722 6  22897178.711                    22897187.965
 113035976.410 8  88080113.84646  21510012.578                    21510018.746
 11  8 22  1 59  0.0000000  0  8G26G25G10G12G05G30G29G02
 126016178.929 6  98194522.18643  23980085.703                    23980095.953
 113568325.239 8  88494884.813 7  21611334.422                    21611344.875
 122379492.032 7  95360771.20444  23288042.820                    23288052.199
 111783434.803 8  87104043.676 7  21271677.414                    21271685.129
 106760159.038 8  83189826.738 8  20315756.086                    20315763.898
 113878933.021 8  88736894.55146  21670440.852                    21670450.137
 120242720.807 7  93695656.375 6  22881428.570                    22881437.609
 113072507.992 8  88108580.00846  21516964.563                    21516970.695
 11  8 22  1 59 30.0000000  0  8G26G25G10G12G05G30G29G02
 125921237.413 6  98120541.91243  23962018.891                    23962029.504
 113558591.971 8  88487300.438 7  21609482.461                    21609492.469
 122481004.922 7  95439872.12944  23307360.203                    23307369.090
 111837335.688 8  87146044.340 7  21281934.023                    21281942.016
 106777695.925 8  83203491.852 8  20319093.211                    20319101.250
 113882570.121 8  88739728.64346  21671133.414                    21671142.297
 120159996.096 7  93631195.566 6  22865686.797                    22865695.363
 113109127.962 8  88137115.05245  21523933.141                    21523938.934
 11  8 22  2  0  0.0000000  0  8G26G25G10G12G05G30G29G02
 125826305.855 6  98046569.39143  23943954.094                    23943964.297
 113549438.563 8  88480167.916 7  21607740.367                    21607750.629
 122582720.016 7  95519130.61243  23326714.672                    23326724.715
 111891707.892 8  87188412.280 7  21292280.672                    21292288.516
 106795773.354 8  83217578.161 8  20322533.250                    20322540.699
 113886803.412 8  88743027.31346  21671938.914                    21671947.605
 120077316.698 7  93566770.102 6  22849953.906                    22849962.320
 113145836.860 8  88165719.38746  21530918.258                    21530924.477
 11  8 22  2  0 30.0000000  0  8G26G25G10G12G05G30G29G02
 125731387.523 6  97972607.16143  23925891.477                    23925901.793
 113540864.686 8  88473486.974 7  21606108.703                    21606119.328
 122684634.447 7  95598544.42543  23346109.172                    23346118.418
 111946549.026 8  87231145.609 7  21302716.547                    21302725.152
 106814389.547 8  83232084.295 8  20326075.711                    20326083.559
 113891631.877 8  88746789.74645  21672857.648                    21672866.539
 119994683.773 7  93502380.816 6  22834228.883                    22834237.547
 113182633.939 8  88194392.43646  21537921.070                    21537927.172
 11  8 22  2  1  0.0000000  0  8G26G25G10G12G05G30G29G02
 125636485.598 6  97898657.72944  23907832.195                    23907842.539
 113532870.127 8  88467257.452 7  21604587.289                    21604597.863
 122786745.258 7  95678111.24343  23365540.422                    23365549.777
 112001856.858 8  87274242.605 7  21313241.281                    21313249.840
 106833542.975 8  83247009.057 8  20329720.344                    20329728.305
 113897054.641 7  88751015.27245  21673889.547                    21673898.570
 119912099.078 7  93438029.121 7  22818513.430                    22818522.363
 113219518.582 8  88223133.72246  21544939.859                    21544945.941
 11  8 22  2  1 30.0000000  0  8G26G25G10G12G05G30G29G02
 125541603.559 7  97824723.76944  23889776.609                    23889787.090
 113525455.338 8  88461479.703 7  21603176.453                    21603187.223
 122889050.102 7  95757829.26643  23385008.773                    23385017.348
 112057629.328 7  87317701.648 7  21323854.375                    21323862.621
 106853232.953 8  83262351.911 8  20333467.383                    20333475.547
 113903071.257 8  88755703.53245  21675034.461                    21675042.922
 119829564.537 7  93373716.530 7  22802807.398                    22802816.758
 113256491.226 8  88251943.57746  21551975.227                    21551981.074
 11  8 22  2  2  0.0000000  0  8G26G25G10G12G05G30G29G02
 125446744.743 6  97750807.90644  23871726.000                    23871735.910
 113518619.910 8  88456153.403 7  21601875.602                    21601885.512
 122991545.824 7  95837696.06743  23404512.547                    23404520.461
 112113863.722 7  87361520.637 7  21334555.664                    21334564.375
 106873457.771 8  83278111.519 8  20337315.969                    20337323.559
 113909680.768 8  88760853.79545  21676292.445                    21676301.074
 119747081.723 7  93309444.216 7  22787111.664                    22787121.035
 113293551.261 8  88280821.52445  21559027.648                    21559033.836
 11  8 22  2  2 30.0000000  0  8G26G25G10G12G05G30G29G02
 125351912.345 6  97676912.62344  23853679.992                    23853689.715
 113512363.496 8  88451278.280 7  21600684.813                    21600695.250
 123094229.640 7  95917709.42243  23424053.617                    23424060.539
 112170557.715 8  87405697.744 7  21345344.477                    21345352.230
 106894215.686 8  83294286.521 8  20341265.891                    20341273.895
 113916881.945 8  88766465.09446  21677662.578                    21677670.781
 119664652.180 7  93245213.430 7  22771426.078                    22771435.160
 113330698.396 8  88309767.35545  21566096.477                    21566102.723
 11  8 22  2  3  0.0000000  0  8G26G25G10G12G05G30G29G02
 125257109.755 6  97603040.55543  23835639.242                    23835649.824
 113506686.121 8  88446854.343 7  21599604.500                    21599615.203
 123197098.690 7  95997867.06643  23443627.695                    23443636.410
 112227709.467 8  87450231.559 7  21356220.039                    21356227.840
 106915505.429 8  83310875.941 8  20345317.070                    20345325.191
 113924674.154 8  88772536.93846  21679146.281                    21679154.242
 119582277.687 7  93181025.551 7  22755750.633                    22755759.926
 113367932.124 8  88338780.66046  21573181.781                    21573188.309
 11  8 22  2  3 30.0000000  0  8G26G25G10G12G05G30G29G02
 125162340.767 6  97529194.66944  23817604.719                    23817614.879
 113501588.218 8  88442881.957 7  21598634.438                    21598645.152
 123300150.532 7  96078167.18843  23463238.422                    23463246.973
 112285316.721 8  87495120.311 7  21367182.180                    21367190.371
 106937326.368 8  83327879.278 8  20349469.734                    20349477.371
 113933057.058 8  88779069.05746  21680740.875                    21680749.375
 119499960.433 7  93116882.276 7  22740086.367                    22740095.359
 113405252.712 8  88367861.64745  21580283.789                    21580290.086
 11  8 22  2  4  0.0000000  0  8G26G25G10G12G05G30G29G02
 125067608.303 6  97455377.22244  23799578.031                    23799588.020
 113497068.806 8  88439360.338 7  21597774.594                    21597785.105
 123403382.150 7  96158607.38843  23482882.625                    23482891.449
 112343376.791 7  87540361.908 7  21378230.594                    21378238.805
 106959676.116 8  83345294.670 8  20353722.391                    20353730.660
 113942028.950 8  88786060.13945  21682448.227                    21682456.809
 119417701.694 7  93052784.592 7  22724432.445                    22724441.730
 113442659.418 8  88397009.73245  21587402.203                    21587408.383
 11  8 22  2  4 30.0000000  0  8G26G25G10G12G05G30G29G02
 124972915.810 6  97381590.90843  23781558.328                    23781568.293
 113493127.720 8  88436289.361 7  21597024.656                    21597034.988
 123506790.694 6  96239185.45443  23502560.102                    23502568.918
 112401886.769 7  87585954.085 7  21389365.055                    21389372.324
 106982553.140 8  83363120.932 8  20358075.656                    20358083.984
 113951588.922 7  88793509.47045  21684267.031                    21684275.348
 119335503.103 7  92988733.793 7  22708790.477                    22708800.191
 113480152.028 8  88426224.75546  21594536.570                    21594542.969
 11  8 22  2  5  0.0000000  0  8G26G25G10G12G05G30G29G02
 124878266.899 6  97307838.57843  23763547.875                    23763557.543
 113489765.085 8  88433669.112 7  21596384.727                    21596395.324
 123610373.728 6  96319899.44243  23522272.156                    23522280.063
 112460844.828 7  87631895.401 7  21400583.891                    21400592.121
 107005956.543 8  83381357.359 8  20362529.570                    20362537.313
 113961736.356 8  88801416.56145  21686198.086                    21686206.945
 119253366.853 7  92924731.564 7  22693160.344                    22693169.207
 113517730.621 8  88455506.76446  21601687.844                    21601693.617
 11  8 22  2  5 30.0000000  0  8G26G25G10G12G05G30G29G02
 124783664.794 6  97234122.73043  23745544.734                    23745555.000
 113486980.476 8  88431499.289 7  21595854.617                    21595865.355
 123714128.238 6  96400747.11343  23542015.594                    23542024.055
 112520248.648 7  87678184.062 7  21411888.414                    21411896.340
 107029884.536 8  83400002.564 8  20367082.844                    20367090.820
 113972470.136 7  88809780.52546  21688240.906                    21688249.590
 119171294.726 7  92860779.300 7  22677542.695                    22677551.934
 113555395.025 8  88484855.65946  21608855.305                    21608861.137
 11  8 22  2  6  0.0000000  0  8G26G25G10G12G05G30G29G02
 124689113.131 6  97160446.14343  23727552.484                    23727561.969
 113484773.689 8  88429779.708 7  21595435.117                    21595445.570
 123818051.600 6  96481726.31343  23561791.883                    23561800.797
 112580095.758 7  87724818.153 7  21423276.711                    21423284.691
 107054335.894 8  83419055.580 8  20371735.742                    20371743.773
 113983789.249 8  88818600.60845  21690394.719                    21690403.645
 119089288.436 7  92796878.339 7  22661936.914                    22661946.184
 113593144.800 8  88514271.06846  21616038.438                    21616044.223
 11  8 22  2  6 30.0000000  0  8G26G25G10G12G05G30G29G02
 124594615.360 6  97086811.62643  23709570.297                    23709580.074
 113483144.505 8  88428510.208 7  21595125.070                    21595135.566
 123922141.205 6  96562835.05444  23581599.234                    23581608.816
 112640384.062 7  87771796.034 7  21434749.555                    21434757.434
 107079309.093 8  83438515.224 8  20376488.070                    20376495.645
 113995692.759 8  88827876.06345  21692660.133                    21692668.492
 119007349.691 7  92733030.022 7  22646345.148                    22646354.027
 113630979.906 8  88543752.97946  21623238.195                    21623244.438
 11  8 22  2  7  0.0000000  0  8G26G25G10G12G05G30G29G02
 124500174.547 6  97013221.47443  23691598.477                    23691608.129
 113482092.327 8  88427690.330 7  21594924.719                    21594935.219
 124026393.991 6  96644070.95144  23601437.383                    23601447.430
 112701110.731 8  87819115.487 7  21446305.445                    21446313.527
 107104802.012 8  83458379.847 8  20381339.594                    20381346.777
 114008179.324 8  88837605.84845  21695036.250                    21695045.195
 118925480.193 7  92669235.653 7  22630765.828                    22630774.902
 113668900.066 8  88573301.17246  21630453.797                    21630460.250
 11  8 22  2  7 30.0000000  0  8G26G25G10G12G05G30G29G02
 124405794.328 6  96939678.50944  23673639.078                    23673648.945
 113481616.611 8  88427319.627 7  21594833.945                    21594844.320
 124130807.352 6  96725432.00543  23621306.133                    23621316.094
 112762273.041 7  87866774.413 7  21457943.711                    21457952.352
 107130813.203 8  83478648.315 8  20386289.266                    20386296.703
 114021247.664 8  88847788.96445  21697523.195                    21697531.457
 118843681.848 7  92605496.736 7  22615199.711                    22615209.133
 113706904.629 8  88602915.12746  21637686.195                    21637692.258
 11  8 22  2  8  0.0000000  0  9G26G25G15G10G12G05G30G29G02
 124311477.907 7  96866185.28544  23655691.281                    23655700.641
 113481716.713 8  88427397.624 7  21594853.188                    21594863.883
 129060907.47415 100567031.91815  24559488.031
 124235378.166 6  96806915.69343  23641206.125                    23641215.070
 112823868.400 7  87914770.779 7  21469665.586                    21469673.105
 107157340.580 8  83499319.006 8  20391336.922                    20391345.008
 114034896.360 8  88858424.30445  21700120.328                    21700128.859
 118761956.199 7  92541814.464 7  22599648.422                    22599657.418
 113744993.652 8  88632594.88846  21644934.148                    21644940.469
 11  8 22  2  8 30.0000000  0  9G26G25G15G10G12G05G30G29G02
 124217228.987 7  96792744.65144  23637755.875                    23637766.059
 113482392.762 8  88427924.416 7  21594981.945                    21594992.539
 128967568.82015 100494300.98415  24541724.688
 124340104.277 7  96888520.46044  23661136.094                    23661143.762
 112885895.229 8  87963103.345 7  21481468.672                    21481476.648
 107184383.422 8  83520391.365 8  20396482.844                    20396491.059
 114049124.851 8  88869511.42745  21702827.766                    21702836.137
 118680305.424 7  92478190.522 7  22584110.508                    22584119.266
 113783167.403 8  88662340.66245  21652198.297                    21652204.402
 11  8 22  2  9  0.0000000  0  9G26G25G15G10G12G05G30G29G02
 124123050.802 7  96719359.11244  23619834.570                    23619844.383
 113483643.945 8  88428899.349 7  21595220.227                    21595230.324
 128874107.843 5 100421474.423 5  24523937.883
 124444982.815 7  96970243.97244  23681092.711                    23681101.660
 112948349.946 7  88011769.338 7  21493353.461                    21493361.699
 107211939.717 8  83541863.819 8  20401727.055                    20401735.086
 114063931.509 8  88881049.06945  21705645.469                    21705653.883
 118598731.068 7  92414626.141 7  22568587.516                    22568595.516
 113821425.102 8  88692151.85046  21659478.422                    21659484.293
 11  8 22  2  9 30.0000000  0  9G26G25G15G10G12G05G30G29G02
 124028946.834 7  96646031.41144  23601927.398                    23601936.398
 113485469.799 8  88430322.078 7  21595567.344                    21595577.871
 128780526.82015 100348554.26914  24506131.047
 124550011.026 7  97052084.11043  23701079.664                    23701088.430
 113011230.257 8  88060766.957 7  21505319.109                    21505326.996
 107240007.584 8  83563734.888 8  20407067.836                    20407075.520
 114079315.218 8  88893036.36245  21708572.656                    21708581.859
 118517234.950 7  92351122.699 7  22553079.055                    22553088.008
 113859766.653 8  88722028.38245  21666774.859                    21666780.887
 11  8 22  2 10  0.0000000  0  9G26G25G15G10G12G05G30G29G02
 123934920.889 7  96572764.51744  23584034.445                    23584044.422
 113487870.077 8  88432192.417 7  21596024.219                    21596034.895
 128686828.236 5 100275542.562 5  24488299.188
 124655186.249 7  97134038.80643  23721093.672                    23721102.188
 113074533.984 8  88110094.517 7  21517365.438                    21517373.504
 107268585.688 8  83586003.562 8  20412506.258                    20412513.871
 114095275.026 8  88905472.56745  21711609.766                    21711618.199
 118435819.129 7  92287681.839 7  22537585.953                    22537594.500
 113898192.126 8  88751970.29345  21674086.844                    21674092.949
 11  8 22  2 10 30.0000000  0  9G26G25G15G10G12G05G30G29G02
 123840976.362 7  96499561.07144  23566157.289                    23566166.559
 113490844.175 8  88434509.878 7  21596589.961                    21596600.930
 128593014.536 5 100202441.171 5  24470447.922
 124760505.838 7  97216106.03644  23741135.414                    23741143.895
 113138258.823 8  88159750.216 7  21529492.164                    21529499.977
 107297672.248 8  83608668.428 8  20418041.063                    20418048.754
 114111809.445 8  88918356.51445  21714755.953                    21714765.289
 118354485.617 7  92224305.112 7  22522108.680                    22522117.211
 113936701.251 8  88781977.40346  21681415.164                    21681421.047
 11  8 22  2 11  0.0000000  0  9G26G25G15G10G12G05G30G29G02
 123747116.856 7  96426423.86544  23548296.805                    23548306.387
 113494391.594 8  88437274.102 7  21597265.047                    21597275.918
 128499088.704 5 100129252.356 5  24452574.570
 124865967.139 7  97298283.63443  23761204.203                    23761213.332
 113202401.980 8  88209731.878 7  21541698.148                    21541706.031
 107327265.736 8  83631728.297 8  20423672.672                    20423679.984
 114128917.347 8  88931687.32845  21718011.938                    21718020.691
 118273235.978 7  92160993.751 7  22506647.539                    22506656.172
 113975294.092 8  88812049.73845  21688759.453                    21688765.535
 11  8 22  2 11 30.0000000  0  9G26G25G15G10G12G05G30G29G02
 123653345.619 6  96353355.45744  23530452.328                    23530461.906
 113498511.822 8  88440484.662 7  21598049.164                    21598059.395
 128405052.691 5 100055977.769 5  24434678.602
 124971567.532 7  97380569.68543  23781299.203                    23781307.391
 113266961.006 8  88260037.606 7  21553983.180                    21553991.113
 107357364.479 8  83655181.872 8  20429400.445                    20429407.984
 114146597.374 8  88945463.95745  21721376.289                    21721384.984
 118192072.706 7  92097749.677 7  22491202.367                    22491211.242
 114013970.843 8  88842187.47846  21696118.875                    21696125.496
 11  8 22  2 12  0.0000000  0  9G26G25G15G10G12G05G30G29G02
 123559666.382 7  96280358.69944  23512625.797                    23512635.508
 113503204.025 8  88444140.909 7  21598942.133                    21598952.656
 128310909.65615  99982619.35115  24416765.031
 125077304.315 6  97462962.00543  23801420.578                    23801428.188
 113331933.020 7  88310665.132 7  21566347.070                    21566354.965
 107387966.559 8  83679027.657 8  20435223.586                    20435231.367
 114164848.101 8  88959685.30245  21724848.719                    21724857.457
 118110997.323 7  92034574.107 7  22475774.688                    22475783.395
 114052730.866 8  88872390.10946  21703495.172                    21703501.055
 11  8 22  2 12 30.0000000  0  9G26G25G15G10G12G05G30G29G02
 123466082.433 6  96207436.24243  23494817.156                    23494826.434
 113508467.640 8  88448242.419 7  21599943.563                    21599954.383
 128216660.978 5  99909179.360 4  24398828.391
 125183174.882 6  97545458.60743  23821565.711                    23821574.520
 113397315.460 8  88361612.461 7  21578789.281                    21578796.352
 107419070.151 8  83703264.237 8  20441142.500                    20441150.117
 114183668.054 8  88974350.17545  21728430.445                    21728439.801
 118030011.602 7  91971468.385 7  22460363.453                    22460372.250
 114091574.043 7  88902657.52045  21710886.367                    21710892.270
 11  8 22  2 13  0.0000000  0  9G26G25G15G10G12G05G30G29G02
 123372597.477 6  96134590.87343  23477027.750                    23477036.742
 113514302.035 8  88452788.701 7  21601054.086                    21601064.590
 128122310.53814  99835659.28215  24380872.422
 125289176.546 6  97628057.28743  23841736.945                    23841747.277
 113463106.215 8  88412877.970 7  21591308.242                    21591316.074
 107450673.626 8  83727890.330 8  20447156.258                    20447164.254
 114203056.035 8  88989457.68245  21732120.117                    21732128.957
 117949117.784 7  91908434.294 7  22444969.969                    22444978.848
 114130500.545 7  88932989.86845  21718293.930                    21718299.980
 11  8 22  2 13 30.0000000  0  9G26G25G15G10G12G05G30G29G02
 123279215.220 7  96061825.55143  23459257.445                    23459266.590
 113520706.622 8  88457779.289 7  21602272.516                    21602282.781
 128027859.502 5  99762061.612 5  24362900.320
 125395306.569 6  97710756.00543  23861933.172                    23861943.633
 113529302.048 8  88464459.128 7  21603905.453                    21603913.223
 107482775.294 8  83752904.631 8  20453265.391                    20453272.551
 114223010.601 8  89005006.68345  21735917.086                    21735925.793
 117868317.597 7  91845473.155 7  22429594.172                    22429602.969
 114169510.233 7  88963387.01545  21725717.266                    21725722.922
 11  8 22  2 14  0.0000000  0  9G26G25G15G10G12G05G30G29G02
 123185938.725 7  95989142.59443  23441507.063                    23441516.031
 113527680.359 8  88463213.363 7  21603599.797                    21603610.359
 127933311.916 5  99688388.307 5  24344909.430
 125501562.374 6  97793552.76943  23882153.297                    23882162.570
 113595900.373 8  88516353.898 7  21616578.594                    21616586.285
 107515372.984 8  83778305.441 8  20459468.141                    20459475.699
 114243530.000 8  89020995.81045  21739822.352                    21739830.770
 117787612.878 7  91782586.413 7  22414236.273                    22414245.301
 114208602.550 8  88993848.55645  21733156.195                    21733161.785
 11  8 22  2 14 30.0000000  0  9G26G25G15G10G12G05G30G29G02
 123092771.696 7  95916544.94544  23423778.336                    23423787.367
 113535222.634 8  88469090.457 7  21605035.359                    21605045.930
 127838669.494 5  99614641.107 5  24326899.414
 125607941.352 6  97876445.49543  23902396.164                    23902405.988
 113662899.029 7  88568560.635 7  21629327.617                    21629335.465
 107548465.088 8  83804091.500 8  20465765.734                    20465773.148
 114264612.935 8  89037424.08045  21743833.984                    21743842.855
 117707005.487 7  91719775.530 7  22398896.898                    22398906.285
 114247777.786 7  89024374.70245  21740611.359                    21740616.492
 11  8 22  2 15  0.0000000  0  9G26G25G15G10G12G05G30G29G02
 122999717.655 7  95844035.38944  23406071.016                    23406079.637
 113543332.604 8  88475409.918 7  21606578.609                    21606588.578
 127743935.253 5  99540822.310 5  24308871.758                    24308880.574
 125714440.590 6  97959431.90443  23922662.398                    23922672.148
 113730294.700 7  88621076.715 7  21642152.344                    21642161.070
 107582049.635 8  83830261.284 8  20472156.586                    20472164.016
 114286257.817 8  89054290.20645  21747952.516                    21747960.883
 117626497.529 7  91657042.108 7  22383576.891                    22383585.898
 114287035.593 7  89054965.19745  21748081.898                    21748087.430
 11  8 22  2 15 30.0000000  0  9G26G25G15G10G12G05G30G29G02
 122906780.018 7  95771616.49644  23388385.625                    23388395.023
 113552009.298 8  88482170.987 7  21608229.703                    21608240.066
 127649111.384 5  99466933.726 5  24290828.563                    24290837.688
 125821057.797 7  98042510.22844  23942951.563                    23942960.801
 113798084.651 7  88673900.025 7  21655052.602                    21655060.730
 107616124.686 8  83856813.285 8  20478640.523                    20478648.082
 114308462.929 8  89071592.88345  21752178.383                    21752187.398
 117546090.897 7  91594387.666 7  22368276.133                    22368285.145
 114326375.768 8  89085619.88045  21755567.641                    21755573.316
 11  8 22  2 16  0.0000000  0  9G26G25G15G10G12G05G30G29G02
 122813962.579 7  95699291.26944  23370722.805                    23370731.891
 113561252.200 8  88489373.243 7  21609988.938                    21609999.141
 127554200.556 5  99392977.400 5  24272766.508                    24272777.453
 125927790.401 6  98125678.47743  23963262.773                    23963271.508
 113866266.598 7  88727028.799 7  21668027.313                    21668035.285
 107650688.578 8  83883746.191 8  20485217.883                    20485225.125
 114331227.032 8  89089331.14345  21756510.094                    21756518.957
 117465787.621 7  91531813.757 7  22352994.813                    22353003.336
 114365798.674 8  89116339.04945  21763068.445                    21763075.848
 11  8 22  2 16 30.0000000  0  9G26G25G15G10G12G05G30G29G02
 122721268.559 7  95627062.20644  23353083.430                    23353092.730
 113571060.164 8  88497015.827 7  21611854.555                    21611865.395
 127459205.501 5  99318955.375 5  24254689.586                    24254700.625
 126034635.253 7  98208934.17243  23983593.852                    23983602.984
 113934837.823 7  88780460.900 7  21681076.063                    21681084.219
 107685738.741 8  83911058.019 8  20491887.563                    20491895.547
 114354548.154 7  89107503.44645  21760947.992                    21760956.875
 117385589.222 7  91469321.554 7  22337733.742                    22337742.656
 114405303.967 8  89147122.40145  21770586.867                    21770592.586
 11  8 22  2 17  0.0000000  0  9G26G25G15G10G12G05G30G29G02
 122628702.273 7  95554932.71044  23335468.992                    23335478.277
 113581432.940 8  88505098.512 7  21613828.930                    21613839.000
 127364129.467 5  99244870.292 5  24236596.922                    24236608.391
 126141590.501 7  98292275.93843  24003947.219                    24003955.000
 114003796.152 7  88834194.641 7  21694198.461                    21694206.703
 107721274.880 8  83938748.529 8  20498649.922                    20498657.613
 114378425.479 8  89126109.15545  21765491.797                    21765500.418
 117305498.635 7  91406913.378 7  22322492.414                    22322501.539
 114444892.047 7  89177970.27145  21778120.531                    21778126.414
 11  8 22  2 17 30.0000000  0  9G26G25G15G10G12G05G30G29G02
 122536266.837 7  95482905.14944  23317878.727                    23317888.691
 113592369.280 8  88513620.339 7  21615909.727                    21615919.922
 127268974.652 5  99170723.837 5  24218489.930                    24218501.301
 126248653.241 7  98375701.48143  24024319.563                    24024327.996
 114073138.269 7  88888227.431 7  21707393.797                    21707401.965
 107757294.191 8  83966815.531 8  20505504.414                    20505511.395
 114402856.921 8  89145146.63845  21770140.703                    21770149.633
 117225517.471 7  91344590.458 7  22307272.789                    22307281.301
 114484562.584 8  89208882.37145  21785669.461                    21785675.191
 11  8 22  2 18  0.0000000  0  9G26G25G15G10G12G05G30G29G02
 122443965.736 7  95410982.28044  23300314.492                    23300324.117
 113603868.288 8  88522580.613 7  21618097.898                    21618108.262
 127173744.11314  99096517.99715  24200366.633                    24200376.980
 126355821.142 7  98459208.92943  24044712.945                    24044721.801
 114142861.681 7  88942557.338 7  21720661.859                    21720669.867
 107793794.823 8  83995257.597 8  20512450.070                    20512457.734
 114427840.948 8  89164614.70845  21774894.992                    21774903.637
 117145647.627 7  91282354.293 7  22292073.938                    22292082.715
 114524315.546 7  89239858.69645  21793234.367                    21793240.285
 11  8 22  2 18 30.0000000  0  9G26G25G15G10G12G05G30G29G02
 122351802.822 6  95339167.09944  23282775.969                    23282786.031
 113615928.990 8  88531978.560 7  21620392.930                    21620403.141
 127078439.30115  99022255.08515  24182231.094                    24182242.684
 126463091.595 6  98542796.28843  24065125.695                    24065135.230
 114212963.311 7  88997181.964 7  21734001.297                    21734009.734
 107830774.714 8  84024073.104 8  20519487.148                    20519494.480
 114453375.747 7  89184511.96645  21779754.094                    21779762.715
 117065890.885 7  91220206.240 7  22276896.867                    22276905.281
 114564150.856 7  89270899.22045  21800814.742                    21800820.996
 11  8 22  2 19  0.0000000  0  9G26G25G15G10G12G05G30G29G02
 122259781.519 6  95267462.25844  23265264.617                    23265274.633
 113628550.395 8  88541813.427 7  21622794.516                    21622805.051
 126983064.090 5  98947936.916 5  24164081.156                    24164094.023
 126570461.826 6  98626461.37343  24085557.438                    24085566.797
 114283440.582 7  89052099.288 7  21747413.117                    21747421.441
 107868231.828 8  84053260.480 8  20526615.055                    20526622.645
 114479459.704 7  89204837.11945  21784717.633                    21784726.332
 116986249.264 7  91158147.913 7  22261741.289                    22261749.953
 114604068.691 7  89302004.03545  21808410.516                    21808417.164
 11  8 22  2 19 30.0000000  0  9G26G25G15G10G12G05G30G29G02
 122167905.463 6  95195870.59944  23247781.172                    23247790.719
 113641731.360 8  88552084.306 7  21625303.164                    21625313.410
 126887620.831 5  98873565.695 5  24145920.531                    24145931.438
 126677929.166 6  98710202.17142  24106008.063                    24106017.820
 114354290.623 8  89107307.095 7  21760895.742                    21760903.695
 107906164.119 8  84082818.117 8  20533833.219                    20533840.840
 114506090.856 7  89225588.66245  21789785.773                    21789794.836
 116906725.139 7  91096181.122 7  22246608.539                    22246616.648
 114644068.888 7  89333173.04645  21816022.578                    21816028.926
 11  8 22  2 20  0.0000000  0  9G26G25G15G10G12G05G30G29G02
 122076178.203 6  95124394.88144  23230326.289                    23230335.676
 113655471.104 8  88562790.605 7  21627917.813                    21627928.230
 126792112.140 5  98799143.519 5  24127745.336                    24127756.395
 126785491.432 6  98794016.96942  24126476.406                    24126485.305
 114425510.729 7  89162803.254 7  21774448.133                    21774456.336
 107944570.049 8  84112744.820 8  20541141.523                    20541149.199
 114533267.879 7  89246765.57245  21794957.266                    21794965.633
 116827320.596 7  91034307.518 7  22231498.055                    22231506.430
 114684151.530 7  89364406.28646  21823649.922                    21823656.496
 11  8 22  2 20 30.0000000  0  9G26G25G15G10G12G05G30G29G02
 121984603.231 7  95053037.83444  23212899.320                    23212909.297
 113669768.181 8  88573931.179 7  21630638.703                    21630648.445
 126696540.417 6  98724672.191 5  24109558.852                    24109568.852
 126893145.737 6  98877903.39442  24146962.188                    24146971.156
 114497098.076 7  89218585.582 7  21788070.641                    21788078.758
 107983447.107 8  84143038.642 8  20548539.719                    20548547.289
 114560988.347 7  89268365.93045  21800232.117                    21800240.961
 116748037.169 7  90972528.285 7  22216410.797                    22216419.195
 114724315.952 7  89395703.24846  21831292.852                    21831298.953
 11  8 22  2 21  0.0000000  0  9G26G25G15G10G12G05G30G29G02
 121893184.146 7  94981802.23944  23195503.641                    23195512.320
 113684621.440 8  88585505.146 7  21633464.680                    21633475.277
 126600908.473 6  98650153.931 5  24091359.781                    24091371.199
 127000889.691 6  98961859.70542  24167465.266                    24167474.281
 114569049.611 7  89274651.682 7  21801763.172                    21801770.688
 108022792.946 8  84173697.746 8  20556026.945                    20556034.457
 114589250.664 8  89290388.51345  21805610.297                    21805618.680
 116668876.749 7  90910844.889 7  22201347.031                    22201355.879
 114764562.303 8  89427064.05845  21838951.695                    21838957.820
 11  8 22  2 21 30.0000000  0  9G26G25G15G10G12G05G30G29G02
 121801924.808 7  94910691.10844  23178137.773                    23178146.781
 113700030.040 8  88597511.862 7  21636397.078                    21636406.938
 126505219.326 6  98575591.112 5  24073150.836                    24073162.113
 127108720.800 5  99045883.97742  24187985.094                    24187993.504
 114641362.839 7  89330999.642 7  21815523.570                    21815531.641
 108062606.336 8  84204721.180 8  20563603.180                    20563611.090
 114618053.072 8  89312831.93345  21811091.281                    21811100.246
 116589841.941 7  90849259.366 7  22186307.094                    22186315.582
 114804891.050 7  89458489.06845  21846625.813                    21846632.023
 11  8 22  2 22  0.0000000  0  9G26G25G15G10G12G05G30G29G02
 121710828.542 7  94839707.02644  23160802.563                    23160811.301
 113715993.088 8  88609950.591 7  21639434.547                    21639445.102
 126409475.545 6  98500985.676 5  24054931.375                    24054941.879
 127216636.752 6  99129974.36843  24208520.516                    24208529.895
 114714035.225 7  89387627.454 7  21829352.539                    21829360.586
 108102885.268 8  84236107.373 8  20571267.711                    20571275.969
 114647394.074 8  89335695.03945  21816674.539                    21816683.395
 116510934.880 7  90787773.395 7  22171292.000                    22171300.254
 114845302.215 7  89489978.30445  21854315.672                    21854322.078
 11  8 22  2 22 30.0000000  0  9G26G25G15G10G12G05G30G29G02
 121619899.327 7  94768853.13144  23143499.242                    23143507.246
 113732509.256 8  88622820.320 7  21642577.172                    21642588.051
 126313679.861 6  98426339.826 5  24036702.148                    24036712.113
 127324634.829 6  99214128.70343  24229072.094                    24229081.418
 114787063.703 7  89444532.743 7  21843249.203                    21843257.012
 108143627.462 8  84267854.546 8  20579020.633                    20579028.723
 114677271.586 8  89358976.20745  21822360.430                    21822369.215
 116432157.624 7  90726388.557 7  22156301.273                    22156309.391
 114885795.622 7  89521531.63445  21862021.531                    21862027.773
 11  8 22  2 23  0.0000000  0  9G26G25G15G10G12G05G30G29G02
 121529140.453 7  94698131.98144  23126228.234                    23126237.230
 113749577.166 8  88636119.973 7  21645825.422                    21645835.977
 126217834.898 6  98351655.599 5  24018462.313                    24018473.504
 127432712.473 6  99298345.02843  24249638.750                    24249648.324
 114860445.166 7  89501713.077 7  21857213.172                    21857221.449
 108184830.518 8  84299960.840 8  20586861.813                    20586869.230
 114707683.564 7  89382673.84345  21828147.383                    21828155.867
 116353512.026 7  90665106.305 7  22141335.234                    22141343.652
 114926371.426 7  89553149.15445  21869742.867                    21869748.785
 11  8 22  2 23 30.0000000  0  9G26G25G15G10G12G05G30G29G02
 121438555.866 7  94627546.63744  23108990.898                    23108999.789
 113767195.820 8  88649848.794 7  21649178.102                    21649189.215
 126121943.485 6  98276935.164 5  24000215.609                    24000225.734
 127540867.226 7  99382621.45243  24270219.789                    24270229.367
 114934177.062 7  89559166.488 7  21871244.297                    21871252.379
 108226492.658 8  84332424.850 8  20594789.547                    20594797.043
 114738628.349 7  89406786.64645  21834036.070                    21834044.965
 116275000.267 7  90603928.344 7  22126394.609                    22126403.516
 114967029.425 8  89584830.73545  21877479.930                    21877485.492
 11  8 22  2 24  0.0000000  0  9G26G25G15G10G12G05G30G29G02
 121348149.098 7  94557099.84744  23091786.438                    23091796.000
 113785364.189 8  88664005.949 7  21652635.563                    21652646.281
 126026008.766 5  98202180.995 6  23981959.773                    23981969.641
 127649096.903 7  99466956.25043  24290816.289                    24290824.613
 115008256.797 7  89616890.943 7  21885340.977                    21885348.992
 108268612.281 8  84365245.341 8  20602804.719                    20602812.199
 114770104.118 7  89431313.21045  21840025.680                    21840034.555
 116196624.565 7  90542856.401 7  22111480.297                    22111488.816
 115007769.854 7  89616576.55545  21885232.367                    21885239.070
 11  8 22  2 24 30.0000000  0  9G26G25G15G10G12G05G30G29G02
 121257923.663 7  94486794.37544  23074617.305                    23074626.766
 113804080.581 8  88678590.139 7  21656196.898                    21656207.477
 125930032.962 6  98127394.796 6  23963694.875                    23963705.660
 127757399.009 6  99551347.47943  24311425.039                    24311433.477
 115082681.053 7  89674883.839 7  21899503.781                    21899512.012
 108311186.496 8  84398420.055 8  20610906.547                    20610913.824
 114802108.517 8  89456251.68245  21846116.367                    21846124.688
 116118386.456 7  90481891.670 7  22096592.188                    22096600.871
 115048592.421 8  89648386.36945  21893000.672                    21893006.957
 11  8 22  2 25  0.0000000  0  9G26G25G15G10G12G05G30G29G02
 121167883.195 6  94416633.04344  23057482.898                    23057492.375
 113823343.856 8  88693600.471 7  21659862.438                    21659873.035
 125834018.967 6  98052578.831 6  23945424.609                    23945434.980
 127865770.963 6  99635793.14943  24332047.477                    24332055.297
 115157447.135 7  89733143.101 7  21913731.359                    21913739.113
 108354213.384 8  84431947.507 8  20619094.422                    20619101.848
 114834639.690 7  89481600.64145  21852306.945                    21852315.191
 116040288.407 7  90421036.065 7  22081730.773                    22081738.664
 115089497.682 8  89680260.62245  21900784.695                    21900790.688
 11  8 22  2 25 30.0000000  0  9G26G25G15G10G12G05G30G29G02
 121078031.334 7  94346618.68044  23040384.984                    23040394.055
 113843152.707 8  88709035.931 7  21663632.078                    21663642.957
 125737969.791 6  97977735.420 6  23927146.711                    23927157.141
 127974209.939 6  99720291.07443  24352682.828                    24352690.738
 115232551.974 7  89791666.328 7  21928023.008                    21928031.137
 108397690.909 8  84465826.112 7  20627367.609                    20627375.164
 114867695.650 7  89507358.51645  21858596.703                    21858605.586
 115962332.648 7  90360291.341 7  22066896.086                    22066904.625
 115130485.385 8  89712199.10445  21908584.625                    21908590.516
 11  8 22  2 26  0.0000000  0  9G26G25G15G10G12G05G30G29G02
 120988371.980 7  94276754.32744  23023322.789                    23023332.395
 113863505.991 8  88724895.623 7  21667505.242                    21667515.820
 125641888.110 6  97902866.731 6  23908863.641                    23908873.418
 128082714.122 6  99804839.78443  24373330.305                    24373338.375
 115307992.906 7  89850451.446 7  21942379.313                    21942387.188
 108441617.122 8  84500054.343 8  20635726.586                    20635733.965
 114901274.544 8  89533523.87145  21864986.539                    21864995.160
 115884521.124 7  90299659.023 7  22052088.836                    22052097.516
 115171555.659 8  89744201.91945  21916399.648                    21916406.027
 11  8 22  2 26 30.0000000  0  9G26G25G15G10G12G05G30G29G02
 120898908.684 7  94207042.75144  23006299.016                    23006308.602
 113884402.247 8  88741178.409 7  21671481.867                    21671492.605
 125545776.654 6  97827974.803 6  23890574.078                    23890583.543
 128191281.026 6  99889437.38543  24393988.609                    24393998.223
 115383766.971 8  89909496.153 7  21956798.359                    21956806.469
 108485989.777 8  84534630.453 8  20644170.203                    20644177.777
 114935374.245 8  89560095.06645  21871475.484                    21871483.938
 115806855.826 7  90239140.650 7  22037310.109                    22037318.438
 115212708.506 8  89776269.09845  21924230.961                    21924236.957
 11  8 22  2 27  0.0000000  0  9G26G25G15G10G12G05G30G29G02
 120809644.822 7  94137486.54444  22989312.734                    22989321.934
 113905840.028 8  88757883.176 7  21675561.344                    21675571.754
 125449638.387 6  97753062.004 6  23872279.039                    23872289.859
 128299907.969 6  99974081.72743  24414660.039                    24414670.055
 115459871.671 8  89968798.489 7  21971280.781                    21971289.102
 108530806.501 8  84569552.584 8  20652698.695                    20652706.383
 114969992.644 8  89587070.43045  21878062.938                    21878071.840
 115729339.192 7  90178738.120 7  22022558.789                    22022567.453
 115253944.128 7  89808400.76145  21932077.789                    21932084.227
 11  8 22  2 27 30.0000000  0  9G26G25G15G10G12G05G30G29G02
 120720584.358 7  94068088.83344  22972365.352                    22972374.043
 113927818.049 8  88775008.897 7  21679743.695                    21679754.039
 125353475.944 6  97678130.327 5  23853980.445                    23853989.836
 128408592.747 6 100058771.18242  24435342.703                    24435352.105
 115536303.468 8  90028355.717 7  21985825.047                    21985833.391
 108576065.432 8  84604819.294 8  20661310.953                    20661318.496
 115005127.766 7  89614448.42245  21884749.320                    21884757.938
 115651973.432 7  90118453.160 7  22007836.813                    22007844.977
 115295262.512 7  89840596.92345  21939940.375                    21939946.336
 11  8 22  2 28  0.0000000  0  9G26G25G15G10G12G05G30G29G02
 120631730.943 7  93998852.46344  22955456.336                    22955465.945
 113950335.053 8  88792554.602 7  21684028.461                    21684039.391
 125257292.420 6  97603182.242 6  23835677.117                    23835687.000
 128517332.917 6 100143503.74442  24456035.133                    24456044.363
 115613059.899 8  90088165.913 7  22000431.734                    22000439.598
 108621764.633 8  84640429.074 8  20670007.516                    20670015.047
 115040777.560 8  89642227.46745  21891533.492                    21891541.379
 115574760.835 7  90058287.550 7  21993143.508                    21993151.461
 115336663.939 8  89872857.78645  21947818.844                    21947825.086
 11  8 22  2 28 30.0000000  0  9G26G25G15G10G12G05G30G29G02
 120543087.742 7  93929779.89044  22938589.086                    22938597.672
 113973389.063 8  88810518.749 7  21688415.438                    21688426.156
 125161090.002 6  97528219.415 6  23817369.875                    23817380.195
 128626126.014 5 100228277.61642  24476737.031                    24476747.602
 115690137.493 7  90148226.356 7  22015099.148                    22015107.141
 108667901.008 8  84676379.506 7  20678787.164                    20678794.727
 115076939.489 8  89670405.59045  21898414.563                    21898423.070
 115497702.947 7  89998242.483 7  21978480.008                    21978487.941
 115378148.195 8  89905183.17845  21955712.875                    21955718.469
 11  8 22  2 29  0.0000000  0  9G26G25G15G10G12G05G30G29G02
 120454659.041 7  93860874.46444  22921761.000                    22921769.648
 113996978.998 8  88828900.512 7  21692904.563                    21692915.746
 125064872.079 6  97453244.522 6  23799060.797                    23799070.504
 128734969.604 6 100313090.81242  24497449.313                    24497459.504
 115767533.898 8  90208535.220 7  22029826.750                    22029835.215
 108714472.957 8  84712669.345 7  20687649.109                    20687656.879
 115113611.738 8  89698981.36245  21905393.008                    21905401.531
 115420802.321 7  89938319.986 7  21963846.117                    21963854.473
 115419715.625 8  89937573.39945  21963623.133                    21963628.574
 11  8 22  2 29 30.0000000  0  9G26G25G15G10G12G05G30G29G02
 120366448.122 7  93792138.70944  22904975.250                    22904983.520
 114021103.166 8  88847698.551 7  21697495.180                    21697505.781
 124968641.277 6  97378259.585 6  23780748.570                    23780758.305
 128843861.144 6 100397941.31642  24518171.570                    24518180.027
 115845245.666 8  90269089.823 7  22044615.391                    22044623.234
 108761477.886 8  84749296.579 7  20696594.172                    20696601.742
 115150791.998 8  89727952.98445  21912468.242                    21912477.195
 115344061.088 7  89878521.680 7  21949242.492                    21949251.008
 115461366.043 8  89970028.25645  21971549.039                    21971554.688
 11  8 22  2 30  0.0000000  0 10G26G25G15G10G12G05G30G29G21G02
 120278459.224 7  93723575.97344  22888230.883                    22888239.457
 114045760.460 8  88866912.024 7  21702187.148                    21702197.973
 124872400.733 6  97303267.050 6  23762434.508                    23762443.895
 128952798.987 6 100482828.00442  24538901.492                    24538910.313
 115923270.641 8  90329888.487 7  22059462.750                    22059470.613
 108808914.596 8  84786260.255 7  20705621.008                    20705628.223
 115188478.524 8  89757319.08945  21919639.641                    21919648.301
 115267481.697 7  89818849.492 7  21934670.000                    21934678.434
 132342101.36316                  25183867.898
 115503100.251 8  90002548.41445  21979490.617                    21979496.434
 11  8 22  2 30 30.0000000  0 10G26G25G15G10G12G05G30G29G21G02
 120190695.117 7  93655188.40344  22871529.922                    22871538.836
 114070948.839 8  88886539.331 7  21706980.469                    21706991.270
 124776152.974 6  97228268.877 6  23744118.680                    23744128.387
 129061780.322 6 100567748.53042  24559640.344                    24559648.227
 116001604.994 7  90390928.216 7  22074369.109                    22074377.547
 108856779.788 8  84823557.831 7  20714729.242                    20714736.648
 115226668.533 7  89787077.51845  21926907.172                    21926916.063
 115191065.663 8  89759304.582 7  21920128.047                    21920136.520
 132286132.441 6 103080152.18153  25173217.938                    25173226.535
 115544917.198 8  90035133.04745  21987448.438                    21987453.945
 11  8 22  2 31  0.0000000  0 10G26G25G15G10G12G05G30G29G21G02
 120103160.755 7  93586979.86344  22854873.047                    22854881.438
 114096667.744 8  88906580.038 7  21711874.820                    21711885.156
 124679901.673 6  97153267.995 6  23725803.250                    23725812.648
 129170803.391 7 100652701.60643  24580386.633                    24580394.805
 116080246.922 8  90452207.627 7  22089334.211                    22089342.012
 108905072.520 8  84861188.548 7  20723919.039                    20723926.590
 115265360.867 8  89817227.38345  21934270.203                    21934278.965
 115114816.254 7  89699889.509 7  21905618.625                    21905626.777
 132230172.955 6 103036547.42043  25162568.719                    25162577.395
 115586818.710 7  90067783.57445  21995421.805                    21995427.613
 11  8 22  2 31 30.0000000  0  9G26G25G15G12G05G30G29G21G02
 120015860.007 7  93518953.36044  22838260.227                    22838268.555
 114122915.738 8  88927033.030 7  21716869.422                    21716879.805
 124583649.923 6  97078266.741 6  23707486.469                    23707496.156
 116159193.667 7  90513724.538 7  22104357.367                    22104365.707
 108953790.355 8  84899150.506 8  20733189.805                    20733196.930
 115304553.409 7  89847767.01345  21941727.977                    21941736.887
 115038735.875 8  89640606.159 7  21891141.008                    21891149.531
 132174222.359 6 102992949.62243  25151920.883                    25151930.832
 115628804.771 7  90100499.97845  22003411.094                    22003416.887
 11  8 22  2 32  0.0000000  0  9G26G25G15G12G05G30G29G21G02
 119928795.495 7  93451110.92644  22821692.039                    22821700.328
 114149690.303 8  88947896.312 7  21721964.680                    21721975.094
 124487399.729 6  97003266.714 6  23689170.570                    23689180.355
 116238441.561 7  90575476.118 7  22119437.758                    22119446.203
 109002930.338 8  84937441.420 7  20742540.875                    20742548.281
 115344242.903 8  89878693.88245  21949281.055                    21949289.453
 114962825.947 8  89581455.625 7  21876695.727                    21876703.719
 132118279.174 7 102949357.64943  25141275.383                    25141285.129
 115670874.810 7  90133281.79545  22011416.813                    22011423.168
 11  8 22  2 32 30.0000000  0  9G26G25G15G12G05G30G29G21G02
 119841970.832 7  93383455.42144  22805169.695                    22805178.539
 114176989.809 8  88969168.657 7  21727159.117                    21727170.223
 124391154.003 6  96928270.170 6  23670855.078                    23670865.012
 116317987.202 7  90637459.715 7  22134574.734                    22134583.039
 109052490.283 8  84976059.573 7  20751972.023                    20751979.359
 115384427.159 8  89910006.27945  21956927.914                    21956936.543
 114887088.569 8  89522439.536 7  21862283.164                    21862292.074
 132062343.015 6 102905771.08543  25130630.914                    25130640.813
 115713028.681 7  90166128.93645  22019438.766                    22019444.688
 11  8 22  2 33  0.0000000  0  9G26G25G15G12G05G30G29G21G02
 119755389.537 7  93315989.51744  22788693.109                    22788702.824
 114204812.074 8  88990848.348 7  21732453.984                    21732464.691
 124294915.134 6  96853278.961 6  23652541.523                    23652551.539
 116397827.065 7  90699672.590 7  22149767.813                    22149775.895
 109102467.253 8  85015002.677 7  20761482.047                    20761489.512
 115425103.316 8  89941701.97145  21964668.188                    21964676.805
 114811525.318 8  89463559.136 7  21847903.984                    21847912.625
 132006412.539 6 102862188.96643  25119987.453                    25119997.176
 115755266.210 8  90199041.27745  22027476.531                    22027482.664
 11  8 22  2 33 30.0000000  0  9G26G25G15G12G05G30G29G21G02
 119669055.506 7  93248716.32744  22772264.766                    22772274.008
 114233156.188 8  89012934.672 7  21737847.516                    21737858.059
 124198686.512 6  96778295.727 6  23634230.258                    23634239.699
 116477959.210 7  90762113.197 7  22165016.688                    22165024.676
 109152859.792 8  85054269.600 7  20771071.359                    20771078.535
 115466269.853 8  89973779.78945  21972501.844                    21972510.824
 114736139.274 8  89404816.825 7  21833558.492                    21833566.738
 131950487.744 6 102818611.23743  25109345.375                    25109355.313
 115797588.373 7  90232019.54945  22035529.969                    22035536.008
 11  8 22  2 34  0.0000000  0  9G26G25G15G12G05G30G29G21G02
 119582971.917 7  93181638.26644  22755883.359                    22755892.863
 114262019.676 8  89035425.708 7  21743340.195                    21743350.879
 124102470.723 6  96703322.511 6  23615920.867                    23615930.109
 116558379.733 7  90824778.510 7  22180319.688                    22180328.488
 109203664.510 8  85093857.705 7  20780739.016                    20780746.578
 115507923.618 8  90006237.26345  21980428.281                    21980436.918
 114660932.364 8  89346214.085 7  21819247.438                    21819255.547
 131894567.535 6 102775037.12443  25098703.844                    25098714.270
 115839994.228 7  90265063.05745  22043599.273                    22043605.746
 11  8 22  2 34 30.0000000  0  9G26G25G15G12G05G30G29G21G02
 119497143.242 7  93114758.83644  22739551.344                    22739560.191
 114291401.476 8  89058320.610 7  21748931.320                    21748942.090
 124006270.931 6  96628361.753 6  23597614.148                    23597624.227
 116639086.519 7  90887666.886 7  22195678.148                    22195686.008
 109254880.292 8  85133766.111 7  20790485.461                    20790493.109
 115550062.980 7  90039073.11745  21988447.609                    21988456.309
 114585906.441 7  89287752.351 7  21804970.242                    21804978.238
 131838652.061 6 102731466.63143  25088063.805                    25088074.004
 115882485.068 7  90298172.78945  22051685.625                    22051691.328
 11  8 22  2 35  0.0000000  0  9G26G25G15G12G05G30G29G21G02
 119411572.639 7  93048080.51545  22723267.492                    22723276.258
 114321299.562 8  89081617.822 7  21754620.680                    21754631.004
 123910089.914 6  96553415.650 6  23579311.641                    23579321.078
 116720076.038 7  90950775.587 7  22211089.891                    22211097.793
 109306504.391 8  85173992.695 8  20800308.930                    20800316.227
 115592685.156 8  90072285.19745  21996557.977                    21996566.727
 114511064.085 8  89229433.694 7  21790728.164                    21790736.621
 131782740.236 6 102687899.02843  25077423.648                    25077433.789
 115925060.379 7  90331348.35145  22059787.203                    22059792.977
 11  8 22  2 35 30.0000000  0  9G26G25G15G12G05G30G29G21G02
 119326263.609 7  92981605.99745  22707033.500                    22707042.930
 114351711.942 8  89105315.781 7  21760407.992                    21760418.543
 123813930.580 7  96478486.420 6  23561012.984                    23561021.926
 116801345.009 7  91014102.043 7  22226555.023                    22226563.055
 109358534.138 8  85214535.363 7  20810209.961                    20810217.344
 115635787.594 7  90105871.51545  22004759.352                    22004769.176
 114436407.504 7  89171259.772 7  21776521.547                    21776529.750
 131726831.329 6 102644333.74142  25066784.781                    25066794.676
 115967720.348 7  90364589.87945  22067904.594                    22067910.633
 11  8 22  2 36  0.0000000  0  9G26G25G15G12G05G30G29G21G02
 119241220.582 7  92915338.75045  22690850.773                    22690859.410
 114382637.524 8  89129413.651 7  21766292.664                    21766303.332
 123717795.996 6  96403576.468 6  23542719.031                    23542728.531
 116882891.256 7  91077644.560 7  22242072.758                    22242080.820
 109410968.001 8  85255392.936 7  20820187.898                    20820194.992
 115679368.641 7  90139830.75845  22013053.063                    22013062.387
 114361939.320 7  89113232.663 7  21762350.617                    21762358.930
 131670925.350 6 102600770.58142  25056146.438                    25056155.188
 116010465.710 7  90397897.93145  22076039.453                    22076044.637
 11  8 22  2 36 30.0000000  0  9G26G25G15G12G05G30G29G21G02
 119156446.823 7  92849281.33044  22674718.672                    22674727.391
 114414074.042 8  89153909.640 7  21772275.117                    21772285.969
 123621688.868 6  96328687.924 6  23524430.023                    23524439.680
 116964711.468 7  91141400.558 7  22257642.438                    22257650.742
 109463803.160 8  85296563.187 7  20830241.906                    20830249.000
 115723425.344 8  90174160.65845  22021437.281                    22021445.695
 114287661.596 8  89055353.955 7  21748216.047                    21748224.453
 131615021.187 6 102557208.97043  25045507.703                    25045517.066
 116053296.346 7  90431272.42445  22084189.914                    22084194.605
 11  8 22  2 37  0.0000000  0  9G26G25G15G12G05G30G29G21G02
 119071945.991 7  92783436.59644  22658638.031                    22658647.074
 114446019.818 8  89178802.464 7  21778354.242                    21778364.691
 123525612.436 7  96253823.289 6  23506147.672                    23506157.414
 117046802.428 7  91205367.517 7  22273263.906                    22273271.941
 109517037.309 8  85338044.354 8  20840372.109                    20840379.313
 115767955.397 8  90208859.39445  22029910.641                    22029919.508
 114213576.321 7  88997625.224 7  21734117.992                    21734125.980
 131559118.605 6 102513648.50643  25034869.742                    25034879.355
 116096212.336 8  90464713.45345  22092356.578                    22092361.773
 11  8 22  2 37 30.0000000  0  9G26G25G15G12G05G30G29G21G02
 118987722.135 7  92717807.65944  22642611.438                    22642619.789
 114478473.197 8  89204090.813 7  21784529.742                    21784540.469
 123429569.962 7  96178985.099 6  23487871.305                    23487880.496
 117129161.539 7  91269543.416 7  22288936.234                    22288944.629
 109570668.411 8  85379834.829 7  20850577.633                    20850584.902
 115812956.489 8  90243925.19445  22038474.156                    22038482.949
 114139686.040 7  88940048.429 7  21720057.078                    21720064.953
 131503216.891 6 102470088.79243  25024232.305                    25024241.820
 116139214.147 7  90498221.35545  22100539.641                    22100545.098
 11  8 22  2 38  0.0000000  0  9G26G25G15G12G05G30G29G21G02
 118903778.372 7  92652396.96744  22626637.156                    22626646.137
 114511432.002 8  89229772.996 7  21790801.727                    21790812.500
 123333563.963 7  96104175.337 6  23469601.867                    23469610.809
 117211785.290 7  91333925.545 7  22304659.500                    22304667.363
 109624693.632 8  85421932.412 7  20860858.328                    20860866.082
 115858425.919 7  90279355.91545  22047126.695                    22047135.355
 114065992.863 8  88882625.223 7  21706033.891                    21706041.852
 131447315.339 6 102426529.15242  25013594.750                    25013605.227
 116182301.800 7  90531796.17045  22108738.492                    22108744.480
 11  8 22  2 38 30.0000000  0  9G26G25G15G12G05G30G29G21G02
 118820118.273 7  92587207.32044  22610717.016                    22610725.578
 114544894.161 8  89255847.410 7  21797169.117                    21797179.809
 123237597.156 7  96029396.098 6  23451339.820                    23451349.043
 117294670.401 7  91398511.321 7  22320431.938                    22320440.180
 109679110.630 8  85464335.277 7  20871213.500                    20871221.215
 115904360.953 8  90315149.45145  22055868.016                    22055876.785
 113992498.868 8  88825357.216 7  21692048.688                    21692056.277
 131391413.312 6 102382969.19642  25002956.641                    25002967.105
 116225475.434 7  90565437.98945  22116953.977                    22116959.953
 11  8 22  2 39  0.0000000  0  9G26G25G15G12G05G30G29G21G02
 118736745.866 7  92522241.84844  22594851.961                    22594860.020
 114578858.082 8  89282312.807 7  21803632.289                    21803643.230
 123141672.771 7  95954649.913 6  23433086.164                    23433094.996
 117377814.625 7  91463299.010 7  22336253.641                    22336262.078
 109733917.518 8  85507041.938 8  20881642.922                    20881650.590
 115950759.356 8  90351304.06345  22064697.305                    22064705.652
 113919206.781 8  88768246.528 7  21678101.195                    21678109.379
 131335510.599 5 102339408.72642  24992317.664                    24992329.246
 116268735.349 7  90599147.04345  22125186.180                    22125192.473
 11  8 22  2 39 30.0000000  0  9G26G25G15G12G05G30G29G21G02
 118653665.045 7  92457503.58744  22579041.820                    22579050.633
 114613322.097 8  89309167.887 7  21810190.461                    21810201.336
 123045794.173 7  95879939.392 6  23414841.250                    23414849.973
 117461214.713 7  91528286.068 7  22352123.969                    22352132.047
 109789112.207 8  85550050.797 7  20892146.156                    20892153.859
 115997618.934 8  90387818.00645  22073614.039                    22073622.938
 113846118.939 8  88711295.038 7  21664193.094                    21664201.480
 131279606.515 6 102295847.14542  24981679.688                    24981690.559
 116312082.378 8  90632923.97545  22133434.680                    22133440.309
 11  8 22  2 40  0.0000000  0  9G26G25G15G12G05G30G29G21G02
 118570879.067 7  92392995.05744  22563288.828                    22563296.293
 114648283.826 8  89336410.794 7  21816844.086                    21816854.449
 122949963.789 7  95805266.454 6  23396605.695                    23396614.230
 117544867.379 7  91593469.947 7  22368042.641                    22368051.004
 109844691.435 8  85593359.293 7  20902722.133                    20902730.660
 116044936.709 8  90424689.00845  22082618.516                    22082627.027
 113773237.278 8  88654504.178 7  21650323.945                    21650331.645
 131223700.555 5 102252284.11842  24971040.539                    24971051.172
 116355515.866 7  90666768.28445  22141699.844                    22141705.672
 11  8 22  2 40 30.0000000  0  9G26G25G15G12G05G30G29G21G02
 118488391.643 7  92328719.18544  22547591.344                    22547599.871
 114683741.359 8  89364040.035 7  21823591.094                    21823601.324
 122854184.790 7  95730633.533 6  23378379.039                    23378387.645
 117628769.616 7  91658848.295 7  22384009.000                    22384017.160
 109900653.172 8  85636965.845 8  20913371.688                    20913379.336
 116092710.156 8  90461915.06245  22091709.336                    22091718.102
 113700564.131 8  88597875.814 7  21636494.586                    21636502.758
 131167791.892 5 102208719.00342  24960401.430                    24960412.250
 116399036.371 8  90700680.39545  22149981.828                    22149987.621
 11  8 22  2 41  0.0000000  0  9G26G25G15G12G05G30G29G21G02
 118406206.798 7  92264679.08545  22531952.727                    22531960.992
 114719692.815 8  89392054.152 7  21830432.484                    21830442.777
 122758460.332 7  95656043.123 6  23360162.820                    23360172.449
 117712918.419 7  91724418.780 7  22400021.758                    22400029.508
 109956995.086 7  85680868.641 7  20924093.008                    20924100.715
 116140936.871 8  90499494.32045  22100887.234                    22100895.625
 113628102.089 8  88541411.931 7  21622705.891                    21622713.707
 131111879.940 6 102165151.27342  24949762.086                    24949772.371
 116442644.000 7  90734660.36845  22158279.852                    22158285.484
 11  8 22  2 41 30.0000000  0  9G26G25G15G12G05G30G29G21G02
 118324328.164 7  92200877.59745  22516371.320                    22516380.008
 114756136.497 8  89420451.829 7  21837367.234                    21837377.539
 122662793.472 7  95581497.594 6  23341958.086                    23341967.707
 117797311.203 7  91790179.382 7  22416081.203                    22416089.328
 110013715.208 8  85725066.143 7  20934886.539                    20934894.063
 116189614.498 8  90537424.94045  22110149.844                    22110158.520
 113555853.557 8  88485114.431 7  21608956.805                    21608965.152
 131055964.473 6 102121580.90742  24939122.680                    24939131.121
 116486339.260 8  90768708.63945  22166594.820                    22166600.031
 11  8 22  2 42  0.0000000  0  9G26G25G15G12G05G30G29G21G02
 118242758.791 7  92137317.09244  22500849.352                    22500857.781
 114793069.775 8  89449231.003 7  21844395.469                    21844406.250
 122567186.769 7  95506998.947 6  23323764.609                    23323774.094
 117881944.502 7  91856127.373 7  22432186.547                    22432194.715
 110070810.689 8  85769556.131 7  20945751.633                    20945759.340
 116238739.821 8  90575704.39245  22119497.703                    22119506.430
 113483820.342 8  88428984.704 7  21595249.977                    21595257.613
 131000044.629 6 102078007.05742  24928481.406                    24928490.484
 116530122.349 8  90802825.35545  22174926.469                    22174931.988
 11  8 22  2 42 30.0000000  0  9G26G25G15G12G05G30G29G21G02
 118161502.423 7  92074000.49045  22485386.672                    22485394.988
 114830490.480 8  89478389.992 7  21851516.188                    21851527.320
 122471643.037 7  95432549.348 6  23305584.047                    23305592.168
 117966814.650 7  91922259.939 7  22448336.641                    22448344.996
 110128278.548 8  85814336.291 7  20956687.320                    20956694.980
 116288310.126 8  90614330.60445  22128931.086                    22128939.586
 113412004.666 8  88373024.510 7  21581583.352                    21581591.480
 130944119.458 6 102034429.10243  24917838.859                    24917847.992
 116573993.163 8  90837010.41345  22183275.156                    22183280.539
 11  8 22  2 43  0.0000000  0  9G26G25G15G12G05G30G29G21G02
 118080562.738 7  92010930.63745  22469984.398                    22469992.719
 114868396.809 8  89507927.385 7  21858729.805                    21858740.613
 122376165.636 7  95358151.440 6  23287414.648                    23287423.430
 118051918.899 7  91988574.916 7  22464531.219                    22464539.770
 110186116.595 8  85859404.895 7  20967693.359                    20967701.113
 116338323.087 7  90653301.72145  22138448.156                    22138456.746
 113340409.057 8  88317235.778 7  21567959.211                    21567967.141
 130888188.639 6 101990846.70843  24907195.609                    24907206.000
 116617952.057 7  90871264.13345  22191639.891                    22191645.832
 11  8 22  2 43 30.0000000  0  9G26G25G15G12G05G30G29G21G02
 117999943.735 7  91948110.67245  22454642.781                    22454651.742
 114906786.889 8  89537841.722 7  21866035.211                    21866045.660
 122280757.720 7  95283807.673 6  23269258.773                    23269267.797
 118137254.640 7  92055070.298 7  22480769.813                    22480778.695
 110244323.152 8  85904760.659 7  20978769.984                    20978777.496
 116388776.209 8  90692615.82545  22148048.938                    22148057.840
 113269036.136 8  88261620.577 7  21554377.398                    21554385.313
 130832251.971 6 101947259.77943  24896551.070                    24896561.352
 116661999.646 7  90905586.96445  22200021.805                    22200027.738
 11  8 22  2 44  0.0000000  0  9G26G25G15G12G05G30G29G21G02
 117919649.174 7  91885543.53545  22439363.328                    22439372.488
 114945658.752 8  89568131.478 7  21873432.055                    21873442.387
 122185422.445 7  95209520.524 6  23251117.047                    23251126.313
 118222819.052 7  92121743.867 7  22497052.781                    22497060.449
 110302895.933 8  85950401.786 7  20989915.805                    20989923.656
 116439666.972 7  90732270.95345  22157732.836                    22157741.977
 113197888.234 8  88206180.722 7  21540838.359                    21540845.934
 130776308.993 6 101903667.97443  24885905.742                    24885915.703
 116706136.188 7  90939979.10545  22208420.422                    22208426.793
 11  8 22  2 44 30.0000000  0  9G26G25G15G12G05G30G29G21G02
 117839682.307 7  91823231.73745  22424145.875                    22424155.039
 114985009.912 8  89598794.705 7  21880920.469                    21880931.664
 122090162.657 7  95135292.195 6  23232989.766                    23232998.656
 118308608.847 7  92188593.037 7  22513377.539                    22513386.156
 110361831.598 8  85996325.683 7  21001131.109                    21001138.398
 116490992.282 7  90772264.69445  22167500.250                    22167508.797
 113126967.268 8  88150917.680 7  21527342.750                    21527350.191
 130720358.674 6 101860070.37143  24875258.625                    24875268.027
 116750361.767 8  90974440.60945  22216836.414                    22216842.344
 11  8 22  2 45  0.0000000  0  9G26G25G15G12G05G30G29G21G02
 117760046.976 7  91761178.27545  22408992.188                    22409000.645
 115024838.275 8  89629829.776 7  21888499.703                    21888510.512
 121994981.249 7  95061124.930 6  23214877.484                    23214885.594
 118394620.223 7  92255614.870 7  22529745.172                    22529753.762
 110421128.126 8  86042530.767 7  21012415.094                    21012421.816
 116542749.581 7  90812595.05245  22177349.352                    22177357.660
 113056275.537 8  88095833.274 7  21513890.641                    21513898.309
 130664400.678 6 101816466.85743  24864609.852                    24864619.840
 116794676.678 7  91008971.70045  22225269.438                    22225275.297
 11  8 22  2 45 30.0000000  0  9G26G25G15G12G05G30G29G21G02
 117680746.330 7  91699385.62345  22393901.148                    22393909.859
 115065141.604 8  89661234.974 7  21896169.164                    21896179.465
 121899881.109 7  94987020.995 6  23196779.617                    23196788.941
 118480850.722 7  92322807.452 7  22546154.867                    22546162.855
 110480782.928 8  86089015.028 7  21023766.414                    21023774.129
 116594936.107 7  90853259.86845  22187279.836                    22187288.129
 112985815.694 8  88040929.546 7  21500482.086                    21500489.914
 130608434.318 6 101772856.81143  24853959.813                    24853968.836
 116839081.191 8  91043572.60345  22233719.414                    22233725.020
 11  8 22  2 46  0.0000000  0  9G26G25G15G12G05G30G29G21G02
 117601784.438 7  91637856.90845  22378875.234                    22378884.145
 115105917.758 8  89693008.600 7  21903928.609                    21903939.160
 121804865.549 7  94912982.999 6  23178699.281                    23178708.391
 118567296.894 7  92390168.090 7  22562604.555                    22562612.914
 110540793.675 8  86135776.644 7  21035186.000                    21035193.082
 116647549.088 7  90894256.98645  22197292.094                    22197300.488
 112915589.935 8  87986208.218 7  21487118.344                    21487126.375
 130552459.188 6 101729239.93743  24843308.367                    24843316.961
 116883575.544 7  91078243.49845  22242186.188                    22242192.063
 11  8 22  2 46 30.0000000  0  9G26G25G15G12G05G30G29G21G02
 117523165.228 7  91576595.22045  22363914.570                    22363923.539
 115147164.879 8  89725149.209 7  21911777.578                    21911788.254
 121709937.922 7  94839013.495 6  23160635.000                    23160644.047
 118653956.147 7  92457694.771 7  22579094.844                    22579103.836
 110601158.393 8  86182814.081 7  21046673.172                    21046680.547
 116700586.183 7  90935584.57945  22207384.836                    22207393.078
 112845600.893 8  87931671.369 7  21473800.203                    21473808.156
 130496474.738 6 101685615.78343  24832655.266                    24832663.125
 116928160.282 7  91112984.83745  22250670.531                    22250676.148
 11  8 22  2 47  0.0000000  0  9G26G25G15G12G05G30G29G21G02
 117444891.722 7  91515602.90345  22349019.469                    22349028.633
 115188880.394 8  89757654.796 7  21919715.867                    21919726.109
 121615100.836 7  94765114.555 6  23142588.766                    23142596.754
 118740825.093 7  92525384.831 7  22595625.695                    22595634.266
 110661874.023 8  86230124.955 7  21058227.180                    21058234.266
 116754044.214 7  90977240.17445  22217557.695                    22217565.902
 112775850.413 8  87877320.380 7  21460526.875                    21460534.723
 130440480.296 6 101641983.86043  24821999.445                    24822007.309
 116972835.471 7  91147796.66645  22259172.016                    22259177.660
 11  8 22  2 47 30.0000000  0  9G26G25G15G12G05G30G29G21G02
 117366968.001 7  91454883.14745  22334191.656                    22334200.125
 115231062.277 8  89790523.800 7  21927742.984                    21927753.195
 121520357.431 7  94691288.617 6  23124559.133                    23124568.207
 118827901.170 7  92593236.279 7  22612195.844                    22612204.281
 110722938.518 8  86277707.672 7  21069847.477                    21069854.523
 116807920.710 7  91019221.84745  22227809.922                    22227818.227
 112706341.370 8  87823157.529 7  21447299.766                    21447308.066
 130384475.626 6 101598343.95543  24811342.242                    24811349.926
 117017601.538 8  91182679.30645  22267690.766                    22267696.492
 11  8 22  2 48  0.0000000  0  9G26G25G15G12G05G30G29G21G02
 117289397.447 7  91394438.60045  22319430.469                    22319438.574
 115273708.340 8  89823754.484 7  21935857.797                    21935869.422
 121425711.189 7  94617538.363 6  23106548.242                    23106556.988
 118915181.099 7  92661246.581 7  22628804.781                    22628813.305
 110784349.507 8  86325560.391 7  21081533.719                    21081540.660
 116862212.920 7  91061527.45445  22238141.359                    22238150.090
 112637076.019 8  87769184.556 7  21434119.016                    21434127.059
 130328459.974 6 101554695.50343  24800681.352                    24800690.777
 117062458.906 7  91217633.08445  22276227.172                    22276232.895
 11  8 22  2 48 30.0000000  0  9G26G25G15G12G05G30G29G21G02
 117212183.966 7  91334272.28245  22304737.266                    22304745.551
 115316816.487 8  89857345.241 7  21944061.258                    21944072.145
 121331165.214 7  94543866.260 6  23088556.664                    23088565.203
 119002661.958 7  92729413.452 7  22645451.938                    22645460.539
 110846104.784 8  86373681.379 7  21093285.109                    21093292.605
 116916918.238 7  91104154.96345  22248551.250                    22248559.988
 112568056.891 8  87715403.463 7  21420985.352                    21420992.875
 130272433.013 6 101511038.27043  24790020.734                    24790030.078
 117107407.871 7  91252658.24445  22284780.320                    22284786.602
 11  8 22  2 49  0.0000000  0  9G26G25G15G12G05G30G29G21G02
 117135331.257 7  91274387.07445  22290112.422                    22290120.594
 115360384.333 8  89891294.212 7  21952351.797                    21952362.609
 121236722.113 7  94470274.294 6  23070585.148                    23070593.684
 119090340.683 7  92797734.500 7  22662136.555                    22662145.227
 110908201.671 8  86422068.566 7  21105101.453                    21105109.168
 116972033.781 7  91147102.11345  22259039.344                    22259048.191
 112499286.301 8  87661816.013 7  21407898.438                    21407906.668
 130216394.014 6 101467371.68543  24779355.898                    24779366.211
 117152448.978 7  91287755.20345  22293351.164                    22293356.832
 11  8 22  2 49 30.0000000  0  9G26G25G15G12G05G30G29G21G02
 117058842.425 7  91214785.40245  22275557.219                    22275565.555
 115404409.392 8  89925599.443 7  21960729.797                    21960739.938
 121142385.115 7  94396765.012 6  23052633.344                    23052642.012
 119178213.848 7  92866207.073 7  22678858.453                    22678866.441
 110970637.525 8  86470719.881 7  21116982.734                    21116990.129
 117027556.517 7  91190366.57245  22269605.242                    22269613.426
 112430766.286 8  87608423.814 7  21394859.570                    21394867.016
 130160342.383 6 101423695.23443  24768690.023                    24768698.668
 117197582.289 7  91322924.01145  22301939.875                    22301945.875
 11  8 22  2 50  0.0000000  0  9G26G25G15G12G05G30G29G21G02
 116982720.739 7  91155469.83345  22261071.961                    22261079.832
 115448889.073 8  89960258.934 7  21969193.867                    21969204.289
 121048157.032 7  94323340.595 6  23034701.906                    23034710.797
 119266277.985 7  92934828.446 6  22695616.664                    22695624.629
 111033409.471 8  86519633.091 7  21128927.734                    21128934.906
 117083483.383 7  91233945.92645  22280247.438                    22280256.633
 112362499.184 8  87555228.690 7  21381869.141                    21381877.012
 130104277.477 6 101380008.45843  24758020.867                    24758030.586
 117242807.968 7  91358164.77245  22310545.656                    22310551.566
 11  8 22  2 50 30.0000000  0  9G26G25G15G12G05G30G29G21G02
 116906970.026 7  91096443.33145  22246656.961                    22246665.352
 115493820.994 8  89995270.806 7  21977744.281                    21977754.840
 120954040.727 7  94250003.270 7  23016792.273                    23016801.023
 119354530.294 7  93003596.445 6  22712410.500                    22712418.914
 111096515.241 8  86568806.421 7  21140936.406                    21140944.043
 117139811.425 7  91277837.88945  22290966.992                    22290974.859
 112294487.079 8  87502232.270 7  21368926.609                    21368934.621
 130048198.927 6 101336310.98443  24747349.352                    24747358.270
 117288126.056 7  91393477.53045  22319170.344                    22319175.516
 11  8 22  2 51  0.0000000  0  9G26G25G15G12G05G30G29G21G02
 116831594.049 7  91037708.83345  22232313.430                    22232321.469
 115539203.166 8  90030633.523 7  21986380.383                    21986390.910
 120860039.925 7  94176755.962 6  22998904.641                    22998913.043
 119442968.107 7  93072509.004 6  22729239.648                    22729247.652
 111159952.625 8  86618238.158 7  21153008.227                    21153015.668
 117196538.292 7  91322040.64745  22301761.617                    22301769.539
 112226732.807 8  87449436.747 7  21356033.352                    21356040.867
 129992105.850 6 101292602.21843  24736675.563                    24736684.457
 117333537.488 8  91428863.03345  22327811.789                    22327816.805
 11  8 22  2 51 30.0000000  0  9G26G25G15G12G05G30G29G21G02
 116756596.227 7  90979269.00745  22218041.586                    22218049.969
 115585033.128 8  90066345.176 7  21995101.141                    21995111.395
 120766157.316 7  94103600.755 6  22981039.258                    22981047.855
 119531587.992 7  93141563.441 6  22746103.188                    22746111.605
 111223719.182 8  86667926.388 7  21165142.266                    21165149.770
 117253660.856 7  91366551.72145  22312631.141                    22312640.238
 112159238.567 8  87396843.848 7  21343189.547                    21343197.785
 129935997.986 7 101248881.94143  24725999.031                    24726007.648
 117379042.377 7  91464321.36345  22336471.063                    22336476.848
 11  8 22  2 52  0.0000000  0 10G26G25G15G18G12G05G30G29G21G02
 116681980.231 7  90921126.70245  22203843.156                    22203850.879
 115631308.377 8  90102403.808 7  22003906.898                    22003917.668
 120672396.087 7  94030540.110 6  22963197.219                    22963205.438
 129701453.84216                  24681372.016
 119620386.822 7  93210757.302 6  22763001.648                    22763009.516
 111287812.348 8  86717869.119 7  21177339.352                    21177346.566
 117311176.325 7  91411368.97245  22323575.898                    22323584.410
 112092006.629 8  87344455.340 7  21330395.695                    21330403.566
 129879874.745 7 101205149.64243  24715318.555                    24715327.988
 117424640.970 7  91499852.75045  22345147.992                    22345153.508
 11  8 22  2 52 30.0000000  0 10G26G25G15G18G12G05G30G29G21G02
 116607748.847 7  90863284.11845  22189716.508                    22189725.008
 115678026.042 8  90138807.176 7  22012797.516                    22012807.832
 120578758.729 7  93957576.008 6  22945378.359                    22945387.023
 129611910.433 6 100996352.05553  24664333.148                    24664342.867
 119709361.097 7  93280087.880 6  22779933.023                    22779940.957
 111352228.874 8  86768063.828 7  21189597.180                    21189604.547
 117369081.161 7  91456489.61345  22334595.258                    22334603.359
 112025039.060 8  87292272.825 7  21317651.945                    21317660.648
 129823735.359 6 101161404.73743  24704635.156                    24704645.332
 117470333.078 7  91535456.97345  22353842.297                    22353848.184
 11  8 22  2 53  0.0000000  0 10G26G25G15G18G12G05G30G29G21G02
 116533906.231 7  90805744.45445  22175664.789                    22175673.602
 115725184.057 8  90175553.671 7  22021770.805                    22021781.262
 120485248.574 6  93884711.006 6  22927583.984                    22927592.363
 129522531.142 6 100926705.95443  24647323.578                    24647334.211
 119798508.134 7  93349553.058 6  22796896.898                    22796904.891
 111416967.067 8  86818509.180 7  21201916.523                    21201924.215
 117427372.994 7  91501911.80445  22345687.570                    22345696.207
 111958338.514 8  87240298.379 7  21304959.516                    21304967.727
 129767579.300 6 101117646.87243  24693949.352                    24693959.027
 117516119.521 7  91571134.72645  22362555.672                    22362561.273
 11  8 22  2 53 30.0000000  0 10G26G25G15G18G12G05G30G29G21G02
 116460456.014 7  90748510.55245  22161688.258                    22161696.605
 115772780.287 8  90212641.620 7  22030828.344                    22030838.980
 120391869.284 7  93811948.000 6  22909814.430                    22909823.027
 129433317.576 6 100857189.05643  24630346.086                    24630357.473
 119887825.152 7  93419150.693 6  22813892.961                    22813901.371
 111482024.443 8  86869203.246 7  21214296.352                    21214304.066
 117486049.064 7  91547633.41945  22356853.070                    22356861.840
 111891907.688 8  87188534.115 7  21292318.039                    21292325.941
 129711406.591 6 101073876.04843  24683260.258                    24683270.074
 117562000.981 8  91606886.50445  22371286.578                    22371292.375
 11  8 22  2 54  0.0000000  0 10G26G25G15G18G12G05G30G29G21G02
 116387401.820 7  90691585.24845  22147785.836                    22147794.625
 115820812.288 8  90250069.140 7  22039968.539                    22039979.020
 120298623.920 7  93739289.330 6  22892070.461                    22892078.570
 129344271.104 6 100787802.37743  24613401.094                    24613413.086
 119977308.804 7  93488878.187 6  22830921.516                    22830929.723
 111547398.815 8  86920144.320 7  21226736.680                    21226744.434
 117545106.554 7  91593652.22245  22368091.391                    22368100.164
 111825748.753 8  87136981.722 7  21279728.297                    21279736.691
 129655216.656 6 101030091.77343  24672566.992                    24672576.621
 117607977.724 8  91642712.52645  22380036.078                    22380041.613
 11  8 22  2 54 30.0000000  0 10G26G25G15G18G12G05G30G29G21G02
 116314747.187 7  90634971.28645  22133960.711                    22133968.820
 115869277.614 8  90287834.321 7  22049191.164                    22049201.883
 120205515.407 6  93666737.297 6  22874352.016                    22874360.648
 129255393.089 6 100718546.91643  24596488.711                    24596499.191
 120066956.468 7  93558733.468 7  22847980.609                    22847988.809
 111613087.681 8  86971330.458 7  21239236.984                    21239244.617
 117604542.545 7  91639965.97145  22379401.750                    22379410.148
 111759864.443 8  87085643.317 7  21267191.117                    21267199.051
 129599009.102 6 100986293.75943  24661871.914                    24661881.105
 117654049.953 7  91678612.95845  22388802.938                    22388808.734
 11  8 22  2 55  0.0000000  0 10G26G25G15G18G12G05G30G29G21G02
 116242495.125 7  90578671.00945  22120211.453                    22120219.668
 115918173.546 8  90325935.036 7  22058495.906                    22058506.465
 120112546.695 6  93594294.213 6  22856660.797                    22856669.234
 129166684.617 6 100649423.55443  24579608.305                    24579618.660
 120156764.500 7  93628713.714 7  22865070.711                    22865079.336
 111679088.156 8  87022759.412 7  21251796.500                    21251804.059
 117664353.852 7  91686572.17445  22390783.547                    22390792.078
 111694256.824 8  87034520.519 7  21254706.578                    21254714.090
 129542782.984 6 100942481.26043  24651172.078                    24651180.500
 117700218.080 7  91714588.09745  22397588.586                    22397594.316
 11  8 22  2 55 30.0000000  0 10G26G25G15G18G12G05G30G29G21G02
 116170649.654 7  90522687.56845  22106539.414                    22106548.063
 115967497.722 8  90364369.440 7  22067882.055                    22067892.500
 120019721.252 6  93521962.759 6  22838996.922                    22839005.504
 129078147.029 6 100580433.35843  24562759.281                    24562770.695
 120246730.334 7  93698816.931 7  22882190.539                    22882199.449
 111745397.976 8  87074429.408 7  21264414.797                    21264422.660
 117724537.621 7  91733468.61145  22402236.273                    22402244.859
 111628928.360 8  86983615.257 7  21242274.875                    21242282.227
 129486537.769 6 100898653.91843  24640468.625                    24640476.914
 117746482.620 7  91750638.39745  22406391.883                    22406398.414
 11  8 22  2 56  0.0000000  0 10G26G25G15G18G12G05G30G29G21G02
 116099214.159 7  90467023.58845  22092945.445                    22092954.051
 116017247.678 8  90403135.615 7  22077348.891                    22077359.875
 119927041.914 7  93449745.141 6  22821360.227                    22821368.434
 128989781.488 6 100511577.20343  24545944.484                    24545954.402
 120336850.833 7  93769040.663 6  22899339.938                    22899348.395
 111812014.756 8  87126338.608 7  21277091.820                    21277099.676
 117785091.014 7  91780653.05045  22413759.109                    22413768.035
 111563881.368 8  86932929.314 7  21229896.594                    21229903.664
 129430273.460 6 100854811.64243  24629761.625                    24629770.285
 117792843.921 7  91786764.08745  22415214.117                    22415220.129
 11  8 22  2 56 30.0000000  0 10G26G25G15G18G12G05G30G29G21G02
 116028191.682 7  90411681.43345  22079430.820                    22079439.191
 116067420.720 8  90442231.476 7  22086896.695                    22086907.512
 119834511.970 7  93377643.959 6  22803752.273                    22803761.230
 128901589.529 6 100442856.29943  24529161.336                    24529172.840
 120427122.332 7  93839382.054 6  22916517.680                    22916526.672
 111878935.838 8  87178484.903 7  21289826.344                    21289834.063
 117846010.814 7  91828123.01545  22425351.969                    22425360.438
 111499118.054 8  86882464.431 7  21217572.594                    21217580.598
 129373989.237 6 100810953.88643  24619051.109                    24619058.773
 117839302.189 7  91822965.32945  22424055.438                    22424060.945
 11  8 22  2 57  0.0000000  0 10G26G25G15G18G12G05G30G29G21G02
 115957586.483 7  90356664.43445  22065994.625                    22066002.949
 116118014.759 8  90481655.375 7  22096524.461                    22096535.070
 119742134.642 7  93305661.674 6  22786173.023                    22786181.730
 128813572.454 6 100374271.73443  24512411.945                    24512423.863
 120517542.462 7  93909839.297 6  22933724.586                    22933733.047
 111946159.067 8  87230866.658 7  21302618.039                    21302625.863
 117907294.564 7  91875876.58145  22437013.430                    22437022.332
 111434641.332 8  86832222.874 7  21205303.164                    21205310.906
 129317684.869 6 100767080.41643  24608336.461                    24608344.797
 117885858.294 7  91859242.79745  22432914.867                    22432920.031
 11  8 22  2 57 30.0000000  0 10G26G25G15G18G12G05G30G29G21G02
 115887401.282 7  90301974.70545  22052638.547                    22052647.000
 116169026.527 8  90521404.790 7  22106231.789                    22106242.281
 119649912.417 7  93233800.248 6  22768623.945                    22768632.555
 128725731.199 6 100305824.19743  24495696.539                    24495707.410
 120608107.582 7  93980409.476 6  22950958.617                    22950966.824
 112013681.515 8  87283481.572 7  21315467.492                    21315474.809
 117968938.554 7  91923910.82245  22448744.094                    22448753.090
 111370452.943 8  86782205.973 7  21193088.438                    21193096.195
 129261359.422 6 100723190.53343  24597617.719                    24597626.688
 117932512.213 7  91895596.49245  22441793.180                    22441798.156
 11  8 22  2 58  0.0000000  0 10G26G25G15G18G12G05G30G29G21G02
 115817640.292 7  90247615.51445  22039363.813                    22039371.879
 116220454.402 8  90561478.436 7  22116018.086                    22116028.664
 119557849.252 7  93162062.768 6  22751105.266                    22751113.320
 128638067.776 5 100237515.22542  24479014.922                    24479025.660
 120698815.563 7  94051091.001 6  22968219.672                    22968227.816
 112081501.624 8  87336328.419 7  21328373.297                    21328380.609
 118030940.691 7  91972224.18745  22460542.680                    22460551.035
 111306556.174 8  86732416.327 7  21180929.078                    21180937.109
 129205013.023 6 100679284.31343  24586895.984                    24586903.566
 117979264.661 7  91932026.97145  22450689.422                    22450695.008
 11  8 22  2 58 30.0000000  0 10G26G25G15G18G12G05G30G29G21G02
 115748306.726 7  90193589.39645  22026170.406                    22026178.324
 116272295.539 8  90601874.090 7  22125882.781                    22125893.391
 119465948.169 7  93090451.573 6  22733617.156                    22733625.008
 128550582.914 6 100169345.37943  24462366.008                    24462377.012
 120789663.120 7  94121881.274 6  22985507.586                    22985515.488
 112149616.568 8  87389405.003 7  21341334.984                    21341342.504
 118093297.722 7  92020814.07045  22472408.773                    22472417.598
 111242953.385 8  86682855.749 7  21168825.508                    21168833.734
 129148645.241 6 100635361.47943  24576169.242                    24576177.461
 118026115.898 7  91968534.42545  22459604.875                    22459610.953
 11  8 22  2 59  0.0000000  0 10G26G25G15G18G12G05G30G29G21G02
 115679403.442 7  90139898.55245  22013058.117                    22013066.020
 116324546.801 8  90642589.341 7  22135825.984                    22135837.039
 119374211.904 7  93018968.819 6  22716160.086                    22716168.461
 128463277.428 6 100101315.23443  24445753.148                    24445763.207
 120880646.274 7  94192777.215 6  23002821.430                    23002829.141
 112218023.182 8  87442708.868 7  21354352.688                    21354359.602
 118156006.145 7  92069677.75545  22484341.984                    22484350.996
 111179646.072 8  86633525.409 7  21156778.695                    21156786.551
 129092254.909 7 100591420.98043  24565438.758                    24565447.340
 118073066.051 7  92005118.95745  22468539.328                    22468545.117
 11  8 22  2 59 30.0000000  0 10G26G25G15G18G12G05G30G29G21G02
 115610933.602 7  90086545.47145  22000029.344                    22000037.043
 116377205.215 8  90683621.858 7  22145846.641                    22145856.867
 119282643.086 7  92947616.540 6  22698734.688                    22698743.668
 128376152.214 6 100033425.59843  24429173.430                    24429183.688
 120971761.913 7  94263776.401 6  23020159.813                    23020168.340
 112286718.723 8  87496237.871 7  21367424.469                    21367431.902
 118219062.535 7  92118812.59945  22496341.273                    22496349.715
 111116636.188 8  86584426.831 7  21144788.617                    21144796.098
 129035841.494 6 100547462.51543  24554704.016                    24554712.398
 118120115.134 7  92041780.56945  22477492.266                    22477498.051
 11  8 22  3  0  0.0000000  0 10G26G25G15G18G12G05G30G29G21G02
 115542901.212 7  90033533.24945  21987082.430                    21987091.238
 116430268.758 8  90724970.052 7  22155944.477                    22155955.035
 119191245.447 7  92876397.644 6  22681342.875                    22681351.082
 128289209.072 6  99965677.86443  24412628.984                    24412639.070
 121063007.476 7  94334876.807 6  23037523.609                    23037531.680
 112355701.490 8  87549990.683 7  21380551.680                    21380559.363
 118282464.529 7  92168216.73145  22508406.445                    22508415.063
 111053926.859 8  86535562.457 7  21132855.563                    21132862.715
 128979404.633 7 100503485.79743  24543964.234                    24543972.977
 118167264.059 7  92078519.98345  22486464.180                    22486469.984
 11  8 22  3  0 30.0000000  0 10G26G25G15G18G12G05G30G29G21G02
 115475309.319 8  89980864.26545  21974220.039                    21974228.422
 116483734.572 8  90766631.711 7  22166118.656                    22166129.031
 119100021.761 7  92805314.299 6  22663983.148                    22663991.895
 128202449.333 6  99898073.00443  24396118.633                    24396129.148
 121154380.057 7  94406076.198 6  23054910.813                    23054919.027
 112424968.626 8  87603965.089 7  21393732.844                    21393740.188
 118346208.726 7  92217887.51845  22520536.227                    22520544.746
 110991520.198 8  86486933.922 7  21120979.961                    21120987.711
 128922943.937 6 100459490.50143  24533219.922                    24533228.621
 118214512.985 7  92115337.32245  22495455.258                    22495460.922
 11  8 22  3  1  0.0000000  0 10G26G25G15G18G12G05G30G29G21G02
 115408161.773 8  89928541.53745  21961442.359                    21961450.621
 116537600.329 8  90808605.002 7  22176369.492                    22176379.410
 119008975.592 7  92734369.285 7  22646657.773                    22646666.039
 128115874.352 6  99830612.09443  24379643.844                    24379654.395
 121245876.259 7  94477371.911 6  23072321.781                    23072330.668
 112494517.944 8  87658159.356 7  21406967.648                    21406974.977
 118410292.496 7  92267822.91745  22532731.461                    22532739.883
 110929419.169 8  86438543.533 7  21109162.266                    21109169.934
 128866459.268 6 100415476.53743  24522470.828                    24522479.566
 118261862.699 7  92152233.19645  22504465.922                    22504471.641
 11  8 22  3  1 30.0000000  0 10G26G25G15G18G12G05G30G29G21G02
 115341461.628 7  89876567.42645  21948749.758                    21948758.219
 116591863.142 8  90850887.698 7  22186694.930                    22186705.336
 118918109.838 7  92663564.851 7  22629366.148                    22629375.043
 128029484.931 6  99763295.83143  24363204.492                    24363215.520
 121337493.079 7  94548761.623 6  23089756.117                    23089764.418
 112564346.919 8  87712571.553 7  21420255.570                    21420263.086
 118474712.601 7  92318020.37545  22544989.477                    22544998.848
 110867625.541 7  86390392.687 7  21097403.313                    21097411.168
 128809950.214 7 100371443.60943  24511717.695                    24511725.180
 118309313.344 7  92189207.70445  22513495.328                    22513501.246
 11  8 22  3  2  0.0000000  0 10G26G25G15G18G12G05G30G29G21G02
 115275212.524 7  89824944.78545  21936142.930                    21936151.250
 116646520.739 8  90893478.017 7  22197096.469                    22197106.832
 118827427.839 7  92592903.601 6  22612110.305                    22612118.563
 127943282.602 6  99696125.36243  24346800.430                    24346811.094
 121429227.818 7  94620243.206 6  23107212.094                    23107221.465
 112634453.293 8  87767199.899 7  21433596.664                    21433603.777
 118539466.266 7  92368477.75045  22557312.273                    22557321.109
 110806142.492 7  86342483.844 7  21085703.609                    21085711.184
 128753416.178 6 100327391.17843  24500959.430                    24500967.770
 118356865.827 7  92226261.57145  22522544.555                    22522550.953
 11  8 22  3  2 30.0000000  0 10G26G25G15G18G12G05G30G29G21G02
 115209417.623 7  89773676.06045  21923622.578                    21923630.797
 116701570.170 8  90936373.659 7  22207571.617                    22207582.074
 118736932.912 7  92522388.133 7  22594889.906                    22594898.203
 127857268.384 6  99629101.45443  24330432.742                    24330442.789
 121521077.146 7  94691814.097 6  23124691.297                    23124699.914
 112704834.514 8  87822042.412 7  21446989.586                    21446996.918
 118604550.252 7  92419192.51245  22569696.875                    22569705.949
 110744971.861 8  86294818.436 7  21074063.273                    21074070.676
 128696856.766 6 100283319.02243  24490196.094                    24490204.762
 118404520.126 7  92263394.75545  22531612.844                    22531619.223
 11  8 22  3  3  0.0000000  0 10G26G25G15G18G12G05G30G29G21G02
 115144080.282 8  89722763.87545  21911189.500                    21911197.563
 116757008.696 8  90979572.490 7  22218121.227                    22218131.465
 118646627.947 7  92452020.681 7  22577704.563                    22577713.512
 127771443.483 6  99562224.97543  24314101.031                    24314110.480
 121613038.438 7  94763472.204 6  23142190.781                    23142199.898
 112775488.111 8  87877097.161 7  21460434.242                    21460441.953
 118669961.304 7  92470162.14245  22582144.266                    22582153.563
 110684116.055 8  86247398.345 7  21062482.445                    21062490.203
 128640271.512 6 100239226.71943  24479428.344                    24479437.984
 118452276.637 7  92300607.60445  22540700.594                    22540706.559
 11  8 22  3  3 30.0000000  0 10G26G25G15G18G12G05G30G29G21G02
 115079203.242 8  89672210.35945  21898843.695                    21898851.898
 116812833.149 8  91023072.042 7  22228744.133                    22228754.898
 118556515.329 7  92381803.116 7  22560557.156                    22560565.656
 127685808.749 6  99495496.74543  24297804.766                    24297814.711
 121705107.792 7  94835214.520 6  23159711.023                    23159719.563
 112846411.035 8  87932361.776 7  21473930.156                    21473937.891
 118735696.052 7  92521383.98445  22594653.383                    22594662.008
 110623576.788 8  86200224.896 7  21050962.281                    21050969.914
 128583659.379 6 100195113.45943  24468656.023                    24468664.852
 118500135.673 7  92337900.35545  22549807.289                    22549813.418
 11  8 22  3  4  0.0000000  0 10G26G25G15G18G12G05G30G29G21G02
 115014790.680 8  89622018.80145  21886586.656                    21886594.656
 116869041.421 8  91066870.659 7  22239440.305                    22239450.797
 118466598.950 7  92311738.456 7  22543446.789                    22543454.711
 127600365.948 6  99428918.05843  24281544.188                    24281555.035
 121797282.940 7  94907039.269 6  23177251.648                    23177259.559
 112917601.334 8  87987834.728 7  21487477.773                    21487485.238
 118801752.012 7  92572856.12545  22607223.469                    22607232.238
 110563357.588 8  86153300.858 7  21039503.008                    21039510.699
 128527020.391 6 100150979.27143  24457877.641                    24457885.383
 118548098.142 7  92375273.68045  22558934.664                    22558940.230
 11  8 22  3  4 30.0000000  0 10G26G25G15G18G12G05G30G29G21G02
 114950845.520 8  89572191.43045  21874417.898                    21874426.477
 116925630.796 8  91110966.251 7  22250208.766                    22250219.652
 118376881.871 7  92241829.102 7  22526374.336                    22526382.367
 127515115.921 6  99362489.58943  24265321.828                    24265332.414
 121889560.945 7  94978944.185 6  23194811.273                    23194819.383
 112989056.520 8  88043514.091 7  21501074.883                    21501082.551
 118868126.019 7  92624576.09945  22619854.070                    22619863.090
 110503460.452 8  86106627.779 7  21028104.836                    21028112.598
 128470354.177 7 100106823.90443  24447093.930                    24447102.418
 118596164.340 7  92412727.85444  22568081.234                    22568086.977
 11  8 22  3  5  0.0000000  0 10G26G25G15G18G12G05G30G29G21G02
 114887370.996 7  89522730.78845  21862339.563                    21862347.469
 116982598.215 7  91155356.430 7  22261049.609                    22261060.188
 118287367.321 7  92172077.557 7  22509340.281                    22509347.883
 127430059.622 6  99296212.09443  24249137.086                    24249146.746
 121981938.445 7  95050926.630 6  23212389.766                    23212398.363
 113060774.331 8  88099398.085 7  21514722.297                    21514730.086
 118934814.730 7  92676541.30245  22632544.578                    22632553.379
 110443887.573 8  86060207.373 7  21016768.703                    21016776.684
 128413660.595 6 100062647.21343  24436305.320                    24436314.570
 118644334.252 7  92450262.79245  22577247.742                    22577252.898
 11  8 22  3  5 30.0000000  0 10G26G25G15G18G12G05G30G29G21G02
 114824370.373 7  89473639.41245  21850350.945                    21850358.313
 117039941.106 7  91200039.184 7  22271961.203                    22271972.293
 118198058.227 7  92102486.114 7  22492345.516                    22492353.297
 127345198.515 6  99230086.67643  24232988.680                    24232998.344
 122074411.919 7  95122983.866 6  23229987.539                    23229996.047
 113132752.081 8  88155484.642 7  21528419.625                    21528426.973
 119001815.198 7  92728749.41745  22645294.445                    22645303.086
 110384641.212 8  86014041.395 7  21005494.258                    21005501.730
 128356938.695 6 100018448.44543  24425511.164                    24425520.551
 118692608.817 7  92487879.31945  22586434.516                    22586439.676
 11  8 22  3  6  0.0000000  0 10G26G25G15G18G12G05G30G29G21G02
 114761847.106 8  89424920.00145  21838452.898                    21838460.551
 117097656.786 7  91245012.399 7  22282944.414                    22282955.719
 118108957.896 7  92033057.336 7  22475389.445                    22475397.988
 127260533.430 6  99164114.04543  24216876.625                    24216886.910
 122166978.934 7  95195113.985 6  23247602.422                    23247611.430
 113204987.516 8  88211771.978 7  21542165.141                    21542172.504
 119069124.397 7  92781198.10345  22658103.141                    22658111.859
 110325724.099 8  85968131.962 7  20994282.828                    20994290.395
 128300188.332 6  99974227.50143  24414711.719                    24414721.152
 118740988.344 7  92525577.61945  22595640.930                    22595646.813
 11  8 22  3  6 30.0000000  0 10G26G25G15G18G12G05G30G29G21G02
 114699804.169 8  89376574.88345  21826646.547                    21826654.418
 117155742.363 7  91290273.881 7  22293997.688                    22294008.566
 118020069.153 7  91963793.440 7  22458474.617                    22458482.648
 127176065.781 6  99098295.25743  24200802.539                    24200813.145
 122259636.568 7  95267314.714 6  23265234.320                    23265243.742
 113277477.999 8  88268258.050 7  21555959.477                    21555967.035
 119136739.017 7  92833884.80145  22670969.883                    22670977.914
 110267138.529 8  85922480.878 7  20983134.367                    20983142.398
 128243409.237 6  99929984.16543  24403907.336                    24403915.926
 118789473.101 7  92563357.92745  22604867.727                    22604873.496
 11  8 22  3  7  0.0000000  0 10G26G25G15G18G12G05G30G29G21G02
 114638244.894 8  89328606.64745  21814931.859                    21814940.082
 117214194.948 7  91335821.329 7  22305121.125                    22305131.766
 117931395.289 7  91894696.965 7  22441600.594                    22441608.879
 127091796.730 6  99032631.25343  24184767.273                    24184777.277
 122352381.460 7  95339583.452 6  23282883.258                    23282892.008
 113350221.122 8  88324940.989 7  21569802.109                    21569809.668
 119204656.014 7  92886807.11845  22683893.930                    22683902.641
 110208886.968 8  85877090.075 7  20972049.570                    20972057.176
 128186600.718 6  99885717.90143  24393097.836                    24393105.871
 118838063.830 7  92601220.83645  22614113.375                    22614119.855
 11  8 22  3  7 30.0000000  0 10G26G25G15G18G12G05G30G29G21G02
 114577172.226 7  89281017.58345  21803310.258                    21803318.586
 117273011.587 7  91381652.466 7  22316313.203                    22316323.977
 117842939.350 7  91825770.307 7  22424767.734                    22424776.027
 127007726.661 6  98967122.24643  24168768.680                    24168778.879
 122445210.541 7  95411917.772 6  23300547.695                    23300556.715
 113423214.166 8  88381818.669 7  21583692.180                    21583700.102
 119272871.940 7  92939962.34445  22696874.586                    22696884.348
 110150970.949 8  85831960.737 7  20961028.172                    20961036.164
 128129762.218 6  99841428.30543  24382280.773                    24382289.918
 118886760.441 7  92639166.23445  22623380.258                    22623386.156
 11  8 22  3  8  0.0000000  0 10G26G25G15G18G12G05G30G29G21G02
 114516589.011 8  89233809.91645  21791781.398                    21791789.902
 117332189.212 7  91427764.883 7  22327574.461                    22327585.688
 117754704.030 7  91757015.572 7  22407977.227                    22407985.293
 126923856.689 6  98901769.17543  24152808.727                    24152818.191
 122538120.527 7  95484315.128 6  23318228.094                    23318236.645
 113496454.588 8  88438889.120 7  21597629.703                    21597636.969
 119341383.522 7  92993347.95645  22709911.906                    22709921.355
 110093392.574 8  85787094.500 7  20950071.445                    20950079.223
 128072893.253 6  99797114.94343  24371458.891                    24371467.969
 118935563.299 7  92677194.42845  22632667.117                    22632672.801
 11  8 22  3  8 30.0000000  0 10G26G25G15G18G12G05G30G29G21G02
 114456499.231 7  89186986.75045  21780346.805                    21780355.348
 117391725.728 7  91474156.966 7  22338904.250                    22338914.594
 117666693.185 7  91688435.747 7  22391228.914                    22391238.273
 126840188.436 6  98836573.30543  24136886.758                    24136896.535
 122631109.060 6  95556773.708 6  23335923.313                    23335931.883
 113569940.571 8  88496150.921 7  21611613.586                    21611620.820
 119410188.261 7  93046961.99945  22723005.125                    22723014.789
 110036155.485 8  85742494.192 7  20939179.453                    20939187.066
 128015993.854 6  99752777.87243  24360631.094                    24360640.059
 118984473.544 7  92715306.28445  22641974.578                    22641979.742
 11  8 22  3  9  0.0000000  0 10G26G25G15G18G12G05G30G29G21G02
 114396905.787 7  89140550.34145  21769006.984                    21769014.816
 117451617.990 7  91520826.262 7  22350301.039                    22350311.891
 117578909.826 7  91620033.187 7  22374524.078                    22374532.926
 126756723.138 6  98771535.54743  24121004.273                    24121013.613
 122724172.795 6  95629290.884 6  23353633.102                    23353641.457
 113643669.247 8  88553601.829 7  21625643.555                    21625651.262
 119479282.751 7  93100801.84545  22736153.578                    22736163.160
 109979261.806 7  85698161.485 7  20928353.195                    20928360.742
 127959063.602 6  99708416.76943  24349797.930                    24349806.359
 119033491.423 7  92753502.01245  22651302.469                    22651307.586
 11  8 22  3  9 30.0000000  0 10G26G25G15G18G12G05G30G29G21G02
 114337811.750 7  89094503.07445  21757761.289                    21757769.066
 117511863.209 7  91567770.578 7  22361765.594                    22361776.191
 117491356.905 7  91551810.178 7  22357863.813                    22357872.254
 126673461.530 6  98706656.55843  24105159.805                    24105169.207
 122817308.998 6  95701864.532 6  23371356.313                    23371364.770
 113717638.284 8  88611240.033 7  21639719.539                    21639727.074
 119548663.819 7  93154865.00045  22749356.234                    22749365.207
 109922713.713 8  85654098.065 7  20917592.328                    20917599.930
 127902102.005 6  99664031.21043  24338958.656                    24338966.711
 119082617.218 7  92791781.81445  22660650.766                    22660656.516
 11  8 22  3 10  0.0000000  0 10G26G25G15G18G12G05G30G29G21G02
 114279220.056 7  89048847.24345  21746611.398                    21746619.652
 117572458.346 7  91614987.554 7  22373296.133                    22373306.391
 117404037.506 7  91483769.136 7  22341247.430                    22341256.023
 126590404.614 6  98641937.02843  24089354.227                    24089363.883
 122910514.283 7  95774492.030 6  23389091.938                    23389101.023
 113791845.263 8  88669063.645 7  21653840.828                    21653847.891
 119618328.187 7  93209148.90945  22762613.195                    22762622.109
 109866513.138 8  85610305.446 7  20906897.711                    20906905.258
 127845108.395 6  99619620.71543  24328112.953                    24328121.500
 119131851.351 7  92830146.06645  22670019.578                    22670026.383
 11  8 22  3 10 30.0000000  0 10G26G25G15G18G12G05G30G29G21G02
 114221134.116 7  89003585.49845  21735558.313                    21735566.016
 117633400.836 7  91662475.217 7  22384893.000                    22384903.523
 117316954.701 7  91415912.456 7  22324675.656                    22324684.246
 126507553.533 6  98577377.93443  24073588.219                    24073597.988
 123003785.976 7  95847171.257 6  23406841.648                    23406849.926
 113866288.075 8  88727071.020 7  21668006.906                    21668014.016
 119688273.014 7  93263651.33744  22775923.313                    22775932.414
 109810663.054 8  85566785.931 7  20896269.836                    20896277.418
 127788082.685 6  99575185.19143  24317260.680                    24317269.285
 119181194.799 7  92868595.50345  22679408.883                    22679416.441
 11  8 22  3 11  0.0000000  0 10G26G25G15G18G12G05G30G29G21G02
 114163557.093 7  88958720.30645  21724601.359                    21724610.031
 117694687.895 7  91710231.357 7  22396555.828                    22396566.598
 117230112.125 7  91348242.966 7  22308150.172                    22308158.723
 126424909.547 6  98512980.18143  24057861.102                    24057871.266
 123097121.109 7  95919899.925 6  23424602.477                    23424610.879
 113940964.113 8  88785260.126 7  21682216.586                    21682224.535
 119758495.192 7  93318369.92244  22789285.875                    22789294.402
 109755165.748 7  85523541.316 7  20885709.305                    20885716.680
 127731024.717 6  99530724.50543  24306402.938                    24306411.383
 119230647.577 7  92907130.13545  22688819.367                    22688826.781
 11  8 22  3 11 30.0000000  0 10G26G25G15G18G12G05G30G29G21G02
 114106491.767 7  88914253.86745  21713742.336                    21713750.434
 117756316.282 7  91758253.462 7  22408283.586                    22408293.836
 117143512.302 7  91280762.630 7  22291670.742                    22291679.102
 126342473.700 6  98448744.66843  24042173.961                    24042184.012
 123190516.486 7  95992675.533 6  23442375.336                    23442383.563
 114015870.647 8  88843628.843 7  21696471.328                    21696478.863
 119828991.193 7  93373301.87944  22802700.391                    22802709.773
 109700023.065 8  85480573.012 7  20875215.711                    20875223.469
 127673933.722 6  99486238.09943  24295538.945                    24295547.074
 119280210.056 7  92945750.23845  22698250.453                    22698257.750
 11  8 22  3 12  0.0000000  0 10G26G25G15G18G12G05G30G29G21G02
 114049940.975 7  88870188.35145  21702980.922                    21702989.293
 117818283.076 7  91806539.263 7  22420075.266                    22420085.516
 117057158.336 7  91213473.876 7  22275238.406                    22275246.230
 126260246.343 6  98384671.58743  24026526.766                    24026536.762
 123283969.443 7  96065496.002 6  23460158.734                    23460167.191
 114091005.386 8  88902175.386 7  21710769.086                    21710776.836
 119899757.781 7  93428444.64645  22816167.375                    22816176.715
 109645237.453 7  85437882.954 7  20864789.984                    20864797.664
 127616809.446 6  99441725.71743  24284668.523                    24284675.973
 119329882.812 7  92984456.27544  22707702.813                    22707710.102
 11  8 22  3 12 30.0000000  0 10G26G25G15G18G12G05G30G29G21G02
 113993908.372 7  88826526.60645  21692318.242                    21692326.574
 117880585.620 7  91855086.680 7  22431930.938                    22431941.484
 116971053.538 7  91146379.277 7  22258853.047                    22258861.234
 126178228.916 6  98320762.09243  24010918.859                    24010929.035
 123377476.597 6  96138358.709 6  23477952.570                    23477960.742
 114166366.030 8  88960897.952 7  21725109.734                    21725117.551
 119970791.981 7  93483795.96345  22829684.906                    22829693.691
 109590811.178 7  85395472.894 7  20854433.297                    20854440.945
 127559651.576 6  99397187.18943  24273792.016                    24273799.422
 119379666.325 7  93023248.61345  22717176.930                    22717183.383
 11  8 22  3 13  0.0000000  0 10G26G25G15G18G12G05G30G29G21G02
 113938396.324 7  88783270.50845  21681754.820                    21681762.875
 117943220.889 7  91903893.381 7  22443850.188                    22443860.633
 116885200.853 7  91079481.122 7  22242515.883                    22242523.902
 126096422.336 6  98257016.85543  23995352.656                    23995361.297
 123471035.223 6  96211261.525 6  23495755.961                    23495765.047
 114241950.227 8  89019794.714 7  21739492.805                    21739500.250
 120042090.623 7  93539353.33945  22843251.789                    22843261.016
 109536746.843 8  85353344.868 7  20844145.164                    20844152.383
 127502459.643 7  99352622.12344  24262908.773                    24262917.004
 119429561.037 7  93062127.57745  22726671.930                    22726678.012
 11  8 22  3 13 30.0000000  0 10G26G25G15G18G12G05G30G29G21G02
 113883408.234 7  88740422.67745  21671290.656                    21671299.137
 118006185.959 7  91952957.060 7  22455831.602                    22455842.207
 116799603.532 7  91012781.955 7  22226227.438                    22226235.520
 126014827.624 6  98193436.69943  23979825.383                    23979834.457
 123564641.939 6  96284201.816 6  23513569.133                    23513577.613
 114317755.454 8  89078863.715 7  21753918.273                    21753925.465
 120113650.402 7  93595114.19245  22856870.047                    22856878.496
 109483046.405 8  85311500.387 7  20833926.305                    20833933.840
 127445233.243 7  99308030.19744  24252018.727                    24252026.520
 119479567.405 7  93101093.54945  22736187.766                    22736193.215
 11  8 22  3 14  0.0000000  0 10G26G25G15G18G12G05G30G29G21G02
 113828946.753 7  88697985.20145  21660926.789                    21660935.656
 118069477.692 7  92002275.283 7  22467875.797                    22467886.395
 116714264.408 7  90946283.992 7  22209987.859                    22209996.125
 125933445.552 6  98130022.27143  23964338.664                    23964347.836
 123658293.956 7  96357177.393 6  23531390.805                    23531399.414
 114393778.951 8  89138102.776 7  21768385.109                    21768392.605
 120185468.002 7  93651075.93844  22870536.266                    22870545.234
 109429712.152 8  85269941.256 7  20823777.117                    20823784.625
 127387972.145 6  99263411.26143  24241122.414                    24241130.355
 119529685.823 7  93140146.84345  22745724.414                    22745731.043
 11  8 22  3 14 30.0000000  0 10G26G25G15G18G12G05G30G29G21G02
 113775015.265 7  88655960.70045  21650664.320                    21650672.539
 118133093.656 7  92051846.161 7  22479981.422                    22479991.859
 116629187.183 7  90879990.090 7  22193798.000                    22193805.977
 125852277.513 6  98066774.62643  23948892.594                    23948902.414
 123751988.747 6  96430186.321 6  23549220.055                    23549228.523
 114470019.019 8  89197510.602 7  21782893.180                    21782900.324
 120257540.639 7  93707236.41145  22884251.609                    22884260.203
 109376746.823 8  85228669.593 7  20813698.234                    20813705.285
 127330676.104 6  99218765.08644  24230219.367                    24230228.152
 119579917.025 7  93179288.01345  22755282.930                    22755290.289
 11  8 22  3 15  0.0000000  0 10G26G25G15G18G12G05G30G29G21G02
 113721616.297 8  88614351.14545  21640502.484                    21640511.039
 118197030.381 7  92101666.967 7  22492148.492                    22492158.777
 116544374.191 7  90813902.094 7  22177658.375                    22177666.484
 125771324.070 6  98003694.23343  23933486.977                    23933497.301
 123845722.955 6  96503225.924 6  23567056.664                    23567065.227
 114546472.720 8  89257084.906 7  21797441.602                    21797449.184
 120329864.635 7  93763592.76044  22898013.727                    22898022.594
 109324152.191 8  85187686.783 7  20803689.430                    20803696.957
 127273344.720 7  99174091.36344  24219309.195                    24219317.367
 119630261.170 7  93218517.21245  22764863.539                    22764870.219
 11  8 22  3 15 30.0000000  0 10G26G25G15G18G12G05G30G29G21G02
 113668752.874 7  88573158.88845  21630443.156                    21630451.645
 118261285.261 7  92151735.691 7  22504376.008                    22504386.117
 116459828.920 7  90748022.714 7  22161570.156                    22161578.152
 125690586.339 6  97940781.89743  23918123.797                    23918131.918
 123939493.768 7  96576294.081 6  23584900.883                    23584909.621
 114623137.987 8  89316824.064 7  21812031.023                    21812037.957
 120402437.149 7  93820142.72844  22911824.070                    22911832.664
 109271931.124 8  85146995.065 7  20793752.320                    20793760.082
 127215977.990 6  99129390.09643  24208392.180                    24208400.723
 119680719.040 7  93257835.04645  22774465.680                    22774472.387
 11  8 22  3 16  0.0000000  0 10G26G25G15G18G12G05G30G29G21G02
 113616428.096 7  88532386.36445  21620486.047                    21620494.664
 118325855.418 7  92202050.086 7  22516662.938                    22516674.059
 116375554.627 7  90682354.472 7  22145533.180                    22145541.496
 125610065.371 6  97878038.43243  23902800.586                    23902809.078
 124033298.406 6  96649388.575 6  23602751.078                    23602760.070
 114700012.490 8  89376726.273 7  21826659.648                    21826666.328
 120475255.029 7  93876883.90744  22925681.039                    22925689.758
 109220085.680 8  85106596.036 7  20783886.414                    20783893.945
 127158575.186 6  99084660.70443  24197469.195                    24197476.305
 119731291.087 7  93297241.85645  22784089.125                    22784095.750
 11  8 22  3 16 30.0000000  0 10G26G25G15G18G12G05G30G29G21G02
 113564644.694 7  88492035.69045  21610632.094                    21610640.363
 118390737.689 7  92252607.701 7  22529009.766                    22529020.492
 116291554.311 7  90616899.722 7  22129548.422                    22129556.063
 125529762.129 6  97815464.63543  23887519.539                    23887528.340
 124127133.757 7  96722507.003 6  23620607.391                    23620616.137
 114777093.933 8  89436789.735 7  21841327.766                    21841334.992
 120548315.010 7  93933813.76145  22939583.781                    22939591.883
 109168617.905 8  85066491.284 7  20774092.375                    20774100.332
 127101135.989 6  99039902.95243  24186538.742                    24186546.434
 119781977.518 7  93336737.78345  22793734.063                    22793741.113
